     2.10           OBSERVATION DATA    G (GPS)             RINEX VERSION / TYPE
teqc 2005Sep1 20060522 13:37:28UTC                          PGM / RUN BY / DATE
MSXP|IAx86-PII|bcc32 5.0|MSWin95->XP|486/DX+                COMMENT
JPS2RIN 1.40 RUN BY 22-MAY-06 15:13                         COMMENT
build Feb 6 2004 (c) Javad Navigation Systems               COMMENT
Use -p (profile) switch to override ANTENNA TYPE and DELTA  COMMENT
and other fields                                            COMMENT
YLT20509a.jps                                               COMMENT
SE TPS 00000000                                             COMMENT
YLT20509a_3858                                              MARKER NAME
OBSERVER AGENCY                                             OBSERVER / AGENCY
MT310933858 TPS LEGACY 2.3 Apr,28,2004 p4                   REC # / TYPE / VERS
YLT20509a -Unknown-                                         ANT # / TYPE
   387437.1321  -738559.2570  6302217.2103                  APPROX POSITION XYZ
        0.0000        0.0000        0.0000                  ANTENNA: DELTA H/E/N
     1     1                                                WAVELENGTH FACT L1/2
     7    C1    P1    P2    L1    L2    D1    D2            # / TYPES OF OBSERV
    30.0000                                                 INTERVAL
Forced Modulo Decimation to 30 seconds                      COMMENT
teqc windowed: start @ 2006 May 9 15:28:00.000              COMMENT
  2006     5     9    15    28    0.0000000     GPS         TIME OF FIRST OBS
                                                            END OF HEADER
 06  5  9 15 28  0.0000000  0  7G 2G 7G10G13G16G27G29
  23431577.397    23431578.0124   23431577.9694  123133765.037 5  95948405.75543
     -4762.849       -3711.308
  21640898.325    21640897.5024   21640898.2864  113723688.785 7  88615875.62144
       881.161         686.598
  20044246.932    20044246.2654   20044247.6894  105333226.987 8  82077854.87446
      -595.948        -464.405
  22154825.039    22154824.0764   22154827.3354  116424392.825 7  90720320.59943
     -3914.533       -3050.753
  21417689.532    21417689.3254   21417689.4154  112550716.182 7  87701875.11244
     -1425.509       -1110.841
  22320732.517    22320732.1604   22320733.1854  117296241.943 5  91399683.10444
      1386.256        1080.175
  23771601.934    23771602.3184   23771602.7104  124920619.304 5  97340751.79543
      3059.191        2383.773
 06  5  9 15 28 30.0000000  0 10G 2G 6G 7G 8G10G13G16G21G27G29
  24358163.375    24358162.5374   24358161.9794  128003025.331 6  99742639.90042
     -4766.573       -3714.206
  22515323.221    22515322.8954   22515325.2324  118318816.531 6  92196499.63244
     -3006.003       -2342.308
  22535294.073    22535293.8074   22535295.9584  118423772.451 7  92278278.42544
       866.383         675.130
  24812722.182                                   130391743.659 6
      3048.307
  20947089.026    20947088.3524   20947089.9204  110077693.451 7  85774841.67746
      -615.682        -479.680
  23076585.511    23076585.6274   23076586.1094  121268276.493 7  94494774.47444
     -3925.228       -3058.550
  22325264.221    22325263.9014   22325263.7714  117320052.931 6  91418241.40544
     -1443.954       -1125.092
  23525852.331    23525852.1424   23525853.1274  123629194.133 6  96334449.14544
      2502.924        1950.391
  23212233.164    23212233.0394   23212234.4444  121981112.958 6  95050232.04143
      1375.057        1071.575
  24653530.911    24653530.0074   24653531.3534  129555179.699 5 100952097.49543
      3056.919        2382.027
 06  5  9 15 29  0.0000000  0 10G 2G 6G 7G 8G10G13G16G21G27G29
  24385351.345    24385348.4984   24385348.6344  128145891.647 7  99853964.20443
     -4757.582       -3707.221
  22532484.639    22532484.6224   22532486.4034  118409001.288 7  92266773.46945
     -3006.507       -2342.732
  22530354.432    22530353.9414   22530355.9074  118397812.144 7  92258049.55445
       864.293         673.489
  24795296.640    24795296.4124   24795300.0594  130300171.736 6 101532609.36042
      3056.739        2381.847
  20950624.064    20950623.1334   20950624.7034  110096268.268 8  85789315.57546
      -622.582        -485.122
  23098990.870    23098991.0144   23098991.5794  121386017.865 7  94586520.96744
     -3923.723       -3057.423
  22333526.626    22333526.1934   22333526.9694  117363472.919 7  91452075.12044
     -1450.354       -1130.144
  23511546.301    23511545.7784   23511546.1934  123554011.394 7  96275865.23044
      2508.670        1954.793
  23204381.596    23204381.1594   23204383.0674  121939851.253 7  95018080.10144
      1375.808        1072.063
  24636048.748    24636048.3794   24636050.4834  129463316.466 6 100880515.72444
      3067.133        2389.993
 06  5  9 15 29 30.0000000  0 10G 2G 6G 7G 8G10G13G16G21G27G29
  24412475.123    24412472.8024   24412472.4494  128288427.140 6  99965030.71243
     -4745.366       -3697.708
  22549641.082    22549640.7204   22549642.5264  118499157.237 7  92337024.85645
     -3004.418       -2341.092
  22525416.957    22525416.2904   22525418.2364  118371863.143 7  92237829.50545
       864.939         673.989
  24777811.441    24777809.0254   24777812.7524  130208276.430 6 101461002.59743
      3068.875        2391.366
  20954188.364    20954187.8664   20954189.2944  110115000.491 8  85803912.09946
      -626.709        -488.337
  23121376.277    23121376.6184   23121377.2224  121503653.990 7  94678185.45844
     -3919.132       -3053.855
  22341814.095    22341813.7334   22341813.4684  117407022.045 7  91486009.50044
     -1453.508       -1132.574
  23497200.451    23497200.1384   23497199.9364  123478624.704 7  96217122.43144
      2516.494        1960.934
  23196515.523    23196515.1194   23196516.4584  121898513.885 7  94985869.18744
      1379.334        1074.815
  24618498.625    24618498.6444   24618502.0844  129371092.360 6 100808652.62643
      3080.252        2400.181
 06  5  9 15 30  0.0000000  0 10G 2G 6G 7G 8G10G13G16G21G27G29
  24439525.236    24439525.1974   24439525.7064  128430591.938 6 100075808.36743
     -4732.235       -3687.441
  22566784.411    22566783.9104   22566785.5104  118589244.240 7  92407222.49445
     -3001.234       -2338.627
  22520474.118    22520473.7664   22520475.7624  118345889.314 7  92217590.16245
       866.549         675.230
  24760255.121    24760254.2154   24760256.7164  130116022.970 6 101389116.76643
      3081.406        2401.118
  20957776.313    20957775.4584   20957776.6074  110133852.618 8  85818602.04946
      -629.946        -490.875
  23143734.345    23143734.3574   23143734.8634  121621144.130 7  94769736.18744
     -3913.481       -3049.467
  22350118.424    22350118.2794   22350118.1314  117450661.637 7  91520014.34544
     -1455.760       -1134.359
  23482809.211    23482808.8694   23482809.2774  123402998.520 6  96158192.96944
      2525.273        1967.738
  23188627.938    23188627.5314   23188629.2074  121857064.970 7  94953571.37244
      1383.740        1078.247
  24600875.393    24600874.0144   24600876.9604  129278472.265 6 100736481.11943
      3094.481        2411.267
 06  5  9 15 30 30.0000000  0 10G 2G 6G 7G 8G10G13G16G21G27G29
  24466508.147    24466507.2734   24466508.4414  128572385.245 6 100186296.56143
     -4721.120       -3678.799
  22583913.618    22583913.5314   22583915.7704  118679262.585 7  92477366.63045
     -3000.208       -2337.838
  22515527.068    22515527.0244   22515528.7124  118319894.454 7  92197334.43845
       866.097         674.867
  24742634.371    24742631.8804   24742633.8404  130023415.548 6 101316955.13042
      3092.027        2409.425
  20961386.970    20961386.1104   20961387.3204  110152826.572 8  85833386.92846
      -635.133        -494.907
  23166064.222    23166064.4264   23166064.9274  121738487.680 7  94861172.66644
     -3909.667       -3046.493
  22358440.467    22358439.9004   22358440.2074  117494393.167 7  91554090.80844
     -1460.002       -1137.656
  23468372.677    23468372.6704   23468373.3164  123327137.422 6  96099080.44944
      2531.898        1972.915
  23180719.916    23180719.6114   23180720.8084  121815508.572 7  94921189.80344
      1386.160        1080.116
  24583176.430    24583175.3404   24583176.9934  129185460.632 6 100664004.44243
      3105.965        2420.260
 06  5  9 15 31  0.0000000  0 10G 2G 6G 7G 8G10G13G16G21G27G29
  24493424.941    24493425.4874   24493427.3544  128713842.930 6 100296523.26443
     -4710.078       -3670.179
  22601037.895    22601038.0564   22601039.5194  118769248.832 8  92547485.73645
     -2999.393       -2337.196
  22510584.557    22510583.8734   22510585.9404  118293918.777 7  92177093.65045
       865.089         674.081
  24724951.962    24724949.3134   24724951.6014  129930496.195 6 101244550.45442
      3102.003        2417.185
  20965027.481    20965026.9324   20965028.6354  110171961.088 8  85848296.93046
      -640.876        -499.377
  23188372.934    23188372.9644   23188373.4304  121855720.381 7  94952522.78244
     -3906.299       -3043.862
  22366786.978    22366786.2824   22366786.1304  117538254.289 7  91588268.28244
     -1464.604       -1141.224
  23453899.923    23453900.1634   23453900.4714  123251082.156 6  96039816.65544
      2537.986        1977.640
  23172799.330    23172799.2334   23172800.5284  121773885.241 7  94888756.07144
      1388.243        1081.751
  24565410.746    24565409.5644   24565411.5774  129092098.624 6 100591254.85043
      3117.652        2429.352
 06  5  9 15 31 30.0000000  0 10G 2G 6G 7G 8G10G13G16G21G27G29
  24520285.203    24520285.0254   24520285.9544  128854986.630 7 100406505.35243
     -4700.289       -3662.551
  22618159.354    22618159.2214   22618160.9684  118859224.840 7  92617596.89645
     -2999.777       -2337.464
  22505649.500    22505649.0964   22505651.3574  118267987.560 7  92156887.48945
       862.739         672.260
  24707214.237    24707213.2164   24707216.7894  129837291.881 6 101171923.70843
      3110.775        2423.979
  20968704.143    20968703.5474   20968704.9464  110191280.442 8  85863350.96946
      -647.788        -504.764
  23210664.790    23210664.6184   23210665.5194  121972863.797 7  95043803.32344
     -3904.059       -3042.116
  22375161.855    22375161.7814   22375162.4174  117582268.437 7  91622565.00244
     -1470.421       -1145.780
  23439395.374    23439395.0274   23439395.5254  123174859.776 6  95980422.64944
      2542.755        1981.368
  23164870.506    23164869.9254   23164871.7724  121732220.406 7  94856290.01344
      1388.850        1082.223
  24547580.610    24547581.5634   24547583.4954  128998412.624 6 100518252.67443
      3127.609        2437.104
 06  5  9 15 32  0.0000000  0 10G 2G 6G 7G 8G10G13G16G21G27G29
  24547094.747    24547092.4184   24547090.4084  128995853.014 6 100516271.27343
     -4691.612       -3655.852
  22635286.524    22635286.3914   22635288.3834  118949227.962 7  92687729.19544
     -3001.136       -2338.542
  22500731.287    22500731.0344   22500732.8234  118242141.835 7  92136747.98445
       859.548         669.772
  24689431.030    24689430.0054   24689433.6504  129743844.767 6 101099107.79543
      3118.437        2429.958
  20972423.426    20972422.5124   20972423.7614  110210823.697 8  85878579.47346
      -655.717        -510.957
  23232945.763    23232946.2804   23232946.6304  122089954.206 7  95135042.57544
     -3902.673       -3041.052
  22383574.323    22383573.8334   22383574.4414  117626474.027 7  91657010.90044
     -1477.173       -1151.053
  23424867.182    23424866.7404   23424867.4664  123098511.669 7  95920930.65244
      2546.333        1984.152
  23156942.109    23156941.6874   23156943.2794  121690555.485 7  94823823.86244
      1388.260        1081.744
  24529698.037    24529699.1734   24529701.9004  128904444.292 6 100445030.58043
      3136.589        2444.062
 06  5  9 15 32 30.0000000  0 10G 2G 6G 7G 8G10G13G16G21G27G29
  24573845.941    24573847.5964   24573849.3144  129136462.163 6 100625836.75043
     -4683.291       -3649.300
  22652422.885    22652422.7924   22652424.2064  119039278.584 7  92757898.49744
     -3003.449       -2340.353
  22495834.197    22495833.5624   22495835.5894  118216405.571 7  92116693.76645
       855.137         666.310
  24671606.496    24671607.6904   24671609.7644  129650179.860 6 101026122.23343
      3124.818        2434.900
  20976188.751    20976188.1174   20976189.8454  110230613.306 8  85893999.92646
      -664.704        -517.964
  23255221.402    23255221.7014   23255221.9804  122207011.850 7  95226256.29144
     -3902.208       -3040.691
  22392026.775    22392026.9764   22392027.0184  117670892.821 7  91691622.93344
     -1485.079       -1157.223
  23410319.584    23410319.0644   23410319.7744  123022062.992 7  95861360.26444
      2549.091        1986.292
  23149018.480    23149018.3884   23149019.3694  121648914.903 7  94791376.67544
      1386.659        1080.531
  24511770.699    24511770.1184   24511772.7194  128810218.798 6 100371607.86743
      3144.094        2449.909
 06  5  9 15 33  0.0000000  0 10G 2G 6G 7G 8G10G13G16G21G27G29
  24600569.287    24600568.4904   24600567.7554  129276873.198 6 100735247.91643
     -4676.791       -3644.257
  22669578.637    22669578.9904   22669580.4554  119129436.786 7  92828151.63144
     -3006.888       -2343.041
  22490969.421    22490969.2344   22490971.0964  118190842.497 7  92096774.47945
       849.372         661.859
  24653754.472    24653753.3694   24653756.8654  129556362.376 6 100953017.73943
      3129.711        2438.701
  20980013.844    20980013.0494   20980014.2974  110250711.442 8  85909660.80446
      -674.967        -525.961
  23277502.384    23277502.0254   23277502.1234  122324095.573 7  95317490.31744
     -3903.070       -3041.360
  22400531.600    22400531.3344   22400531.6054  117715586.013 7  91726448.78744
     -1494.193       -1164.304
  23395764.847    23395764.4814   23395765.0124  122945578.328 7  95801761.85844
      2550.299        1987.234
  23141111.266    23141110.9234   23141112.5074  121607362.782 7  94758998.42744
      1383.632        1078.161
  24493801.132    24493801.7224   24493803.6404  128715801.195 6 100298035.66543
      3150.625        2454.998
 06  5  9 15 33 30.0000000  0 10G 2G 6G 7G 8G10G13G16G21G27G29
  24627251.232    24627249.4984   24627249.9324  129417085.678 6 100844504.32043
     -4670.578       -3639.447
  22686756.199    22686755.9604   22686757.6704  119219702.184 7  92898488.26444
     -3010.806       -2346.094
  22486138.904    22486138.3154   22486140.2104  118165456.026 7  92076992.84645
       842.927         656.802
  24635874.160    24635872.7614   24635876.0344  129462396.603 7 100879797.75443
      3134.273        2442.272
  20983897.335    20983896.5284   20983897.9524  110271119.509 8  85925563.19146
      -685.703        -534.342
  23299786.876    23299787.1964   23299786.7854  122441204.604 7  95408744.06344
     -3904.308       -3042.343
  22409088.418    22409088.1354   22409088.4614  117760554.057 7  91761488.80444
     -1503.723       -1171.729
  23381204.065    23381203.6804   23381204.2884  122869061.804 7  95742138.62144
      2550.763        1987.577
  23133221.752    23133221.4804   23133222.7284  121565902.360 7  94726691.64145
      1380.221        1075.481
  24475801.047    24475800.1604   24475801.6594  128621195.406 6 100224316.90143
      3156.222        2459.422
 06  5  9 15 34  0.0000000  0 10G 2G 6G 7G 8G10G13G16G21G27G29
  24653894.506    24653892.6824   24653892.3774  129557096.333 6 100953603.38143
     -4663.880       -3634.212
  22703953.313    22703952.5784   22703954.5674  119310071.846 7  92968906.14844
     -3014.337       -2348.847
  22481341.321    22481341.1804   22481343.1464  118140246.626 7  92057349.14445
       837.234         652.394
  24617962.259    24617963.9654   24617966.9734  129368285.076 6 100806464.16343
      3139.174        2446.108
  20987839.772    20987838.8554   20987840.3014  110291837.009 8  85941706.69246
      -695.967        -542.316
  23322076.321    23322076.5264   23322076.7284  122558335.528 7  95500014.84744
     -3904.824       -3042.723
  22417697.932    22417697.3144   22417698.1954  117805795.617 7  91796741.93144
     -1512.863       -1178.859
  23366638.047    23366637.5254   23366638.1064  122792515.146 7  95682491.89644
      2551.917        1988.475
  23125349.474    23125349.2764   23125350.4744  121524534.906 7  94694457.28245
      1377.125        1073.083
  24457762.736    24457761.5854   24457763.6864  128526403.308 6 100150452.92843
      3162.607        2464.370
 06  5  9 15 34 30.0000000  0 10G 2G 6G 7G 8G10G13G16G21G27G29
  24680506.285    24680502.7254   24680501.2294  129696925.342 7 101062560.94743
     -4658.383       -3629.929
  22721172.854    22721173.1274   22721174.9644  119400566.628 7  93039421.51544
     -3019.158       -2352.583
  22476582.548    22476581.8994   22476584.3004  118115238.726 7  92037862.46245
       829.728         646.552
  24600032.149    24600031.9764   24600035.0514  129274053.280 6 100733036.91443
      3142.467        2448.690
  20991845.206    20991844.3914   20991845.7804  110312886.497 8  85958108.87546
      -707.713        -551.464
  23344373.729    23344373.3784   23344374.4564  122675508.660 7  95591318.52344
     -3906.965       -3044.368
  22426363.829    22426363.6914   22426364.2494  117851332.815 7  91832225.45244
     -1523.425       -1187.106
  23352071.089    23352070.6954   23352070.9624  122715963.792 7  95622841.49144
      2551.163        1987.887
  23117499.979    23117499.6054   23117501.1924  121483285.221 7  94662314.69645
      1372.530        1069.490
  24439691.077    24439691.6894   24439693.5224  128431449.922 6 100076463.13443
      3167.176        2467.892
 06  5  9 15 35  0.0000000  0 11G 2G 3G 6G 7G 8G10G13G16G21G27G29
  24707077.068    24707078.6874   24707079.0844  129836584.933 6 101171386.58443
     -4653.399       -3626.040
  25008216.141    25008216.3694   25008217.3204  131419053.207 5 102404479.71841
      3072.637        2394.219
  22738420.093    22738420.1794   22738422.1764  119491198.885 7  93110044.00144
     -3024.127       -2356.470
  22471865.122    22471864.5964   22471866.6824  118090448.141 7  92018545.11945
       822.061         640.588
  24582081.532    24582080.7674   24582084.1694  129179718.416 7 100659529.34243
      3145.410        2450.961
  20995916.835    20995915.9944   20995917.4434  110334282.270 8  85974780.88446
      -719.659        -560.776
  23366681.569    23366681.4344   23366682.2964  122792735.586 7  95682664.12144
     -3909.068       -3046.017
  22435087.546    22435087.2894   22435088.5664  117897178.917 7  91867949.66044
     -1534.024       -1195.346
  23337506.263    23337505.8104   23337505.9434  122639424.888 7  95563200.77144
      2550.370        1987.308
  23109676.062    23109676.0004   23109677.2254  121442169.309 7  94630276.34944
      1367.582        1065.663
  24421597.264    24421596.9704   24421597.5464  128336352.741 6 100002361.49943
      3171.308        2471.168
 06  5  9 15 35 30.0000000  0 11G 2G 3G 6G 7G 8G10G13G16G21G27G29
  24733622.159    24733625.3974   24733626.8764  129976093.470 6 101280094.48843
     -4648.100       -3621.852
  24990662.384    24990660.2644   24990664.6094  131326807.425 5 102332599.86141
      3075.755        2396.763
  22755696.624    22755696.2044   22755698.7534  119581987.726 7  93180788.51044
     -3029.247       -2360.444
  22467193.516    22467193.0284   22467194.8204  118065897.898 7  91999415.06345
       813.871         634.187
  24564112.502    24564114.5394   24564117.1254  129085305.065 6 100585960.55243
      3147.799        2452.826
  21000058.367    21000057.5824   21000058.8294  110356045.502 8  85991739.23346
      -731.972        -570.342
  23389002.357    23389002.3554   23389003.4604  122910034.441 7  95774065.76144
     -3911.457       -3047.873
  22443874.440    22443874.3604   22443874.9914  117943354.141 7  91903930.32044
     -1544.976       -1203.867
  23322947.755    23322947.7434   23322948.0004  122562921.807 7  95503587.94944
      2549.125        1986.344
  23101881.407    23101881.4464   23101882.6484  121401210.129 7  94598360.12245
      1362.333        1061.563
  24403478.287    24403476.9144   24403479.5874  128241135.264 6  99928166.17343
      3175.297        2474.260
 06  5  9 15 36  0.0000000  0 11G 2G 3G 6G 7G 8G10G13G16G21G27G29
  24760153.558    24760153.6464   24760153.2424  130115494.409 6 101388718.54943
     -4646.205       -3620.446
  24973101.509    24973099.5794   24973101.1004  131234523.125 5 102260690.06541
      3075.448        2396.506
  22773011.630    22773011.4074   22773013.5264  119672977.012 7  93251689.20644
     -3037.733       -2367.080
  22462576.614    22462575.7904   22462577.4964  118041635.041 7  91980508.92045
       802.638         625.436
  24546142.388    24546142.6724   24546145.5794  128990861.772 6 100512368.49543
      3147.252        2452.379
  21004278.451    21004277.5604   21004278.8034  110378221.933 8  86009019.54046
      -747.422        -582.395
  23411345.459    23411345.7324   23411346.7364  123027448.680 7  95865557.31844
     -3917.108       -3052.278
  22452732.921    22452732.4444   22452732.6154  117989903.491 7  91940202.53144
     -1559.146       -1214.896
  23308406.586    23308405.6744   23308405.6614  122486503.147 7  95444040.95444
      2544.652        1982.857
  23094126.133    23094125.7644   23094127.4344  121360455.611 7  94566603.37145
      1353.724        1054.852
  24385342.803    24385342.4114   24385346.2714  128145846.236 6  99853915.22043
      3176.146        2474.900
 06  5  9 15 36 30.0000000  0 11G 2G 3G 6G 7G 8G10G13G16G21G27G29
  24786666.388    24786666.5374   24786667.9954  130254827.564 6 101497289.80443
     -4643.136       -3617.997
  24955541.402    24955540.4114   24955544.0154  131142244.941 5 102188785.04941
      3075.802        2396.741
  22790372.398    22790372.3124   22790373.5274  119764206.290 7  93322776.93144
     -3044.861       -2372.610
  22458022.122    22458021.5884   22458023.6084  118017703.227 7  91961860.75745
       792.222         617.335
  24528174.978    24528173.2384   24528175.6124  128896433.180 6 100438787.92243
      3147.453        2452.551
  21008584.623    21008584.0964   21008585.4694  110400853.264 8  86026654.32646
      -761.925        -593.705
  23433718.235    23433718.4034   23433719.3794  123145017.587 7  95957169.39144
     -3921.411       -3055.627
  22461669.909    22461669.7414   22461669.7684  118036867.811 7  91976798.07644
     -1572.241       -1225.109
  23293888.796    23293888.2684   23293888.2104  122410213.101 7  95384594.14344
      2540.850        1979.882
  23086417.903    23086417.6594   23086419.4594  121319949.590 7  94535040.24645
      1346.034        1048.863
  24367201.500    24367203.8914   24367207.2084  128050529.444 6  99779642.45043
      3177.744        2476.171
 06  5  9 15 37  0.0000000  0 11G 2G 3G 6G 7G 8G10G13G16G21G27G29
  24813164.741    24813164.6584   24813164.7004  130394071.077 6 101605791.30343
     -4640.317       -3615.873
  24937980.576    24937979.3414   24937981.0554  131049956.507 5 102116871.98241
      3076.121        2397.034
  22807773.593    22807773.9754   22807775.8944  119855654.513 7  93394035.19844
     -3052.267       -2378.391
  22453527.621    22453527.5814   22453529.3144  117994084.624 7  91943456.64644
       781.710         609.108
  24510204.797    24510203.6924   24510206.0864  128802003.389 6 100365206.35143
      3147.275        2452.421
  21012974.579    21012973.8604   21012975.0694  110423920.289 8  86044628.61946
      -776.538        -605.100
  23456116.547    23456116.2324   23456117.3844  123262719.474 7  96048885.11944
     -3925.913       -3059.141
  22470682.564    22470682.1154   22470682.2854  118084226.998 7  92013701.31444
     -1585.560       -1235.510
  23279392.520    23279392.1764   23279392.1034  122334035.522 7  95325235.01344
      2537.107        1976.950
  23078754.105    23078753.5474   23078754.9264  121279674.489 7  94503657.05244
      1338.334        1042.839
  24349056.057    24349057.3074   24349060.4804  127955168.602 6  99705335.26843
      3179.218        2477.262
 06  5  9 15 37 30.0000000  0 11G 2G 3G 6G 7G 8G10G13G16G21G27G29
  24839647.254    24839648.2504   24839646.6904  130533238.822 6 101714233.75343
     -4637.456       -3613.637
  24920419.692    24920417.5714   24920422.6604  130957677.311 5 102044966.12741
      3075.963        2396.828
  22825221.338    22825221.1994   22825222.5784  119947335.988 7  93465475.24844
     -3059.818       -2384.265
  22449096.895    22449096.1834   22449097.6094  117970797.012 7  91925310.44944
       770.993         600.766
  24492237.109    24492237.5124   24492240.1664  128707591.347 6 100291638.60743
      3147.164        2452.323
  21017449.844    21017449.0624   21017450.6054  110447438.825 8  86062954.74046
      -791.207        -616.509
  23478541.757    23478542.5094   23478543.7414  123380567.578 7  96140714.74744
     -3930.383       -3062.618
  22479772.652    22479772.0494   22479772.7204  118131996.555 7  92050924.34245
     -1598.898       -1245.887
  23264921.531    23264920.6214   23264921.2064  122257988.887 7  95265977.92744
      2532.980        1973.787
  23071137.322    23071137.0724   23071138.1854  121239648.397 7  94472467.90145
      1330.370        1036.653
  24330908.392    24330906.7394   24330910.2864  127859782.737 6  99631008.59343
      3180.360        2478.216
 06  5  9 15 38  0.0000000  0 11G 2G 3G 6G 7G 8G10G13G16G21G27G29
  24866110.865    24866110.8144   24866110.2194  130672307.162 6 101822598.66543
     -4634.683       -3611.457
  24902858.251    24902857.0114   24902859.7024  130865388.915 6 101973053.13241
      3075.523        2396.524
  22842707.315    22842706.8774   22842708.6334  120039227.343 7  93537078.85244
     -3067.336       -2390.121
  22444724.383    22444723.9394   22444725.5544  117947820.839 7  91907406.94545
       759.911         592.161
  24474271.771    24474271.3244   24474274.2874  128613179.304 6 100218070.91643
      3146.114        2451.505
  21022007.094    21022006.2134   21022007.8384  110471387.574 8  86081616.09246
      -806.361        -628.331
  23500991.200    23500991.0664   23500993.2554  123498538.351 7  96232639.97443
     -3935.266       -3066.427
  22488936.580    22488936.3444   22488936.5514  118180154.110 7  92088449.70945
     -1612.481       -1256.476
  23250471.633    23250470.8604   23250470.9074  122182054.814 7  95206808.52444
      2528.435        1970.200
  23063564.480    23063564.2174   23063564.9584  121199852.481 7  94441458.11044
      1321.816        1030.001
  24312747.055    24312747.2284   24312749.3294  127764353.563 6  99556648.15643
      3181.039        2478.730
 06  5  9 15 38 30.0000000  0 11G 2G 3G 6G 7G 8G10G13G16G21G27G29
  24892556.863    24892557.4504   24892557.2254  130811282.813 6 101930891.46143
     -4630.787       -3608.396
  24885295.728    24885296.7934   24885297.8164  130773103.165 5 101901142.23141
      3076.507        2397.262
  22860234.593    22860234.4464   22860236.1474  120131335.786 7  93608851.61944
     -3073.651       -2395.046
  22440413.607    22440412.9374   22440414.2134  117925166.437 8  91889754.15244
       749.925         584.365
  24456308.862    24456307.7944   24456310.2654  128518779.145 7 100144512.48343
      3146.556        2451.827
  21026648.392    21026647.4514   21026648.8674  110495775.524 8  86100619.66346
      -819.914        -638.886
  23523464.756    23523465.2304   23523466.2944  123616638.239 7  96324665.80443
     -3938.641       -3069.072
  22498176.368    22498175.7494   22498176.1464  118228707.978 7  92126283.86745
     -1624.879       -1266.124
  23236045.264    23236045.1134   23236044.7954  122106244.613 7  95147735.63544
      2525.106        1967.627
  23056037.281    23056037.1014   23056038.3274  121160297.180 7  94410635.79545
      1314.776        1024.498
  24294583.030    24294581.5394   24294585.9014  127668892.346 6  99482262.69143
      3182.656        2479.969
 06  5  9 15 39  0.0000000  0 11G 2G 3G 6G 7G 8G10G13G16G21G27G29
  24918985.253    24918984.3524   24918983.3074  130950157.591 6 102039105.49643
     -4627.563       -3605.935
  24867734.176    24867735.5844   24867737.1044  130680817.724 6 101829231.52341
      3075.788        2396.708
  22877802.043    22877802.3794   22877804.3184  120223653.738 7  93680787.67445
     -3081.102       -2400.854
  22436162.800    22436162.5554   22436163.6814  117902830.039 7  91872349.15544
       738.843         575.722
  24438346.511    24438345.4134   24438348.7314  128424388.426 7 100070961.38043
      3145.875        2451.308
  21031371.527    21031370.6544   21031372.3234  110520597.069 8  86119961.11746
      -834.941        -650.594
  23545961.587    23545962.0414   23545963.1034  123734859.242 7  96416786.00443
     -3942.940       -3072.391
  22507489.999    22507489.6954   22507489.8864  118277651.544 7  92164421.69445
     -1638.266       -1276.561
  23221641.974    23221641.5694   23221642.0424  122030555.961 7  95088757.54244
      2520.771        1964.255
  23048555.176    23048554.9294   23048556.1204  121120979.264 7  94379998.46144
      1306.266        1017.883
  24276411.040    24276409.4484   24276411.5004  127573396.619 6  99407850.33243
      3183.617        2480.728
 06  5  9 15 39 30.0000000  0 11G 2G 3G 6G 7G 8G10G13G16G21G27G29
  24945394.229    24945393.7864   24945391.7584  131088942.138 6 102147249.17943
     -4623.987       -3603.133
  24850176.714    24850176.0374   24850178.9094  130588547.931 6 101757333.03241
      3075.787        2396.751
  22895411.851    22895411.6794   22895413.6084  120316191.522 7  93752895.02745
     -3087.717       -2406.024
  22431975.335    22431975.0774   22431976.7234  117880825.707 7  91855202.93144
       728.513         567.653
  24420390.039    24420388.6964   24420390.3234  128330022.838 7  99997429.80743
      3145.668        2451.170
  21036179.708    21036178.8944   21036180.4574  110545864.569 8  86139650.05346
      -849.151        -661.677
  23568483.244    23568484.4754   23568484.3264  123853211.116 7  96509008.20843
     -3946.668       -3075.322
  22516880.274    22516880.1734   22516879.4174  118326996.240 7  92202872.10045
     -1650.915       -1286.435
  23207264.562    23207264.5854   23207264.8054  121955003.859 6  95029885.82444
      2516.853        1961.182
  23041121.182    23041120.9604   23041122.6794  121081913.029 7  94349557.24245
      1298.646        1011.935
  24258234.762    24258234.2174   24258236.1364  127477882.026 6  99333423.42243
      3184.705        2481.606
 06  5  9 15 40  0.0000000  0 11G 2G 3G 6G 7G 8G10G13G16G21G27G29
  24971787.112    24971786.5634   24971784.0624  131227627.272 7 102255315.55143
     -4621.741       -3601.390
  24832618.841    24832620.0874   24832621.1244  130496289.524 6 101685443.43642
      3074.526        2395.718
  22913061.145    22913061.0694   22913063.0904  120408940.162 7  93825166.71745
     -3095.699       -2412.237
  22427850.569    22427850.1054   22427851.4944  117859147.564 7  91838310.87944
       716.521         558.327
  24402435.658    24402434.9184   24402437.1974  128235678.080 7  99923914.48243
      3143.720        2449.667
  21041071.221    21041070.8144   21041072.1444  110571570.715 8  86159680.80846
      -864.661        -673.758
  23591027.656    23591027.6444   23591029.1754  123971684.115 6  96601324.77443
     -3951.727       -3079.280
  22526344.798    22526344.7534   22526344.6504  118376734.122 8  92241628.84545
     -1665.013       -1297.408
  23192912.940    23192912.5704   23192912.6904  121879583.586 6  94971116.79944
      2511.138        1956.727
  23033734.558    23033734.2954   23033735.3074  121043092.937 7  94319307.81344
      1289.258        1004.610
  24240053.384    24240053.4024   24240055.1394  127382343.112 6  99258977.42343
      3184.455        2481.417
 06  5  9 15 40 30.0000000  0 11G 2G 3G 6G 7G 8G10G13G16G21G27G29
  24998157.810    24998158.4154   24998159.2934  131366224.358 6 102363313.21843
     -4617.894       -3598.318
  24815068.482    24815068.8764   24815071.2264  130404059.285 6 101613575.73942
      3074.916        2396.005
  22930753.407    22930753.0034   22930755.2264  120501911.147 7  93897611.58745
     -3102.021       -2417.137
  22423790.389    22423789.8344   22423791.6864  117837811.119 7  91821685.08144
       706.154         550.244
  24384491.135    24384489.6114   24384491.4224  128141371.212 6  99850428.70643
      3143.737        2449.690
  21046049.857    21046048.8974   21046050.0234  110597729.279 8  86180064.08546
      -878.736        -684.711
  23613597.654    23613598.3724   23613598.4504  124090289.730 7  96693744.69543
     -3954.991       -3081.814
  22535887.002    22535886.7844   22535886.9064  118426878.025 7  92280701.97545
     -1677.488       -1307.117
  23178589.519    23178588.9914   23178589.0494  121804311.859 7  94912463.54244
      2507.207        1953.699
  23026396.879    23026396.5394   23026397.9814  121004534.821 7  94289262.53445
      1281.614         998.671
  24221873.467    24221872.0694   24221873.8814  127286797.022 6  99184525.88343
      3185.629        2482.313
 06  5  9 15 41  0.0000000  0 11G 2G 3G 6G 7G 8G10G13G16G21G27G29
  25024513.555    25024512.8754   25024511.4744  131504710.965 6 102471224.76143
     -4614.733       -3595.893
  24797519.806    24797520.0554   24797522.1264  130311841.059 6 101541717.42142
      3073.355        2394.892
  22948483.427    22948482.9514   22948485.1054  120595083.574 7  93970213.50845
     -3109.420       -2422.928
  22419791.636    22419791.2344   22419792.8274  117816798.392 7  91805311.49545
       694.661         541.300
  24366547.760    24366547.4154   24366549.8564  128047086.036 6  99776959.78643
      3141.955        2448.299
  21051109.532    21051108.7564   21051110.3964  110624320.774 8  86200784.71446
      -893.943        -696.563
  23636189.106    23636189.1564   23636189.9014  124209005.900 7  96786250.76143
     -3959.451       -3085.265
  22545502.570    22545502.2534   22545502.2224  118477407.510 7  92320075.56945
     -1691.160       -1317.777
  23164290.642    23164290.0224   23164290.6054  121729171.600 7  94853912.71544
      2502.097        1949.701
  23019105.883    23019105.6544   23019106.7114  120966221.556 7  94259408.03044
      1272.705         991.734
  24203685.971    24203685.4534   24203688.0734  127191227.848 6  99110056.52643
      3185.594        2482.311
 06  5  9 15 41 30.0000000  0 11G 2G 3G 6G 7G 8G10G13G16G21G27G29
  25050851.390    25050850.1294   25050849.1484  131643105.527 7 102579064.53343
     -4612.118       -3593.874
  24779977.960    24779978.3934   24779980.3374  130219657.675 6 101469886.27242
      3071.364        2393.215
  22966255.302    22966255.1594   22966257.2644  120688475.194 7  94042986.22345
     -3117.243       -2429.007
  22415858.396    22415858.5074   22415859.9324  117796131.051 7  91789207.07345
       682.610         531.923
  24348612.912    24348613.4544   24348617.0104  127952845.745 6  99703525.83343
      3140.078        2446.849
  21056255.690    21056254.9674   21056256.4844  110651364.509 8  86221857.74946
      -909.555        -708.742
  23658803.839    23658804.8064   23658805.3714  124327850.124 7  96878856.60643
     -3964.054       -3088.857
  22555195.074    22555194.6764   22555194.6114  118528341.594 8  92359764.46345
     -1705.035       -1328.588
  23150020.962    23150020.4354   23150021.0964  121654185.723 7  94795482.17744
      2496.410        1945.266
  23011865.199    23011865.3544   23011866.6644  120928174.592 7  94229761.03544
      1263.244         984.349
  24185500.164    24185498.8974   24185501.5724  127095657.292 6  99035586.00743
      3185.150        2481.956
 06  5  9 15 42  0.0000000  0 11G 2G 3G 6G 7G 8G10G13G16G21G27G29
  25077165.798    25077166.3074   25077165.2814  131781401.498 6 102686827.52443
     -4608.463       -3590.994
  24762442.840    24762442.5274   24762445.0084  130127508.112 6 101398081.46042
      3070.843        2392.870
  22984067.797    22984067.6534   22984069.5224  120782079.561 7  94115924.66645
     -3124.028       -2434.310
  22411991.631    22411990.8214   22411992.0214  117775806.079 7  91773369.43245
       671.474         523.220
  24330688.246    24330688.2174   24330691.7614  127858649.056 6  99630125.85543
      3138.872        2445.871
  21061487.423    21061486.6564   21061487.7884  110678855.978 8  86243279.65046
      -924.135        -720.109
  23681442.346    23681442.8714   23681443.4674  124446815.659 6  96971557.00543
     -3967.859       -3091.855
  22564963.474    22564963.0534   22564963.2354  118579674.873 7  92399764.41345
     -1718.056       -1338.750
  23135780.516    23135780.6114   23135780.6764  121579352.718 7  94737170.72244
      2491.585        1941.520
  23004675.826    23004675.5274   23004676.7254  120890391.618 7  94200319.74944
      1254.669         977.661
  24167312.275    24167312.3984   24167314.7254  127000084.079 6  98961113.38943
      3185.506        2482.220
 06  5  9 15 42 30.0000000  0 11G 2G 3G 6G 7G 8G10G13G16G21G27G29
  25103463.799    25103463.6714   25103464.9574  131919599.434 6 102794514.25543
     -4605.213       -3588.440
  24744915.103    24744915.2424   24744917.3984  130035398.009 6 101326307.41142
      3069.080        2391.463
  23001920.186    23001920.0984   23001922.3314  120875897.213 7  94189029.33845
     -3131.075       -2439.795
  22408189.205    22408188.7844   22408190.2144  117755827.489 7  91757801.70445
       659.863         514.192
  24312773.685    24312772.8714   24312775.5874  127764501.758 6  99556764.33543
      3137.044        2444.433
  21066804.178    21066803.4064   21066805.0594  110706797.571 8  86265052.29046
      -939.267        -731.893
  23704104.231    23704104.2184   23704104.6864  124565902.422 6  97064351.88143
     -3971.998       -3095.064
  22574808.093    22574807.5384   22574807.6264  118631408.610 8  92440076.41245
     -1731.467       -1349.192
  23121570.970    23121569.9934   23121570.8564  121504677.764 7  94678982.39244
      2486.060        1937.182
  22997537.824    22997537.0904   22997538.0224  120852876.999 7  94171087.57545
      1245.709         970.661
  24149126.478    24149125.1114   24149128.1724  126904513.592 6  98886642.88743
      3185.244        2482.031
 06  5  9 15 43  0.0000000  0 11G 2G 3G 6G 7G 8G10G13G16G21G27G29
  25129744.778    25129745.2014   25129745.2804  132057704.713 7 102902128.81743
     -4602.506       -3586.396
  24727396.042    24727395.7834   24727397.6194  129943337.668 6 101254572.16242
      3067.099        2389.962
  23019815.194    23019814.9274   23019816.9004  120969933.846 7  94262304.65145
     -3138.793       -2445.835
  22404455.075    22404454.5014   22404456.1184  117736204.405 7  91742510.99845
       647.677         504.679
  24294869.836    24294868.6324   24294871.6804  127670414.486 6  99483449.56443
      3134.585        2442.540
  21072208.385    21072207.8524   21072209.1244  110735196.695 8  86287181.45946
      -954.874        -744.069
  23726789.847    23726789.6504   23726790.7254  124685115.289 7  97157244.99243
     -3976.472       -3098.536
  22584729.760    22584729.5404   22584729.6864  118683549.585 7  92480705.72145
     -1745.581       -1360.201
  23107392.559    23107392.1004   23107392.8264  121430171.342 7  94620925.39644
      2480.144        1932.594
  22990451.374    22990450.8764   22990452.3164  120815640.333 7  94142071.97944
      1236.124         963.192
  24130941.594    24130941.7374   24130943.7274  126808956.150 7  98812182.52043
      3184.291        2481.228
 06  5  9 15 43 30.0000000  0 10G 3G 6G 7G 8G10G13G16G21G27G29
  24709888.316    24709887.1954   24709889.4914  129851330.192 6 101182878.11043
      3065.662        2388.832
  23037751.067    23037751.0854   23037752.4934  121064186.996 7  94335748.67845
     -3145.549       -2451.052
  22400788.685    22400788.5234   22400790.3614  117716938.066 7  91727498.25345
       635.954         495.572
  24276976.696    24276976.7774   24276979.1804  127576390.039 6  99410183.75343
      3132.692        2441.054
  21077700.179    21077699.2314   21077700.5174  110764053.072 8  86309666.91646
      -969.788        -755.658
  23749499.289    23749499.8614   23749499.2224  124804451.817 7  97250234.46743
     -3980.107       -3101.370
  22594729.531    22594729.2224   22594729.2924  118736096.681 7  92521651.51645
     -1758.637       -1370.348
  23093246.957    23093246.4194   23093246.8964  121355835.559 6  94563001.39744
      2474.720        1928.368
  22983418.323    22983418.4084   22983419.3854  120778683.032 7  94113274.07245
      1226.991         956.121
  24112759.955    24112760.0024   24112763.0904  126713414.699 6  98737734.77943
      3184.095        2481.116
 06  5  9 15 44  0.0000000  0 10G 3G 6G 7G 8G10G13G16G21G27G29
  24692389.034    24692388.5954   24692390.4964  129759371.394 6 101111221.95943
      3064.049        2387.573
  23055726.072    23055726.0564   23055727.1334  121158648.121 7  94409354.77644
     -3152.543       -2456.524
  22397189.981    22397189.3094   22397190.5554  117698022.809 7  91712759.09745
       624.299         486.483
  24259096.281    24259095.8954   24259098.1774  127482424.678 7  99336963.97143
      3130.840        2439.633
  21083276.073    21083275.7364   21083277.2394  110793359.079 8  86332502.74146
      -984.720        -767.320
  23772229.887    23772229.4444   23772230.4054  124923902.224 7  97343312.67943
     -3983.960       -3104.392
  22604804.553    22604803.9944   22604804.3574  118789041.650 7  92562907.30945
     -1771.879       -1380.700
  23079132.755    23079132.7244   23079133.1904  121281666.383 7  94505207.23844
      2469.058        1923.945
  22976438.515    22976437.8594   22976439.3174  120742000.145 7  94084689.98745
      1217.854         948.976
  24094580.934    24094581.8884   24094584.1834  126617884.757 6  98663296.05843
      3183.735        2480.822
 06  5  9 15 44 30.0000000  0 10G 3G 6G 7G 8G10G13G16G21G27G29
  24674901.383    24674900.6524   24674903.7644  129667474.070 6 101039613.72643
      3061.685        2385.712
  23073742.486    23073742.5664   23073743.9144  121253324.511 7  94483128.55844
     -3159.855       -2462.215
  22393658.450    22393658.6584   22393660.3074  117679469.879 7  91698302.21945
       612.025         476.886
  24241230.070    24241228.6854   24241231.0564  127388531.632 6  99263800.57343
      3128.029        2437.423
  21088940.746    21088940.0204   21088941.1854  110823124.123 8  86355696.26446
     -1000.239        -779.415
  23794983.827    23794983.7474   23794983.8484  125043474.062 6  97436485.51843
     -3988.343       -3107.785
  22614957.161    22614956.7294   22614956.7294  118842393.193 7  92604479.89945
     -1785.697       -1391.458
  23065053.313    23065052.6614   23065053.4164  121207676.102 7  94447552.45644
      2462.795        1919.057
  22969511.674    22969511.7104   22969513.2584  120705603.085 7  94056328.64245
      1208.031         941.320
  24076407.245    24076407.4444   24076409.4044  126522378.374 6  98588875.45743
      3182.687        2480.037
 06  5  9 15 45  0.0000000  0 10G 3G 6G 7G 8G10G13G16G21G27G29
  24657428.404    24657427.5074   24657429.3454  129575650.917 6 100968063.28543
      3059.393        2383.965
  23091801.197    23091801.3234   23091803.4434  121348223.429 7  94557075.74644
     -3167.142       -2467.909
  22390199.547    22390198.9764   22390201.1634  117661289.841 7  91684135.90945
       599.663         467.271
  24223378.109    24223377.1894   24223380.1624  127294722.691 7  99190702.72743
      3125.597        2435.544
  21094694.366    21094693.3554   21094694.5254  110853357.318 8  86379254.56946
     -1015.603        -791.375
  23817761.821    23817761.6154   23817761.9114  125163173.912 7  97529758.09343
     -3992.339       -3110.938
  22625188.833    22625188.1274   22625188.3194  118896159.038 7  92646375.33744
     -1799.033       -1401.834
  23051009.980    23051009.4814   23051009.5224  121133876.687 7  94390046.43544
      2456.786        1914.358
  22962642.657    22962642.4844   22962643.9424  120669502.918 7  94028198.64145
      1198.391         933.816
  24058239.037    24058240.3024   24058242.1494  126426908.077 6  98514483.00944
      3181.440        2479.031
 06  5  9 15 45 30.0000000  0 10G 3G 6G 7G 8G10G13G16G21G27G29
  24639968.334    24639967.1464   24639968.9374  129483897.457 6 100896567.14443
      3056.845        2381.950
  23109900.287    23109900.0734   23109901.7534  121443335.638 7  94631189.08944
     -3174.234       -2473.448
  22386809.982    22386809.5464   22386811.0204  117643477.108 7  91670255.86545
       587.341         457.652
  24205540.387    24205541.1044   24205544.2464  127200994.044 6  99117667.44343
      3122.564        2433.161
  21100534.727    21100534.0144   21100535.3654  110884050.968 8  86403171.65346
     -1031.167        -803.504
  23840562.872    23840561.5644   23840563.1744  125282992.573 6  97623123.25043
     -3996.247       -3113.934
  22635496.957    22635496.5104   22635496.5664  118950331.169 7  92688587.36544
     -1812.903       -1412.654
  23037001.409    23037001.1104   23037001.3674  121060263.703 7  94332685.69144
      2450.294        1909.303
  22955828.435    22955828.1314   22955829.6714  120633693.990 7  94000295.56945
      1188.447         926.063
  24040078.669    24040078.7664   24040081.1524  126331469.501 7  98440115.33244
      3180.478        2478.278
 06  5  9 15 46  0.0000000  0 10G 3G 6G 7G 8G10G13G16G21G27G29
  24622523.121    24622522.1904   24622524.2664  129392224.893 6 100825134.03243
      3054.413        2380.042
  23128041.315    23128040.9114   23128043.0514  121538667.017 6  94705473.19943
     -3181.412       -2479.008
  22383492.008    22383491.7154   22383493.0714  117626040.882 7  91656669.21945
       574.777         447.871
  24187723.186    24187722.9194   24187724.8844  127107357.077 7  99044703.59943
      3119.661        2430.921
  21106464.392    21106463.8974   21106465.1594  110915212.620 8  86427453.43546
     -1046.470        -815.434
  23863386.769    23863386.8714   23863386.9734  125402934.781 6  97716584.69043
     -4000.174       -3117.036
  22645884.178    22645884.0204   22645883.4834  119004916.629 7  92731121.45744
     -1826.447       -1423.225
  23023030.823    23023030.6034   23023030.1504  120986847.984 7  94275478.63544
      2443.759        1904.217
  22949071.254    22949071.2604   22949072.6584  120598186.693 7  93972627.54645
      1178.489         918.283
  24021926.535    24021926.2054   24021927.7594  126236073.433 7  98365780.75344
      3178.917        2477.049
 06  5  9 15 46 30.0000000  0 10G 3G 6G 7G 8G10G13G16G21G27G29
  24605093.502    24605093.1174   24605094.9684  129300631.743 6 100753762.79143
      3051.592        2377.894
  23146222.883    23146222.5184   23146224.3804  121634211.449 6  94779923.38043
     -3188.667       -2484.669
  22380244.908    22380244.3194   22380245.9084  117608977.977 7  91643373.46545
       562.362         438.185
  24169923.370    24169921.4354   24169924.2144  127013810.435 7  98971810.16344
      3116.413        2428.356
  21112483.305    21112482.2834   21112483.2554  110946837.412 8  86452096.10146
     -1061.980        -827.511
  23886233.113    23886233.3714   23886233.3924  125522993.877 7  97810137.22643
     -4004.180       -3120.161
  22656349.290    22656348.8204   22656349.2134  119059909.719 7  92773973.17944
     -1840.136       -1433.864
  23009097.881    23009097.2254   23009097.0904  120913627.595 7  94218423.78444
      2437.199        1899.113
  22942371.609    22942371.3894   22942372.6554  120562978.426 7  93945192.52845
      1168.405         910.455
  24003781.286    24003780.7474   24003782.2764  126140718.051 7  98291477.81844
      3177.732        2476.152
 06  5  9 15 47  0.0000000  0 10G 3G 6G 7G 8G10G13G16G21G27G29
  24587678.894    24587678.9674   24587681.3504  129209120.714 7 100682455.56543
      3048.830        2375.689
  23164444.087    23164444.0564   23164445.9324  121729966.286 6  94854537.51643
     -3195.668       -2490.160
  22377068.947    22377068.2874   22377070.1194  117592289.751 7  91630369.65545
       549.788         428.410
  24152138.881    24152137.5944   24152140.6044  126920357.264 7  98898989.60644
      3113.118        2425.789
  21118589.231    21118587.9994   21118589.3864  110978924.847 8  86477099.26846
     -1077.523        -839.641
  23909102.187    23909101.9724   23909101.4934  125643167.242 7  97903778.82743
     -4007.842       -3123.043
  22666891.412    22666890.7594   22666890.7654  119115308.839 7  92817141.31444
     -1853.466       -1444.280
  22995202.658    22995201.5704   22995201.1244  120840604.840 7  94161522.95544
      2430.530        1893.914
  22935729.211    22935728.9804   22935730.2844  120528070.494 7  93917991.54345
      1158.413         902.651
  23985643.944    23985643.3404   23985644.5484  126045406.202 7  98217208.87744
      3176.086        2474.883
 06  5  9 15 47 30.0000000  0 11G 3G 6G 7G 8G10G13G16G21G26G27G29
  24570282.502    24570282.7104   24570283.9134  129117700.876 7 100611219.40244
      3045.727        2373.293
  23182707.397    23182706.3734   23182708.5354  121825934.965 6  94929318.17743
     -3202.442       -2495.392
  22373966.160    22373965.6004   22373967.6894  117575983.221 7  91617663.25945
       537.165         418.567
  24134372.905    24134373.0114   24134375.7604  126827006.160 7  98826248.58443
      3110.065        2423.402
  21124783.774    21124782.9554   21124784.6774  111011480.328 8  86502467.15446
     -1093.074        -851.738
  23931992.412    23931992.7084   23931992.5824  125763457.955 7  97997511.84343
     -4011.705       -3125.977
  22677512.054    22677511.5514   22677510.9384  119171118.407 7  92860629.24444
     -1867.121       -1454.891
  22981346.027    22981344.9364   22981344.8614  120767788.153 7  94104782.70244
      2423.798        1888.650
  24923901.962    24923901.8874   24923904.2134  130975984.022 6 102059222.81443
      3885.788        3027.891
  22929144.613    22929144.2104   22929145.8674  120493470.231 7  93891030.31045
      1148.041         894.583
  23967516.709    23967516.0784   23967517.3474  125950146.247 6  98142980.37143
      3174.449        2473.606
 06  5  9 15 48  0.0000000  0 11G 3G 6G 7G 8G10G13G16G21G26G27G29
  24552914.394    24552914.1684   24552916.2714  129026430.762 6 100540099.89544
      3036.436        2366.071
  23201019.622    23201019.4574   23201021.7064  121922171.659 6  95004307.80643
     -3215.772       -2505.806
  22370946.824    22370946.1974   22370947.7414  117560115.092 7  91605298.48645
       518.147         403.754
  24116641.255    24116639.5934   24116642.8234  126733816.103 7  98753633.02343
      3100.358        2415.861
  21131079.046    21131078.0734   21131079.3904  111044558.796 8  86528242.55646
     -1114.837        -868.692
  23954914.994    23954914.8844   23954915.6174  125883919.171 6  98091377.68643
     -4021.798       -3133.873
  22688220.264    22688220.0784   22688219.8754  119227393.015 7  92904479.58444
     -1887.154       -1470.502
  22967539.514    22967538.7954   22967538.8104  120695236.110 7  94048248.61944
      2410.461        1878.305
  24901723.980    24901723.4834   24901725.8934  130859437.802 6 101968407.57543
      3881.262        3024.384
  22922629.672    22922629.6044   22922631.1454  120459235.176 7  93864353.64645
      1131.496         881.688
  23949409.725    23949409.6214   23949411.7604  125854996.556 6  98068837.71443
      3166.300        2467.259
 06  5  9 15 48 30.0000000  0 11G 3G 6G 7G 8G10G13G16G21G26G27G29
  24535589.003    24535588.4384   24535590.5354  128935383.359 7 100469153.94244
      3032.871        2363.278
  23219397.422    23219397.0164   23219398.9274  122018743.605 6  95079558.59043
     -3223.079       -2511.493
  22368023.593    22368023.6814   22368025.3664  117544756.685 7  91593330.90045
       505.129         393.592
  24098952.123    24098951.1234   24098953.7254  126640859.872 7  98681199.73444
      3096.306        2412.688
  21137485.891    21137485.2064   21137486.2904  111078229.232 8  86554479.21946
     -1130.499        -880.905
  23977883.624    23977883.2814   23977884.0884  126004618.206 6  98185428.82943
     -4025.508       -3136.778
  22699029.800    22699029.7884   22699030.2844  119284201.013 7  92948745.53244
     -1900.888       -1481.184
  22953797.643    22953796.7994   22953797.0544  120623021.218 7  93991977.29044
      2403.115        1872.570
  24879559.455    24879560.1084   24879562.0724  130742967.559 6 101877651.45244
      3882.576        3025.404
  22916198.188    22916198.1684   22916199.5934  120425436.949 7  93838017.36945
      1120.986         873.502
  23931337.938    23931337.8124   23931339.5114  125760030.002 6  97994837.88543
      3164.067        2465.485
 06  5  9 15 49  0.0000000  0 11G 3G 6G 7G 8G10G13G16G21G26G27G29
  24518283.659    24518283.3224   24518286.1094  128844445.688 7 100398293.49244
      3029.116        2360.351
  23237815.670    23237815.6604   23237817.6194  122115533.024 6  95154978.90543
     -3230.128       -2516.985
  22365176.783    22365176.0054   22365177.7854  117529793.226 7  91581671.06745
       491.969         383.363
  24081284.838    24081284.7884   24081286.7814  126548024.882 6  98608860.90943
      3092.262        2409.555
  21143983.494    21143982.7394   21143984.1494  111112375.537 8  86581086.70246
     -1146.381        -893.293
  24000874.382    24000874.9594   24000875.4844  126125436.669 6  98279573.05143
     -4029.470       -3139.841
  22709919.186    22709919.3884   22709919.5664  119341425.579 7  92993336.10544
     -1914.774       -1492.027
  22940098.289    22940097.5114   22940097.6444  120551029.808 7  93935880.08844
      2395.654        1866.721
  24857389.448    24857389.3774   24857391.8464  130626460.844 6 101786867.02544
      3884.027        3026.506
  22909828.345    22909827.9594   22909829.1104  120391961.327 7  93811932.49145
      1110.202         865.087
  23913279.181    23913279.4934   23913280.6504  125665133.214 6  97920892.44043
      3161.824        2463.769
 06  5  9 15 49 30.0000000  0 11G 3G 6G 7G 8G10G13G16G21G26G27G29
  24501001.609    24501001.3634   24501003.5274  128753628.371 7 100327526.81744
      3024.938        2357.102
  23256276.210    23256275.8854   23256278.1084  122212545.124 6  95230572.72143
     -3237.689       -2522.872
  22362405.827    22362405.3754   22362407.0514  117515233.386 7  91570325.75445
       478.311         372.730
  24063644.185    24063643.7674   24063646.2934  126455321.561 6  98536624.63243
      3087.667        2405.961
  21150573.735    21150572.7054   21150574.1464  111147004.581 8  86608070.34746
     -1162.627        -905.934
  24023889.171    24023889.8164   24023889.2504  126246379.437 7  98373814.16243
     -4033.661       -3143.081
  22720889.910    22720889.4064   22720889.3594  119399072.293 7  93038255.60744
     -1928.871       -1503.018
  22926442.709    22926442.2594   22926442.6604  120479272.049 7  93879964.95844
      2387.768        1860.608
  24835213.265    24835214.2194   24835216.2974  130509927.533 6 101696061.80644
      3884.667        3027.034
  22903521.160    22903520.8534   22903521.8344  120358817.286 7  93786105.98645
      1098.954         856.335
  23895236.580    23895236.7124   23895237.9104  125570316.442 7  97847009.27544
      3158.787        2461.396
 06  5  9 15 50  0.0000000  0 11G 3G 6G 7G 8G10G13G16G21G26G27G29
  24483742.663    24483742.4764   24483744.4444  128662932.419 7 100256854.66844
      3021.206        2354.177
  23274779.530    23274778.8744   23274779.9254  122309775.935 7  95306336.99143
     -3244.728       -2528.367
  22359711.507    22359711.3524   22359712.9314  117501076.417 7  91559294.34745
       465.146         362.463
  24046029.722    24046028.3194   24046030.8414  126362751.140 7  98464491.96744
      3083.374        2402.616
  21157254.648    21157253.8354   21157255.2104  111182113.908 8  86635428.23746
     -1178.305        -918.147
  24046926.929    24046926.5364   24046926.9964  126367442.140 7  98468148.72443
     -4037.392       -3146.001
  22731939.516    22731938.7954   22731939.2204  119457138.265 7  93083501.79744
     -1942.576       -1513.706
  22912832.600    22912832.0764   22912832.1584  120407749.213 7  93824232.89845
      2380.208        1854.722
  24813032.927    24813033.4534   24813036.0904  130393369.360 7 101605237.24244
      3885.612        3027.754
  22897276.663    22897276.5614   22897277.7594  120326004.259 8  93760537.41645
      1088.211         847.970
  23877208.983    23877208.9124   23877210.6254  125475580.384 6  97773188.94744
      3156.509        2459.596
 06  5  9 15 50 30.0000000  0 11G 3G 6G 7G 8G10G13G16G21G26G27G29
  24466505.649    24466505.2434   24466507.5874  128572350.779 7 100186271.56944
      3017.083        2350.960
  23293320.324    23293320.5344   23293322.4334  122407212.999 7  95382261.98144
     -3251.507       -2533.610
  22357092.947    22357092.1904   22357094.2304  117487313.470 7  91548569.98745
       451.909         352.145
  24028438.416    24028436.7954   24028438.2744  126270306.793 7  98392457.55743
      3079.017        2399.256
  21164024.891    21164024.1864   21164025.2864  111217692.824 8  86663152.04346
     -1194.045        -930.409
  24069984.543    24069984.1144   24069984.7794  126488612.135 7  98562566.89743
     -4041.188       -3148.971
  22743066.575    22743066.0014   22743065.9444  119515611.909 7  93129065.66144
     -1956.165       -1524.278
  22899265.387    22899264.8794   22899265.1944  120336453.299 7  93768677.67245
      2372.472        1848.680
  24790846.932    24790846.9224   24790849.9964  130276778.728 6 101514387.19544
      3886.627        3028.544
  22891093.911    22891093.6514   22891095.1994  120293514.087 7  93735220.41045
      1077.320         839.471
  23859195.050    23859194.8124   23859196.9214  125380918.138 7  97699426.23944
      3153.775        2457.528
 06  5  9 15 51  0.0000000  0 11G 3G 6G 7G 8G10G13G16G21G26G27G29
  24449292.997    24449292.4374   24449294.4094  128481896.903 7 100115788.03844
      3012.601        2347.465
  23311902.570    23311902.6454   23311904.7364  122504864.780 7  95458354.23744
     -3258.956       -2539.448
  22354550.956    22354550.5694   22354552.3894  117473955.958 7  91538161.51745
       438.126         341.400
  24010870.874    24010871.0684   24010873.8984  126178001.661 6  98320531.57243
      3074.397        2395.627
  21170887.011    21170885.9584   21170887.2694  111253750.770 8  86691249.11446
     -1210.244        -943.048
  24093063.729    24093063.8044   24093064.8794  126609897.109 6  98657074.61643
     -4045.076       -3152.006
  22754272.446    22754272.4094   22754272.6784  119574502.123 7  93174954.12244
     -1970.343       -1535.338
  22885744.045    22885743.1394   22885743.5634  120265397.031 7  93713309.19545
      2364.314        1842.327
  24768657.770    24768657.2014   24768660.3784  130160169.678 6 101423522.86144
      3886.938        3028.764
  22884975.556    22884975.2934   22884976.2034  120261359.122 7  93710164.63145
      1065.913         830.588
  23841197.405    23841197.6534   23841199.4814  125286342.511 6  97625731.00344
      3150.687        2455.071
 06  5  9 15 51 30.0000000  0 11G 3G 6G 7G 8G10G13G16G21G26G27G29
  24432103.890    24432104.1004   24432106.3314  128391569.947 7 100045403.40744
      3008.844        2344.559
  23330525.094    23330525.2614   23330526.8914  122602724.783 7  95534608.74644
     -3265.415       -2544.469
  22352085.958    22352085.4594   22352087.3404  117461001.182 7  91528066.86745
       425.137         331.266
  23993333.310    23993332.4784   23993335.3734  126085835.310 6  98248713.77243
      3070.134        2392.323
  21177838.466    21177837.7224   21177839.5064  111290283.379 8  86719716.05546
     -1225.533        -954.964
  24116164.610    24116163.9404   24116165.1814  126731290.643 6  98751666.89943
     -4047.991       -3154.267
  22765557.882    22765557.3304   22765557.1294  119633803.196 7  93221162.71844
     -1983.495       -1545.590
  22872267.399    22872266.9754   22872267.8054  120194579.733 7  93658126.90545
      2356.622        1836.324
  24746463.982    24746464.4074   24746466.6324  130043540.594 6 101332642.49144
      3887.911        3029.541
  22878919.352    22878919.1484   22878920.6244  120229536.761 7  93685368.00145
      1055.329         822.343
  23823216.057    23823216.2814   23823218.7244  125191852.432 6  97552102.45343
      3148.306        2453.263
 06  5  9 15 52  0.0000000  0 11G 3G 6G 7G 8G10G13G16G21G26G27G29
  24414941.586    24414941.7124   24414943.6174  128301380.336 7  99975125.78944
      3003.523        2340.406
  23349187.706    23349188.0114   23349190.0594  122700798.741 7  95611029.95044
     -3272.999       -2550.377
  22349699.003    22349698.3064   22349700.3214  117448457.924 7  91518292.89045
       410.814         320.105
  23975822.809    23975821.8044   23975824.3654  125993818.499 7  98177012.48843
      3064.201        2387.711
  21184882.098    21184881.3114   21184882.8954  111327297.664 8  86748558.33746
     -1242.284        -968.004
  24139286.577    24139286.3444   24139287.3594  126852798.015 6  98846347.92743
     -4052.288       -3157.595
  22776921.677    22776921.1854   22776921.2874  119693521.871 7  93267696.71744
     -1998.022       -1556.873
  22858838.898    22858838.4934   22858838.3884  120124011.027 7  93603138.30945
      2347.706        1829.399
  24724269.174    24724268.3474   24724271.4574  129926905.402 6 101241758.78544
      3887.625        3029.321
  22872929.010    22872928.8244   22872930.5704  120198056.198 7  93660837.70745
      1043.278         812.950
  23805253.399    23805253.6034   23805256.2044  125097458.214 6  97478548.61543
      3144.472        2450.231
 06  5  9 15 52 30.0000000  0 11G 3G 6G 7G 8G10G13G16G21G26G27G29
  24397806.198    24397805.9014   24397807.7494  128211332.805 7  99904958.95644
      2999.294        2337.114
  23367891.579    23367891.6004   23367893.6754  122799085.721 7  95687617.16844
     -3279.547       -2555.493
  22347390.492    22347390.1064   22347391.8614  117436328.322 7  91508841.23345
       397.587         309.809
  23958342.753    23958341.4574   23958343.2064  125901955.449 6  98105430.99943
      3059.791        2384.222
  21192017.648    21192016.7854   21192018.0824  111364794.057 8  86777776.29146
     -1257.769        -980.081
  24162429.854    24162430.3914   24162430.8194  126974417.755 6  98941116.47043
     -4055.604       -3160.229
  22788365.198    22788364.7374   22788364.9924  119753658.087 7  93314556.08344
     -2011.426       -1567.368
  22845458.604    22845457.7454   22845458.0064  120053695.121 7  93548346.71244
      2339.878        1823.265
  24702072.402    24702073.2154   24702074.9784  129810265.174 6 101150870.45644
      3888.179        3029.772
  22867003.878    22867003.8714   22867005.0564  120166920.267 7  93636575.96945
      1032.225         804.319
  23787309.388    23787309.9804   23787312.5654  125003163.846 6  97405072.54543
      3141.417        2447.845
 06  5  9 15 53  0.0000000  0 11G 3G 6G 7G 8G10G13G16G21G26G27G29
  24380699.747    24380699.3164   24380701.6784  128121438.017 7  99834911.14144
      2993.297        2332.457
  23386636.445    23386636.5944   23386638.6504  122897591.396 7  95764374.76844
     -3287.427       -2561.628
  22345163.532    22345162.9354   22345164.4934  117424621.568 7  91499719.07745
       382.645         298.164
  23940891.201    23940891.3024   23940894.1674  125810257.449 6  98033978.11844
      3053.254        2379.178
  21199246.334    21199245.4714   21199246.5834  111402779.759 8  86807375.52146
     -1274.937        -993.456
  24185596.102    24185596.2834   24185596.3984  127096155.364 7  99035976.86743
     -4060.390       -3163.937
  22799889.757    22799889.3324   22799889.4514  119814218.017 7  93361745.62744
     -2026.068       -1578.760
  22832127.100    22832127.0364   22832127.7884  119983642.226 7  93493760.04544
      2330.198        1815.749
  24679878.253    24679878.0354   24679880.3324  129693631.787 6 101059987.51743
      3887.138        3028.952
  22861146.562    22861146.3314   22861147.4944  120136138.352 7  93612590.08845
      1019.581         794.476
  23769387.136    23769387.2594   23769389.5764  124908979.963 6  97331682.58643
      3137.214        2444.559
 06  5  9 15 53 30.0000000  0 11G 3G 6G 7G 8G10G13G16G21G26G27G29
  24363621.998    24363621.7374   24363624.0574  128031694.761 7  99764981.39744
      2988.546        2328.754
  23405422.238    23405422.0984   23405424.2774  122996309.477 7  95841297.83544
     -3294.387       -2567.055
  22343015.252    22343014.9564   22343016.5674  117413334.608 7  91490924.00545
       368.913         287.441
  23923473.570    23923472.9054   23923476.0434  125718723.363 7  97962652.94544
      3048.163        2375.177
  21206566.525    21206565.8454   21206567.4124  111441249.869 8  86837352.20746
     -1290.689       -1005.737
  24208783.739    24208783.3084   24208783.8454  127218004.638 7  99130924.30943
     -4063.874       -3166.653
  22811493.458    22811493.1454   22811493.0794  119875195.995 7  93409260.87444
     -2039.884       -1589.504
  22818846.516    22818845.8964   22818846.6754  119913851.670 7  93439377.80244
      2321.627        1809.049
  24657684.490    24657684.2734   24657686.3514  129577003.996 6 100969108.67943
      3887.142        3028.946
  22855355.978    22855355.6664   22855356.5204  120105708.070 7  93588878.20045
      1008.109         785.539
  23751486.294    23751485.5124   23751487.8924  124814905.274 6  97258377.66343
      3133.783        2441.911
 06  5  9 15 54  0.0000000  0 11G 3G 6G 7G 8G10G13G16G21G26G27G29
  24346575.744    24346575.4284   24346577.5854  127942115.535 7  99695179.42844
      2983.056        2324.446
  23424249.202    23424248.7004   23424251.4864  123095247.384 7  95918392.21844
     -3301.701       -2572.764
  22340949.277    22340948.6944   22340950.8634  117402478.109 7  91482464.39845
       354.524         276.226
  23906089.425    23906088.3424   23906090.9794  125627365.575 7  97891465.17944
      3042.123        2370.494
  21213981.296    21213980.2254   21213982.0984  111480213.190 8  86867713.22046
     -1307.110       -1018.543
  24231993.198    24231993.5854   24231993.1814  127339971.851 6  99225963.65343
     -4067.778       -3169.680
  22823178.519    22823177.8974   22823178.0914  119936600.388 7  93457108.40944
     -2054.013       -1600.542
  22805618.169    22805617.4174   22805618.1214  119844334.764 7  93385208.79044
      2312.567        1801.982
  24635494.665    24635495.1474   24635495.7444  129460395.016 6 100878244.45543
      3886.480        3028.400
  22849634.120    22849633.7894   22849634.9304  120075640.487 7  93565448.94145
       996.030         776.115
  23733607.145    23733606.2534   23733609.3214  124720952.122 6  97185167.43243
      3129.501        2438.565
 06  5  9 15 54 30.0000000  0 11G 3G 6G 7G 8G10G13G16G21G26G27G29
  24329560.572    24329559.9574   24329561.7704  127852697.811 7  99625503.29644
      2977.616        2320.236
  23443117.028    23443116.3604   23443119.1194  123194397.051 7  95995651.55944
     -3308.682       -2578.186
  22338964.864    22338964.0964   22338965.4934  117392047.259 7  91474336.45645
       340.497         265.334
  23888737.140    23888737.2424   23888738.8374  125536181.964 7  97820413.10144
      3036.417        2366.039
  21221488.188    21221487.5264   21221488.9234  111519663.108 8  86898453.39646
     -1323.088       -1030.970
  24255223.304    24255224.1834   24255223.4264  127462048.997 6  99321088.65143
     -4071.221       -3172.358
  22834942.751    22834942.4924   22834942.6934  119998423.718 7  93505282.42044
     -2067.708       -1611.193
  22792440.977    22792440.6074   22792440.9904  119775088.597 7  93331250.73444
      2303.708        1795.093
  24613307.007    24613307.9624   24613309.8294  129343802.432 6 100787393.17843
      3886.001        3028.051
  22843980.683    22843980.3484   22843981.5654  120045931.228 7  93542298.89345
       984.312         766.998
  23715750.192    23715750.5024   23715753.1314  124627117.542 6  97112049.66043
      3125.697        2435.604
 06  5  9 15 55  0.0000000  0 11G 3G 6G 7G 8G10G13G16G21G26G27G29
  24312577.343    24312577.6204   24312579.7844  127763455.183 7  99555963.64444
      2971.597        2315.531
  23462026.699    23462026.4894   23462028.8994  123293767.177 7  96073082.80644
     -3316.161       -2584.037
  22337062.955    22337062.5364   22337063.7844  117382053.368 8  91466549.01445
       325.488         253.605
  23871421.368    23871420.6524   23871422.8734  125445185.974 7  97749507.19544
      3029.847        2360.898
  21229089.869    21229089.0924   21229090.4074  111559609.286 8  86929580.26946
     -1340.023       -1044.191
  24278476.443    24278477.0754   24278476.8524  127584244.169 6  99416305.60842
     -4075.164       -3175.460
  22846788.394    22846788.3644   22846788.4924  120060674.488 7  93553789.48744
     -2082.404       -1622.660
  22779317.728    22779317.7014   22779317.6494  119706126.268 7  93277513.87244
      2293.740        1787.315
  24591124.622    24591126.1074   24591129.2064  129227239.564 6 100696565.03043
      3884.666        3027.011
  22838397.981    22838397.4074   22838398.3774  120016592.568 7  93519437.62045
       971.529         757.024
  23697919.043    23697919.3514   23697921.4804  124533414.798 6  97039034.63944
      3120.891        2431.854
 06  5  9 15 55 30.0000000  0 11G 3G 6G 7G 8G10G13G16G21G26G27G29
  24295631.501    24295631.0374   24295632.4494  127674397.664 7  99486568.17644
      2965.149        2310.483
  23480979.159    23480979.0084   23480981.3604  123393362.212 7  96150689.24144
     -3323.842       -2589.997
  22335246.090    22335245.2504   22335247.0234  117372505.034 8  91459108.74645
       310.612         242.062
  23854143.771    23854142.9914   23854144.4964  125354387.592 6  97678755.28644
      3023.086        2355.648
  21236786.901    21236786.1284   21236787.7694  111600058.187 8  86961098.88546
     -1356.958       -1057.358
  24301752.538    24301752.9944   24301753.7944  127706562.183 6  99511618.35542
     -4079.129       -3178.554
  22858717.454    22858717.0814   22858717.0064  120123359.051 7  93602634.59344
     -2096.982       -1634.006
  22766251.024    22766250.3034   22766250.3074  119637457.473 7  93224005.65444
      2283.874        1779.643
  24568952.505    24568952.8704   24568953.3754  129110716.977 6 100605768.26343
      3883.078        3025.787
  22832886.994    22832886.5424   22832888.0074  119987633.088 7  93496871.80745
       958.745         747.080
  23680115.802    23680115.5604   23680117.3404  124439853.738 6  96966129.99544
      3116.070        2428.118
 06  5  9 15 56  0.0000000  0 11G 3G 6G 7G 8G10G13G16G21G26G27G29
  24278720.597    24278720.5634   24278722.1384  127585534.262 7  99417324.03044
      2958.139        2305.045
  23499973.918    23499974.1804   23499977.4784  123493186.114 6  96228474.04544
     -3331.725       -2596.156
  22333514.720    22333514.1474   22333516.2494  117363408.754 7  91452020.73545
       294.964         229.828
  23836903.616    23836903.4934   23836905.1904  125263796.059 7  97608164.57344
      3015.636        2349.841
  21244580.701    21244579.9934   21244581.4584  111641014.824 8  86993013.14446
     -1374.230       -1070.813
  24325053.355    24325053.5304   24325053.3964  127829005.965 6  99607029.06942
     -4084.117       -3182.464
  22870728.941    22870728.6304   22870728.7774  120186481.293 7  93651820.68344
     -2111.968       -1645.675
  22753240.711    22753240.5544   22753239.9624  119569090.511 7  93170732.76544
      2273.310        1771.415
  24546787.431    24546787.6544   24546791.0614  128994243.833 6 100515010.09943
      3880.963        3024.139
  22827449.777    22827449.4414   22827450.5534  119959059.892 7  93474606.98245
       945.600         736.831
  23662339.773    23662339.9494   23662342.2774  124346442.883 6  96893342.37644
      3110.586        2423.835
 06  5  9 15 56 30.0000000  0 11G 3G 6G 7G 8G10G13G16G21G26G27G29
  24261849.125    24261848.6534   24261850.7584  127496873.824 7  99348237.97844
      2951.783        2300.081
  23519014.781    23519014.7604   23519016.4374  123593242.329 6  96306439.86343
     -3339.264       -2602.021
  22331871.520    22331871.1604   22331872.3914  117354771.427 7  91445290.35545
       280.026         218.199
  23819705.599    23819705.6194   23819707.0954  125173420.260 6  97537741.90944
      3008.821        2344.544
  21252472.133    21252471.2554   21252472.7514  111682484.094 8  87025326.85646
     -1390.891       -1083.808
  24348378.223    24348379.1784   24348379.3244  127951579.107 6  99702540.60043
     -4088.076       -3185.517
  22882825.061    22882824.3544   22882825.0504  120250045.929 7  93701351.57144
     -2126.309       -1656.851
  22740289.787    22740289.3894   22740289.7794  119501033.800 7  93117701.55544
      2263.562        1763.841
  24524636.378    24524635.7914   24524637.3544  128877828.946 6 100424297.23843
      3879.424        3022.916
  22822087.509    22822087.0454   22822088.3264  119930880.976 7  93452649.38545
       932.668         726.742
  23644594.555    23644594.8274   23644596.7324  124253190.943 6  96820678.61144
      3105.752        2420.062
 06  5  9 15 57  0.0000000  0 11G 3G 6G 7G 8G10G13G16G21G26G27G29
  24245017.482    24245016.8704   24245019.2184  127408424.420 6  99279316.37444
      2944.676        2294.560
  23538099.805    23538099.1524   23538101.7014  123693533.656 6  96384588.94243
     -3347.207       -2608.195
  22330316.270    22330315.6444   22330317.1374  117346599.027 8  91438922.27445
       264.524         206.102
  23802550.811    23802550.1484   23802551.3664  125083268.600 7  97467493.94244
      3001.175        2338.583
  21260461.846    21260461.1704   21260462.4824  111724470.129 8  87058043.24746
     -1408.302       -1097.389
  24371728.071    24371728.3574   24371729.5084  128074284.078 7  99798154.84143
     -4092.641       -3189.088
  22895005.588    22895004.9864   22895005.4334  120314055.858 7  93751229.40144
     -2141.261       -1668.526
  22727400.034    22727399.3914   22727399.3564  119433294.929 8  93064918.04144
      2252.461        1755.153
  24502495.065    24502495.2924   24502497.4564  128761480.528 6 100333636.14743
      3877.027        3021.037
  22816800.994    22816800.5954   22816802.0904  119903102.210 7  93431003.59745
       919.122         716.191
  23626880.907    23626880.5954   23626883.3364  124160105.816 6  96748144.83544
      3099.901        2415.506
 06  5  9 15 57 30.0000000  0 11G 3G 6G 7G 8G10G13G16G21G26G27G29
  24228227.377    24228227.4104   24228228.9824  127320192.389 6  99210564.16444
      2937.155        2288.669
  23557228.801    23557228.3364   23557231.9504  123794061.395 6  96462922.16943
     -3354.992       -2614.283
  22328850.155    22328849.6124   22328851.1904  117338895.842 8  91432919.80145
       248.609         193.715
  23785439.860    23785438.9534   23785440.2264  124993347.347 7  97397425.49444
      2993.231        2332.382
  21268550.906    21268549.5904   21268551.1044  111766975.636 8  87091164.41646
     -1425.822       -1111.028
  24395103.278    24395103.3944   24395104.6004  128197121.948 7  99893872.61543
     -4097.144       -3192.573
  22907271.780    22907270.7384   22907271.3754  120378512.923 7  93801455.66344
     -2156.200       -1680.143
  22714571.220    22714570.7184   22714570.7584  119365880.057 8  93012386.96745
      2241.449        1746.585
  24480368.962    24480368.4944   24480370.6954  128645205.580 6 100243032.47343
      3874.333        3018.969
  22811592.113    22811591.8844   22811593.1684  119875728.608 7  93409673.52245
       905.428         705.518
  23609200.086    23609200.5654   23609202.2314  124067193.296 6  96675745.50844
      3093.889        2410.827
 06  5  9 15 58  0.0000000  0 12G 3G 6G 7G 8G10G13G15G16G21G26G27G29
  24211481.255    24211480.8584   24211482.3174  127232188.407 6  99141989.68944
      2929.345        2282.622
  23576404.254    23576404.8854   23576407.6524  123894830.950 6  96541443.77743
     -3363.462       -2620.880
  22327475.356    22327474.9984   22327476.2774  117331670.454 8  91427289.61945
       232.523         181.185
  23768373.348    23768372.8674   23768374.6024  124903667.312 6  97327545.00244
      2984.865        2325.878
  21276738.830    21276738.1474   21276739.6094  111810007.426 8  87124695.67846
     -1443.432       -1124.745
  24418504.801    24418504.9524   24418505.6644  128320097.709 7  99989697.83543
     -4101.729       -3196.117
  24216148.504                                   127256760.375 4
      3404.710
  22919623.865    22919623.4114   22919623.2854  120443423.467 7  93852035.28544
     -2171.460       -1692.026
  22701805.795    22701805.3854   22701805.9474  119298799.854 7  92960116.66745
      2230.053        1737.713
  24458257.419    24458258.0424   24458260.3224  128529014.372 6 100152493.64743
      3871.223        3016.555
  22806462.123    22806461.8794   22806463.0004  119848769.236 8  93388666.23645
       891.484         694.669
  23591554.826    23591554.1134   23591556.4744  123974464.256 6  96603489.16344
      3087.524        2405.886
 06  5  9 15 58 30.0000000  0 12G 3G 6G 7G 8G10G13G15G16G21G26G27G29
  24194779.660    24194778.5564   24194780.7214  127144418.100 6  99073597.31443
      2921.610        2276.585
  23595627.182    23595626.8034   23595629.4514  123995842.714 6  96620154.18143
     -3370.961       -2626.700
  22326192.008    22326191.4134   22326192.8954  117324926.413 7  91422034.47545
       216.644         168.836
  23751354.419    23751354.4394   23751356.2874  124814233.941 6  97257856.73444
      2976.717        2319.510
  21285028.214    21285027.5414   21285028.5834  111853566.924 8  87158638.13346
     -1460.917       -1138.360
  24441933.032    24441932.8194   24441934.0684  128443211.479 7 100085630.53943
     -4106.255       -3199.664
  24196720.418                                   127154663.162 4
      3401.109
  22932062.043    22932061.7544   22932061.8394  120508788.149 7  93902968.79744
     -2186.505       -1703.764
  22689106.056    22689105.4434   22689105.4354  119232058.670 7  92908110.57745
      2218.905        1729.033
  24436165.852    24436165.2404   24436167.4464  128412913.268 6 100062025.37543
      3868.262        3014.241
  22801411.243    22801411.0084   22801412.4734  119822228.075 7  93367984.82145
       877.607         683.856
  23573945.208    23573944.9954   23573947.2204  123881923.631 6  96531379.65344
      3081.318        2401.032
 06  5  9 15 59  0.0000000  0 12G 3G 6G 7G 8G10G13G15G16G21G26G27G29
  24178123.866    24178122.8084   24178124.7544  127056892.075 6  99005395.20543
      2913.402        2270.176
  23614895.644    23614895.7314   23614898.6654  124097101.749 6  96699057.27343
     -3379.475       -2633.368
  22325001.981    22325001.2614   22325002.7744  117318671.905 7  91417160.78345
       200.302         156.063
  23734385.126    23734384.1684   23734385.5064  124725058.380 7  97188369.32544
      2968.320        2312.950
  21293418.930    21293418.1114   21293419.5564  111897660.636 8  87192996.86146
     -1478.721       -1152.251
  24465387.787    24465388.3734   24465388.3304  128566468.293 6 100181674.74543
     -4110.774       -3203.220
  24177315.467                                   127052693.564 4
      3396.481
  22944588.095    22944587.7084   22944588.1224  120574612.720 7  93954260.64144
     -2201.774       -1715.660
  22676471.863    22676471.6774   22676471.3774  119165666.531 7  92856376.49445
      2207.269        1719.978
  24414092.192    24414090.7654   24414092.1434  128296912.712 6  99971635.34943
      3865.132        3011.788
  22796441.918    22796441.7264   22796443.1454  119796114.339 7  93347636.44145
       863.276         672.691
  23556372.776    23556373.0934   23556374.6574  123789581.962 6  96459425.18344
      3074.831        2395.952
 06  5  9 15 59 30.0000000  0 12G 3G 6G 7G 8G10G13G15G16G21G26G27G29
  24161514.096    24161514.3154   24161516.1344  126969613.597 6  98937386.08343
      2904.576        2263.314
  23634211.897    23634212.1234   23634213.8614  124198606.273 6  96778151.63043
     -3387.978       -2639.983
  22323904.888    22323904.5874   22323906.0434  117312908.071 7  91412669.43645
       183.406         142.910
  23717466.005    23717464.8064   23717466.3514  124636143.717 7  97119085.23244
      2958.972        2305.699
  21301911.217    21301910.1684   21301911.8814  111942287.667 8  87227771.16446
     -1496.984       -1166.477
  24488870.034    24488870.7114   24488870.7464  128689865.918 6 100277828.71242
     -4115.918       -3207.236
  24157934.913                                   126950854.314 4
      3391.900
  22957201.459    22957200.9594   22957201.0904  120640896.075 7  94005909.97144
     -2217.668       -1728.052
  22663904.556    22663904.1914   22663904.1964  119099626.658 7  92804916.89545
      2194.946        1710.359
  24392036.252    24392036.3564   24392038.3174  128181016.165 6  99881326.32443
      3861.086        3008.677
  22791554.115    22791553.9374   22791555.0864  119770429.167 7  93327622.03445
       848.577         661.247
  23538839.939    23538839.4104   23538840.9984  123697442.042 7  96387627.90344
      3067.314        2390.102
 06  5  9 16  0  0.0000000  0 12G 3G 6G 7G 8G10G13G15G16G21G26G27G29
  24144951.604    24144951.4304   24144953.7384  126882576.623 6  98869565.07143
      2896.605        2257.096
  23653572.645    23653572.2074   23653573.7074  124300345.005 6  96857428.46543
     -3395.511       -2645.871
  22322900.568    22322899.9514   22322901.1644  117307627.106 8  91408554.37845
       167.431         130.434
  23700593.209    23700592.9534   23700595.5954  124547484.048 7  97049999.82044
      2950.683        2299.251
  21310503.069    21310502.2654   21310503.6354  111987438.195 8  87262953.38846
     -1514.203       -1179.896
  24512376.544    24512375.7144   24512377.4654  128813393.100 6 100374083.65742
     -4120.129       -3210.515
  24138579.633                                   126849139.438 5
      3387.970
  22969899.744    22969899.4574   22969899.6054  120707627.445 7  94057908.40644
     -2232.201       -1739.363
  22651403.461    22651403.4174   22651402.8714  119033932.755 7  92753726.86445
      2183.638        1701.545
  24370000.691    24370000.5614   24370003.5564  128065218.130 6  99791094.03443
      3857.903        3006.165
  22786746.539    22786746.3264   22786747.6244  119745165.177 7  93307935.81145
       834.667         650.389
  23521342.508    23521342.5674   23521344.6274  123605497.777 6  96315983.08944
      3061.045        2385.194
 06  5  9 16  0 30.0000000  0 12G 3G 6G 7G 8G10G13G15G16G21G26G27G29
  24128438.855    24128438.7064   24128440.2034  126795801.987 5  98801948.54543
      2887.824        2250.250
  23672980.219    23672979.8144   23672981.9954  124402333.636 6  96936900.12243
     -3404.239       -2652.657
  22321990.791    22321990.2424   22321991.2814  117302847.184 8  91404829.74145
       150.370         117.169
  23683774.667    23683773.9914   23683776.0884  124459100.419 7  96981129.51044
      2940.805        2291.520
  21319197.660    21319196.8874   21319198.3484  112033129.060 8  87298556.64546
     -1532.537       -1194.186
  24535910.383    24535910.4654   24535909.7264  128937064.726 6 100470451.15042
     -4125.320       -3214.531
  24119251.814                                   126747569.523 5
      3382.989
  22982686.604    22982686.7684   22982686.5734  120774822.790 7  94110268.42744
     -2248.102       -1751.769
  22638972.541    22638971.7644   22638971.6184  118968604.436 8  92702821.66545
      2171.033        1691.722
  24347988.038    24347987.4114   24347990.5374  127949539.399 6  99700954.68643
      3853.281        3002.539
  22782023.035    22782022.4474   22782023.8934  119720341.743 7  93288592.89545
       819.536         638.585
  23503887.097    23503887.0934   23503889.1724  123513769.636 7  96244506.67444
      3053.428        2379.289
 06  5  9 16  1  0.0000000  0 12G 3G 6G 7G 8G10G13G15G16G21G26G27G29
  24111976.430    24111976.1694   24111978.0214  126709291.336 5  98734537.67343
      2880.007        2244.120
  23692434.986    23692434.7384   23692436.5234  124504568.067 6  97016563.22543
     -3411.329       -2658.160
  22321176.100    22321175.5004   22321176.9274  117298567.940 7  91401495.28045
       134.878         105.086
  23667009.563    23667008.9584   23667010.0694  124370994.439 7  96912475.53144
      2932.836        2285.313
  21327994.780    21327994.1914   21327995.4394  112079357.877 8  87334579.08646
     -1549.348       -1207.294
  24559471.418    24559471.3854   24559471.7684  129060877.143 7 100566928.36442
     -4128.701       -3217.163
  24099952.154                                   126646145.963 5
      3378.924
  22995561.331    22995561.0564   22995561.1354  120842479.088 7  94162987.60144
     -2262.324       -1762.851
  22626610.367    22626609.9934   22626609.3814  118903642.710 8  92652202.13345
      2159.802        1682.940
  24325999.592    24325997.8034   24326000.3474  127833981.872 6  99610909.83543
      3850.390        3000.282
  22777382.910    22777382.7164   22777384.0274  119695958.532 7  93269593.00445
       806.038         628.062
  23486473.337    23486473.1924   23486474.6274  123422258.752 6  96173199.53244
      3047.392        2374.570
 06  5  9 16  1 30.0000000  0 12G 3G 6G 7G 8G10G13G15G16G21G26G27G29
  23795770.245    23795769.3544   23795772.1714  125047615.672 5  97439725.49242
      2870.422        2236.691
  23412142.925    23412142.4404   23412143.6234  123031620.612 6  95868811.93543
     -3419.547       -2664.577
  22020663.169    22020662.9754   22020664.3064  115719360.752 8  90170944.19645
       117.834          91.830
  23350502.033    23350500.9854   23350503.4904  122707737.264 7  95616431.02744
      2922.878        2277.570
  21037100.100    21037099.4924   21037100.8494  110550695.991 8  86143413.97146
     -1567.483       -1221.407
  24283264.823    24283265.1124   24283265.7644  127609402.827 6  99435909.38243
     -4133.720       -3221.066
  23780885.491    23780883.5924   23780884.0954  124969439.278 5  97378766.08241
      3373.428        2628.630
  22708730.016    22708729.1834   22708729.5044  119335167.510 7  92988459.05144
     -2277.754       -1774.875
  22314524.254    22314523.6634   22314523.4164  117263619.192 7  91374261.73745
      2147.235        1673.183
  24004235.432    24004237.4964   24004238.9474  126143115.812 6  98293351.64943
      3845.887        2996.815
  22473032.916    22473032.4714   22473033.3474  118096587.101 7  92023329.57045
       790.994         616.358
  23169307.547    23169306.4924   23169308.2454  121755536.132 6  94874454.69844
      3039.529        2368.483
 06  5  9 16  2  0.0000000  0 12G 3G 6G 7G 8G10G13G15G16G21G26G27G29
  23779408.153    23779407.7514   23779408.5314  124961628.063 5  97372722.22842
      2861.336        2229.601
  23431687.049    23431686.5274   23431688.2574  123134326.846 6  95948842.78643
     -3427.883       -2671.061
  22020037.326    22020036.8504   22020038.2804  115716071.256 7  90168380.92245
       100.993          78.700
  23333839.667    23333839.5184   23333841.7814  122620182.180 7  95548206.31944
      2913.405        2270.207
  21046098.793    21046097.9154   21046099.2894  110597983.605 8  86180261.45346
     -1585.490       -1235.446
  24306875.139    24306875.2274   24306875.4244  127733475.741 6  99532589.57642
     -4138.263       -3224.642
  23761639.440    23761637.8364   23761642.1014  124868303.438 5  97299958.89941
      3368.385        2624.678
  22721776.695    22721775.8304   22721775.7774  119403726.668 7  93041881.74244
     -2293.166       -1786.882
  22302301.711    22302300.6634   22302300.2214  117199385.729 8  91324209.68045
      2134.556        1663.290
  23982292.161    23982292.2874   23982294.9294  126027796.789 6  98203492.54943
      3841.490        2993.370
  22468558.544    22468558.0414   22468559.4544  118073074.749 7  92005008.28645
       776.074         604.731
  23151974.076    23151974.1264   23151976.2684  121664454.913 6  94803482.38044
      3031.972        2362.578
 06  5  9 16  2 30.0000000  0 12G 3G 6G 7G 8G10G13G15G16G21G26G27G29
  23763098.952    23763099.2864   23763099.2974  124875919.400 5  97305936.33542
      2852.099        2222.415
  23451278.487    23451277.8324   23451279.5794  123237278.546 6  96029064.78943
     -3435.893       -2677.309
  22019508.539    22019507.6724   22019509.2694  115713290.759 8  90166214.27445
        84.051          65.507
  23317234.919    23317234.2634   23317236.0534  122532920.111 7  95480209.93944
      2903.748        2262.648
  21055200.037    21055199.4854   21055200.7524  110645811.980 8  86217530.30246
     -1603.406       -1249.405
  24330512.092    24330511.9644   24330512.6544  127857688.072 6  99629378.36443
     -4142.780       -3228.111
  23742424.629    23742422.8124   23742425.9344  124767328.609 5  97221277.19541
      3363.163        2620.704
  22734910.065    22734909.5194   22734910.1594  119472747.518 7  93095664.17144
     -2308.422       -1798.777
  22290150.274    22290149.6054   22290149.7124  117135532.602 7  91274453.94345
      2122.065        1653.567
  23960374.523    23960373.6554   23960376.7374  125912615.038 6  98113740.49043
      3837.040        2989.920
  22464169.667    22464169.4894   22464170.6934  118050012.518 8  91987037.74745
       761.157         593.111
  23134685.538    23134685.9854   23134688.0584  121573605.290 6  94732690.50544
      3024.375        2356.645
 06  5  9 16  3  0.0000000  0 12G 3G 6G 7G 8G10G13G15G16G21G26G27G29
  23746839.687    23746840.9344   23746841.5524  124790487.883 5  97239366.38942
      2843.124        2215.439
  23470914.754    23470913.8414   23470915.6434  123340468.403 6  96109472.43443
     -3443.440       -2683.189
  22019074.822    22019074.3054   22019076.1584  115711014.861 8  90164440.80545
        67.551          52.653
  23300684.823    23300683.8104   23300685.8764  122445949.089 7  95412440.35744
      2894.254        2255.245
  21064403.027    21064402.4454   21064403.8694  110694174.963 8  86255215.73246
     -1620.835       -1262.990
  24354173.639    24354173.6264   24354175.0404  127982032.559 6  99726270.10643
     -4146.923       -3231.364
  23723240.625    23723238.1854   23723240.7584  124666512.956 5  97142719.58241
      3358.042        2616.686
  22748130.595    22748130.7004   22748130.9214  119542223.394 7  93149801.14644
     -2323.302       -1810.356
  22278071.228    22278070.7574   22278071.0634  117072057.690 7  91224993.01345
      2109.666        1643.912
  23938482.699    23938481.6174   23938484.1994  125797568.594 6  98024093.83243
      3832.753        2986.580
  22459866.580    22459865.8184   22459867.2324  118027396.775 7  91969415.12245
       746.464         581.677
  23117441.938    23117441.5474   23117443.5184  121482985.340 6  94662077.63044
      3016.867        2350.814
 06  5  9 16  3 30.0000000  0 12G 3G 6G 7G 8G10G13G15G16G21G26G27G29
  23730637.483    23730637.6984   23730640.0264  124705343.367 5  97173020.07142
      2832.237        2206.935
  23490596.613    23490596.5564   23490598.4384  123443901.143 6  96190069.32143
     -3452.556       -2690.273
  22018739.626    22018738.8684   22018740.5424  115709251.460 8  90163066.72245
        49.511          38.585
  23284191.052    23284191.5324   23284193.7464  122359279.621 7  95344905.74344
      2883.166        2246.617
  21073709.643    21073708.7024   21073709.9934  110743078.579 8  86293322.43446
     -1639.875       -1277.832
  24377861.743    24377861.8804   24377863.3944  128106513.820 6  99823268.43442
     -4152.424       -3235.661
  23704088.043    23704088.0374   23704091.6194  124565866.298 5  97064293.61141
      3351.341        2611.363
  22761439.315    22761439.4214   22761439.0264  119612159.685 7  93204296.91344
     -2339.541       -1823.015
  22266066.658    22266066.0124   22266065.7084  117008970.063 7  91175833.87745
      2095.624        1632.939
  23916617.749    23916617.0864   23916618.7834  125682668.117 6  97934560.93643
      3826.851        2981.975
  22455648.850    22455648.4664   22455650.0274  118005236.104 7  91952147.09845
       730.321         569.082
  23100243.161    23100242.3804   23100244.4234  121392604.802 6  94591651.27444
      3007.710        2343.676
 06  5  9 16  4  0.0000000  0 12G 3G 6G 7G 8G10G13G15G16G21G26G27G29
  23714489.638    23714489.9524   23714492.1964  124620488.232 5  97106899.21342
      2823.360        2199.995
  23510325.499    23510324.8624   23510327.5834  123547573.683 6  96270852.96443
     -3459.880       -2696.003
  22018501.346    22018500.9184   22018502.8074  115708000.394 7  90162091.83945
        33.000          25.716
  23267757.177    23267756.5894   23267758.7494  122272913.693 7  95277607.63444
      2873.600        2239.174
  21083117.809    21083117.2764   21083118.6974  110792521.066 8  86331849.03646
     -1657.255       -1291.375
  24401575.202    24401575.3414   24401575.1114  128231128.595 6  99920370.79442
     -4156.212       -3238.613
  23684966.937    23684966.9104   23684968.1464  124465391.015 5  96986001.30441
      3346.228        2607.452
  22774834.731    22774834.8704   22774835.0474  119682554.027 7  93259149.62644
     -2354.123       -1834.384
  22254134.977    22254134.2714   22254134.8844  116946272.004 7  91126978.28945
      2083.233        1623.291
  23894782.342    23894781.4364   23894782.9694  125567916.136 7  97845143.83543
      3822.330        2978.412
  22451518.728    22451518.3984   22451519.8304  117983531.222 7  91935234.22845
       715.688         557.677
  23083088.869    23083089.5794   23083091.4694  121302465.506 7  94521412.87344
      3000.441        2338.007
 06  5  9 16  4 30.0000000  0 12G 3G 6G 7G 8G10G13G15G16G21G26G27G29
  23698398.284    23698397.6684   23698400.5124  124535924.163 5  97041005.16042
      2813.668        2192.406
  23530098.448    23530098.0774   23530100.1514  123651482.703 6  96351820.90243
     -3467.534       -2701.967
  22018361.066    22018360.2914   22018362.1994  115707261.215 7  90161515.80845
        16.008          12.477
  23251380.774    23251380.1524   23251381.8744  122186853.448 7  95210547.72544
      2863.356        2231.175
  21092628.521    21092627.7184   21092629.4814  110842499.859 8  86370793.54746
     -1675.018       -1305.203
  24425313.087    24425313.9254   24425313.7184  128355872.868 6 100017574.04442
     -4160.417       -3241.900
  23665880.318    23665878.5914   23665883.4614  124365087.998 5  96907843.06941
      3340.261        2602.768
  22788316.845    22788316.2894   22788317.6364  119753402.613 6  93314356.23744
     -2369.355       -1846.259
  22242278.288    22242277.8834   22242278.2434  116883964.666 8  91078427.21345
      2070.319        1613.234
  23872971.763    23872972.5924   23872974.8544  125453314.561 6  97755844.02343
      3817.262        2974.483
  22447475.277    22447474.7814   22447476.2044  117962281.831 7  91918676.29045
       700.578         545.901
  23065983.109    23065982.9194   23065984.4844  121212569.006 6  94451363.68944
      2992.594        2331.890
 06  5  9 16  5  0.0000000  0 12G 3G 6G 7G 8G10G13G15G16G21G26G27G29
  23682362.255    23682362.2694   23682363.7054  124451653.913 6  96975340.06742
      2803.942        2184.927
  23549915.592    23549915.2444   23549918.0694  123755625.658 6  96432971.18743
     -3475.491       -2708.153
  22018317.489    22018317.0544   22018318.5304  115707034.205 8  90161338.90145
        -1.166          -0.914
  23235061.447    23235061.6614   23235063.4764  122101101.413 7  95143727.94844
      2853.162        2223.227
  21102241.038    21102240.2254   21102241.5064  110893013.241 8  86410154.62246
     -1692.837       -1319.098
  24449075.396    24449074.2544   24449076.3634  128480744.368 6 100114876.37542
     -4164.708       -3245.226
  23646826.760    23646825.2674   23646828.5444  124264960.437 5  96829821.50041
      3334.586        2598.415
  22801885.556    22801885.2934   22801885.4974  119824703.841 7  93369915.64044
     -2384.290       -1857.890
  22230496.379    22230495.6704   22230495.9654  116822050.166 8  91030182.28845
      2057.012        1602.851
  23851193.822    23851192.8084   23851196.7164  125338866.251 6  97666663.63643
      3812.167        2970.510
  22443518.889    22443518.3494   22443519.2364  117941488.914 8  91902474.04545
       685.307         534.000
  23048922.419    23048922.5204   23048924.5164  121122917.743 6  94381505.59644
      2984.177        2325.346
 06  5  9 16  5 30.0000000  0 12G 3G 6G 7G 8G10G13G15G16G21G26G27G29
  23666383.253    23666382.9324   23666384.3664  124367682.080 6  96909907.50842
      2793.579        2176.842
  23569777.795    23569777.8444   23569780.5294  123860001.894 6  96514303.23943
     -3483.563       -2714.458
  22018372.697    22018372.2834   22018373.0814  115707321.586 7  90161562.82445
       -18.507         -14.425
  23218803.221    23218803.3804   23218804.7634  122015662.577 7  95077152.21244
      2842.418        2214.864
  21111955.070    21111954.4494   21111955.7924  110944061.966 8  86449932.84446
     -1710.929       -1333.189
  24472861.019    24472862.6834   24472863.4644  128605742.314 6 100212277.32242
     -4169.134       -3248.665
  23627807.946    23627807.3414   23627809.3444  124165013.069 5  96751940.43641
      3328.018        2593.301
  22815539.298    22815539.3464   22815539.5724  119896457.318 6  93425827.43044
     -2399.688       -1869.886
  22218789.052    22218789.0454   22218789.2574  116760532.432 8  90982246.46945
      2043.591        1592.410
  23829444.499    23829445.1784   23829446.5824  125224576.537 6  97577606.87843
      3806.675        2966.248
  22439648.910    22439648.5624   22439649.8914  117921155.281 7  91886629.67745
       669.709         521.849
  23031910.761    23031910.2904   23031912.2344  121033516.027 6  94311841.89944
      2975.478        2318.580
 06  5  9 16  6  0.0000000  0 12G 3G 6G 7G 8G10G13G15G16G21G26G27G29
  23650461.335    23650461.1144   23650463.2154  124284013.980 6  96844711.61142
      2783.594        2169.078
  23589684.509    23589684.5004   23589687.3604  123964611.523 6  96595817.27743
     -3491.272       -2720.462
  22018525.397    22018525.1864   22018526.5404  115708126.219 8  90162189.79545
       -35.800         -27.876
  23202605.915    23202605.0484   23202607.5984  121930541.938 7  95010824.46444
      2831.715        2206.518
  21121771.772    21121770.7674   21121772.2124  110995646.963 8  86490128.95546
     -1728.726       -1347.061
  24496671.860    24496671.9074   24496672.8954  128730866.329 6 100309776.55542
     -4173.018       -3251.731
  23608822.287    23608822.3564   23608825.3584  124065250.530 6  96674203.44142
      3321.848        2588.447
  22829279.716    22829279.2304   22829279.6994  119968663.328 7  93482091.84844
     -2414.577       -1881.499
  22207160.013    22207159.0184   22207159.3414  116699416.167 8  90934623.42845
      2030.190        1581.979
  23807727.338    23807726.2324   23807729.6164  125110450.064 6  97488677.20643
      3801.123        2961.923
  22435867.739    22435867.4774   22435868.3284  117901284.538 7  91871146.01445
       654.259         509.819
  23014946.107    23014946.2504   23014948.1344  120944368.818 7  94242376.53844
      2966.926        2311.894
 06  5  9 16  6 30.0000000  0 12G 3G 6G 7G 8G10G13G15G16G21G26G27G29
  23634598.018    23634598.2184   23634599.4144  124200654.020 6  96779755.79942
      2773.319        2160.996
  23609635.871    23609635.9584   23609637.9024  124069453.447 6  96677512.29143
     -3498.690       -2726.290
  22018776.896    22018776.7064   22018778.8234  115709450.009 7  90163221.22145
       -52.866         -41.187
  23186469.653    23186469.1354   23186470.6404  121845744.206 7  94944748.30744
      2820.922        2198.131
  21131689.792    21131689.0874   21131690.5974  111047768.256 8  86530742.96146
     -1746.397       -1360.836
  24520505.712    24520505.4844   24520507.6324  128856115.393 6 100407373.29142
     -4177.153       -3254.965
  23589875.456    23589874.4694   23589876.1044  123965677.400 6  96596614.04242
      3315.502        2583.501
  22843106.437    22843106.2754   22843106.8574  120041321.618 7  93538708.61144
     -2429.486       -1893.088
  22195606.847    22195606.1734   22195606.5024  116638705.132 7  90887316.15345
      2016.630        1571.387
  23786041.941    23786041.4614   23786044.2094  124996492.332 6  97399879.03443
      3795.752        2957.757
  22432175.105    22432174.9824   22432175.9924  117881879.036 8  91856024.87145
       638.820         497.791
  22998031.896    22998031.7664   22998033.4364  120855480.411 7  94173112.84544
      2958.394        2305.252
 06  5  9 16  7  0.0000000  0 12G 3G 6G 7G 8G10G13G15G16G21G26G27G29
  23618794.348    23618793.9634   23618795.7594  124117599.672 6  96715038.13142
      2763.095        2153.067
  23629629.070    23629629.8924   23629632.1274  124174519.785 6  96759382.05143
     -3506.168       -2732.072
  22019127.056    22019126.4864   22019128.4314  115711288.298 7  90164653.61545
       -70.109         -54.627
  23170393.375    23170393.3614   23170395.5334  121761267.234 7  94878922.09244
      2810.180        2189.748
  21141709.141    21141708.2894   21141709.3454  111100419.217 8  86571769.67946
     -1764.113       -1374.629
  24544362.061    24544362.2904   24544363.8474  128981481.496 6 100505061.16142
     -4180.985       -3257.872
  23570962.564    23570962.2194   23570963.5034  123866291.058 6  96519170.23442
      3309.562        2578.888
  22857018.269    22857017.6554   22857017.1334  120114424.569 7  93595671.82744
     -2444.353       -1904.660
  22184129.921    22184129.8634   22184129.7264  116578396.352 8  90840322.28945
      2003.327        1561.025
  23764387.623    23764387.2754   23764390.1264  124882701.082 6  97311210.65843
      3789.797        2953.080
  22428569.672    22428569.4784   22428570.9234  117862934.452 7  91841262.88345
       623.549         485.894
  22981165.392    22981165.3534   22981166.9654  120766847.798 7  94104048.49544
      2949.853        2298.579
 06  5  9 16  7 30.0000000  0 12G 3G 6G 7G 8G10G13G15G16G21G26G27G29
  23603049.655    23603049.3834   23603050.8154  124034860.473 7  96650566.01442
      2752.564        2144.930
  23649666.180    23649665.8564   23649668.9954  124279815.254 6  96841430.43543
     -3513.967       -2738.192
  22019576.487    22019575.8394   22019577.3504  115713648.220 7  90166492.52745
       -87.543         -68.206
  23154381.673    23154381.2694   23154382.4394  121677120.509 7  94813353.23244
      2799.208        2181.201
  21151830.071    21151829.1944   21151830.6754  111153605.495 8  86613213.53146
     -1781.921       -1388.500
  24568241.591    24568241.9094   24568243.3334  129106969.166 6 100602843.74842
     -4184.892       -3260.957
  23552087.449    23552086.6234   23552089.2134  123767100.856 6  96441879.19042
      3302.994        2573.810
  22871014.253    22871013.7194   22871014.0344  120187977.228 7  93652985.52744
     -2459.382       -1916.379
  22172732.337    22172731.7044   22172731.5534  116518499.135 7  90793649.15345
      1989.552        1550.311
  23742768.261    23742767.9424   23742769.4284  124769085.935 6  97222679.39543
      3784.048        2948.614
  22425054.219    22425053.6764   22425054.8174  117844458.597 7  91826866.12245
       607.841         473.662
  22964349.860    22964349.5734   22964351.5624  120678480.655 6  94035191.01544
      2941.021        2291.697
 06  5  9 16  8  0.0000000  0 12G 3G 6G 7G 8G10G13G15G16G21G26G27G29
  23587365.535    23587365.0534   23587366.7604  123952442.660 6  96586344.36742
      2741.838        2136.472
  23669746.850    23669747.5154   23669749.9224  124385340.573 6  96923658.00343
     -3521.409       -2743.954
  22020125.357    22020124.8434   22020126.3454  115716533.392 8  90168740.71745
      -105.030         -81.845
  23138432.592    23138432.6894   23138434.4684  121593310.223 7  94748046.50844
      2787.941        2172.412
  21162053.105    21162052.3734   21162053.9604  111207328.708 8  86655075.76846
     -1799.746       -1402.396
  24592144.575    24592144.2064   24592147.1234  129232579.010 6 100700721.56642
     -4188.911       -3264.069
  23533250.074    23533249.3904   23533251.9014  123668112.902 6  96364745.76942
      3296.122        2568.398
  22885096.723    22885096.0484   22885096.7564  120261980.751 7  93710650.58944
     -2474.246       -1927.982
  22161413.745    22161413.2274   22161412.7384  116459018.729 7  90747300.73945
      1975.695        1539.493
  23721182.276    23721182.4894   23721184.6224  124655653.611 7  97134290.62344
      3777.942        2943.842
  22421628.120    22421627.8164   22421628.9634  117826455.546 7  91812837.78545
       592.089         461.381
  22947585.299    22947585.5574   22947587.0104  120590384.735 6  93966544.86144
      2931.883        2284.561
 06  5  9 16  8 30.0000000  0 12G 3G 6G 7G 8G10G13G15G16G21G26G27G29
  23571744.006    23571743.2884   23571744.7264  123870349.050 7  96522375.31942
      2730.402        2127.583
  23689871.743    23689871.7284   23689874.3804  124491093.697 6  97006063.11443
     -3529.489       -2750.252
  22020774.237    22020773.6964   22020775.7554  115719944.128 7  90171398.36145
      -123.057         -95.867
  23122549.231    23122548.7924   23122550.5844  121509839.385 7  94683004.30944
      2776.134        2163.221
  21172378.237    21172377.4254   21172379.0474  111261587.661 8  86697355.45446
     -1818.170       -1416.748
  24616070.552    24616071.4224   24616071.9634  129358308.434 6 100798692.53741
     -4193.427       -3267.526
  23514452.140    23514450.6824   23514453.9364  123569330.096 6  96287772.15642
      3288.982        2562.873
  22899264.509    22899264.0704   22899264.5984  120336433.230 7  93768665.46744
     -2489.732       -1940.046
  22150174.033    22150173.8394   22150174.0124  116399957.724 7  90701279.18345
      1961.053        1528.088
  23699633.026    23699632.3134   23699634.0624  124542407.556 7  97046047.04644
      3771.122        2938.507
  22418293.033    22418292.5144   22418293.7184  117808926.971 8  91799179.18845
       575.774         448.647
  22930873.562    22930872.9534   22930874.8514  120502562.645 7  93898112.08844
      2922.235        2277.084
 06  5  9 16  9  0.0000000  0 12G 3G 6G 7G 8G10G13G15G16G21G26G27G29
  23556185.057    23556185.7404   23556186.5344  123788589.023 7  96458666.19742
      2719.608        2119.127
  23710039.380    23710039.2934   23710041.7634  124597078.156 6  97088648.42143
     -3536.687       -2755.895
  22021524.082    22021524.3374   22021526.1354  115723887.398 7  90174471.05445
      -140.489        -109.484
  23106732.400    23106731.0904   23106732.8164  121426717.485 7  94618233.96944
      2764.741        2154.337
  21182806.075    21182805.3964   21182806.9714  111316387.224 8  86740056.40646
     -1835.816       -1430.518
  24640019.387    24640019.9774   24640021.7174  129484161.631 5 100896759.96042
     -4197.587       -3270.901
  23495696.314    23495694.3484   23495698.0304  123470761.620 6  96210965.51542
      3281.782        2557.193
  22913519.094    22913517.9214   22913518.5774  120411338.638 7  93827033.20144
     -2504.531       -1951.601
  22139017.357    22139016.6414   22139016.4654  116341324.665 8  90655591.07945
      1947.037        1517.173
  23678119.253    23678119.4794   23678121.0524  124429356.921 7  96957955.66844
      3764.849        2933.657
  22415048.522    22415048.1154   22415049.5624  117791880.054 7  91785895.88445
       559.959         436.332
  22914215.543    22914214.7284   22914216.6034  120415023.576 7  93829899.86344
      2912.995        2269.862
 06  5  9 16  9 30.0000000  0 12G 3G 6G 7G 8G10G13G15G16G21G26G27G29
  23540690.531    23540691.5454   23540691.6424  123707164.876 7  96395218.81142
      2708.158        2110.320
  23730251.379    23730251.0764   23730254.4774  124703291.471 6  97171412.05043
     -3544.426       -2761.876
  22022376.823    22022376.1944   22022377.6294  115728363.497 7  90177958.91645
      -158.418        -123.445
  23090980.074    23090979.9254   23090981.6044  121343946.810 7  94553737.32544
      2752.776        2145.045
  21193336.971    21193336.1084   21193337.6304  111371725.561 8  86783177.18146
     -1853.850       -1444.549
  24663991.553    24663991.9694   24663992.6004  129610135.932 5 100994921.67241
     -4201.324       -3273.756
  23476980.190    23476980.1954   23476982.4254  123372410.286 6  96134328.15442
      3274.398        2551.486
  22927859.216    22927858.3404   22927858.7434  120486695.200 7  93885752.54044
     -2519.804       -1963.474
  22127941.272    22127940.9174   22127940.6904  116283121.716 7  90610238.12345
      1932.682        1505.985
  23656643.590    23656644.3754   23656646.2384  124316504.982 6  96870019.11444
      3758.018        2928.329
  22411896.301    22411896.0734   22411897.4414  117775315.438 7  91772988.38445
       543.845         423.783
  22897611.039    22897611.1444   22897612.9044  120327769.634 7  93761909.78444
      2903.256        2262.285
 06  5  9 16 10  0.0000000  0 12G 3G 6G 7G 8G10G13G15G16G21G26G27G29
  23525260.417    23525259.8684   23525261.7414  123626077.268 7  96332033.65942
      2697.199        2101.705
  23750505.938    23750505.5754   23750508.5554  124809728.490 6  97254349.92043
     -3551.588       -2767.459
  22023329.152    22023328.7324   22023330.4174  115733369.972 7  90181860.08145
      -175.806        -136.989
  23075297.209    23075296.8554   23075298.0574  121261528.172 7  94489514.97244
      2741.314        2136.093
  21203969.100    21203968.5124   21203970.0144  111427598.860 8  86826714.79546
     -1871.360       -1458.211
  24687986.307    24687987.0614   24687987.2144  129736226.077 5 101093173.64241
     -4204.964       -3276.614
  23458305.358    23458305.0304   23458307.2084  123274276.121 6  96057859.99942
      3267.410        2546.069
  22942283.627    22942283.2934   22942283.6634  120562497.913 7  93944819.53444
     -2534.289       -1974.765
  22116947.158    22116946.9464   22116946.9964  116225348.368 7  90565220.01545
      1918.521        1494.942
  23635206.983    23635207.4004   23635209.3684  124203852.272 6  96782237.75543
      3751.841        2923.513
  22408836.077    22408835.7354   22408837.2444  117759231.448 8  91760455.39145
       528.071         411.470
  22881061.877    22881061.1534   22881063.4704  120240801.028 7  93694142.08344
      2894.180        2255.212
 06  5  9 16 10 30.0000000  0 12G 3G 6G 7G 8G10G13G15G16G21G26G27G29
  23509896.589    23509896.2524   23509896.5664  123545339.002 7  96269120.70043
      2684.852        2092.112
  23770804.479    23770803.9374   23770806.2374  124916397.214 5  97337468.26943
     -3559.728       -2773.778
  22024384.641    22024383.8794   22024386.0894  115738917.243 8  90186182.59645
      -194.577        -151.600
  23059682.273    23059682.1084   23059684.0934  121179474.295 7  94425576.89744
      2728.351        2125.996
  21214705.176    21214704.3304   21214705.6004  111484015.829 8  86870676.06146
     -1890.302       -1472.974
  24712003.087    24712003.2044   24712004.6324  129862439.526 5 101191521.72541
     -4209.793       -3280.375
  23439675.165    23439674.5204   23439676.3594  123176371.990 6  95981571.02942
      3258.882        2539.388
  22956794.672    22956794.1774   22956794.5764  120638755.223 7  94004240.79444
     -2550.113       -1987.089
  22106037.703    22106037.2494   22106037.1604  116168016.982 7  90520546.21045
      1903.035        1482.863
  23613811.067    23613810.5134   23613812.9314  124091412.215 6  96694622.17643
      3743.599        2917.062
  22405868.535    22405868.0294   22405869.6414  117743639.391 7  91748305.74145
       510.957         398.139
  22864568.807    22864568.3604   22864570.6824  120154130.419 6  93626606.58644
      2883.518        2246.905
 06  5  9 16 11  0.0000000  0 12G 3G 6G 7G 8G10G13G15G16G21G26G27G29
  23494603.669    23494602.9984   23494603.6594  123464973.524 7  96206498.23143
      2672.535        2082.508
  23791149.509    23791149.8754   23791152.5854  125023315.573 6  97420781.20443
     -3568.211       -2780.377
  22025547.210    22025546.6144   22025548.6114  115745026.138 7  90190942.79145
      -213.005        -165.963
  23044142.556    23044141.6664   23044143.3924  121097808.817 7  94361941.44644
      2715.681        2116.125
  21225548.075    21225547.1704   21225548.5684  111540995.331 8  86915075.63746
     -1908.725       -1487.309
  24736047.832    24736047.1024   24736049.0334  129988794.424 5 101289980.06142
     -4214.367       -3283.924
  23421092.885    23421092.4354   23421094.7984  123078721.411 6  95905479.70343
      3250.833        2533.151
  22971395.513    22971395.1474   22971396.2614  120715485.141 7  94064030.34644
     -2565.519       -1999.112
  22095216.206    22095215.6184   22095215.8334  116111150.434 7  90476234.59645
      1887.752        1470.994
  23592457.587    23592458.4844   23592461.5884  123979208.686 6  96607191.02343
      3736.192        2911.322
  22402999.430    22402999.0144   22403000.0904  117728560.445 7  91736555.90145
       494.129         385.037
  22848136.276    22848136.6714   22848138.3124  120067780.732 6  93559321.17644
      2872.891        2238.628
 06  5  9 16 11 30.0000000  0 12G 3G 6G 7G 8G10G13G15G16G21G26G27G29
  23479380.988    23479381.1844   23479382.7834  123384981.141 7  96144166.46243
      2660.390        2073.051
  23811543.056    23811542.4614   23811544.1644  125130479.291 6  97504285.48943
     -3576.018       -2786.504
  22026816.360    22026815.7724   22026817.2794  115751694.628 7  90196139.00845
      -231.474        -180.363
  23028675.620    23028675.2724   23028677.5234  121016532.457 7  94298609.22744
      2702.894        2106.139
  21236496.863    21236496.2844   21236497.6994  111598533.669 8  86959910.67946
     -1927.111       -1501.636
  24760119.052    24760119.3284   24760120.6904  130115286.130 5 101388544.95442
     -4218.618       -3287.198
  23402558.702    23402558.0494   23402560.7914  122981324.814 6  95829586.34143
      3242.428        2526.594
  22986086.754    22986085.8874   22986086.2914  120792683.538 6  94124184.85944
     -2580.815       -2011.004
  22084483.675    22084483.1784   22084483.2444  116054748.970 8  90432285.39045
      1872.438        1459.054
  23571152.234    23571152.1044   23571154.2014  123867242.597 6  96519944.88643
      3728.374        2905.216
  22400226.980    22400226.9094   22400228.2614  117713993.308 7  91725204.89045
       477.160         371.808
  22831765.813    22831765.8614   22831767.5844  119981752.451 6  93492286.21544
      2862.320        2230.398
 06  5  9 16 12  0.0000000  0 12G 3G 6G 7G 8G10G13G15G16G21G26G27G29
  23464230.013    23464229.5224   23464230.7994  123305359.769 7  96082123.87143
      2647.474        2062.956
  23831980.310    23831980.0624   23831982.5764  125237880.119 6  97587974.38443
     -3584.264       -2792.960
  22028191.024    22028190.0824   22028192.0744  115758917.882 7  90201767.49245
      -250.251        -195.012
  23013283.405    23013282.8444   23013284.3624  120935642.895 7  94235578.41044
      2689.645        2095.814
  21247551.560    21247550.6694   21247552.0214  111656624.153 8  87005175.97846
     -1945.837       -1516.255
  24784214.654    24784213.8794   24784215.0974  130241907.104 5 101487210.58642
     -4223.456       -3291.018
  23384073.031    23384072.3594   23384074.7364  122884179.613 6  95753888.84443
      3233.665        2519.705
  23000865.272    23000864.4284   23000865.1194  120870342.894 7  94184698.59144
     -2596.698       -2023.411
  22073838.711    22073837.9974   22073838.0914  115998809.296 8  90388696.12545
      1856.559        1446.658
  23549890.425    23549890.4104   23549892.5834  123755511.481 7  96432881.69744
      3720.227        2898.888
  22397551.949    22397551.6694   22397553.0344  117699933.769 7  91714249.41245
       459.848         358.303
  22815456.956    22815456.4474   22815457.4204  119896043.056 7  93425499.71244
      2851.333        2221.802
 06  5  9 16 12 30.0000000  0 12G 3G 6G 7G 8G10G13G15G16G21G26G27G29
  23449149.271    23449149.1854   23449150.5834  123226111.341 7  96020371.86343
      2635.126        2053.354
  23852462.178    23852462.2384   23852465.5654  125345515.364 6  97671845.91843
     -3591.930       -2798.905
  22029670.597    22029670.1904   22029672.4464  115766695.286 7  90207827.73745
      -268.854        -209.518
  22997964.794    22997964.0944   22997965.4154  120855142.268 7  94172850.65444
      2676.320        2085.430
  21258710.219    21258709.6194   21258711.1494  111715264.493 8  87050869.72946
     -1964.141       -1530.501
  24808333.053    24808333.9654   24808334.3514  130368653.533 6 101585974.00342
     -4227.447       -3294.096
  23365634.851    23365634.7124   23365636.5834  122787288.292 6  95678389.13843
      3225.013        2512.990
  23015730.166    23015730.0994   23015730.0494  120948460.498 7  94245569.46444
     -2611.926       -2035.263
  22063281.258    22063281.0534   22063281.0854  115943333.085 8  90345467.98145
      1841.201        1434.703
  23528674.146    23528673.7654   23528676.1634  123644018.222 7  96346003.88244
      3712.109        2892.566
  22394972.604    22394972.6134   22394973.9704  117686381.944 7  91703689.52445
       442.910         345.112
  22799207.868    22799207.4504   22799208.4734  119810654.137 7  93358962.92444
      2840.484        2213.357
 06  5  9 16 13  0.0000000  0 12G 3G 6G 7G 8G10G13G15G16G21G26G27G29
  23434140.291    23434139.5264   23434141.1974  123147237.687 7  95958911.91043
      2623.157        2044.029
  23872988.561    23872988.7324   23872991.9404  125453381.329 6  97755897.30143
     -3599.128       -2804.501
  22031255.664    22031255.5274   22031257.5634  115775025.950 7  90214319.19445
      -286.640        -223.356
  22982719.855    22982719.5394   22982720.9294  120775032.311 7  94110427.33744
      2663.992        2075.844
  21269973.059    21269972.4574   21269973.9354  111774451.945 8  87096989.81246
     -1981.680       -1544.157
  24832475.289    24832475.7644   24832476.7324  130495522.298 6 101684832.80442
     -4230.808       -3296.715
  23347245.593    23347245.4174   23347246.7774  122690652.660 6  95603088.89543
      3217.203        2506.907
  23030681.520    23030681.2484   23030681.3944  121027032.777 7  94306794.57644
     -2626.222       -2046.385
  22052813.148    22052812.7524   22052812.8204  115888321.263 7  90302601.61645
      1826.283        1423.092
  23507503.148    23507503.4164   23507504.5514  123532764.765 6  96259312.91444
      3704.992        2886.989
  22392490.991    22392490.3184   22392491.7844  117673337.159 7  91693524.77145
       426.558         332.379
  22783019.780    22783019.8264   22783021.0844  119725586.974 7  93292676.81944
      2830.542        2205.630
 06  5  9 16 13 30.0000000  0 12G 3G 6G 7G 8G10G13G15G16G21G26G27G29
  23419199.866    23419199.7534   23419201.0344  123068727.706 7  95897735.33743
      2610.523        2034.191
  23893556.129    23893555.3264   23893558.2944  125561461.848 6  97840115.92743
     -3606.472       -2810.275
  22032944.494    22032943.7144   22032945.8614  115783896.541 8  90221231.40845
      -304.945        -237.622
  22967548.547    22967547.6814   22967549.1044  120695302.005 7  94048299.84744
      2651.017        2065.739
  21281337.506    21281336.6304   21281338.2774  111834170.919 8  87143524.06546
     -1999.861       -1558.319
  24856637.878    24856638.2054   24856639.2274  130622496.916 6 101783773.99942
     -4234.586       -3299.651
  23328902.421    23328902.5084   23328904.4324  122594260.912 6  95527978.38643
      3208.533        2500.153
  23045716.963    23045716.6864   23045716.9224  121106043.707 7  94368361.44944
     -2641.327       -2058.184
  22042430.986    22042430.4844   22042430.6834  115833762.349 7  90260088.22745
      1810.719        1410.971
  23486374.821    23486375.1724   23486377.7544  123421740.541 6  96172800.59243
      3696.447        2880.374
  22390102.526    22390102.2204   22390103.1714  117660786.782 7  91683745.25845
       409.661         319.220
  22766891.604    22766891.2194   22766892.3514  119640830.778 7  93226633.08844
      2819.735        2197.235
 06  5  9 16 14  0.0000000  0 12G 3G 6G 7G 8G10G13G15G16G21G26G27G29
  23404332.569    23404332.3354   23404334.1804  122990598.639 7  95836855.56743
      2597.520        2024.033
  23914166.040    23914166.0954   23914168.2624  125669768.961 6  97924510.99143
     -3614.441       -2816.458
  22034737.408    22034736.9614   22034738.8654  115793321.575 7  90228575.68745
      -323.800        -252.332
  22952451.966    22952451.0744   22952452.5464  120615968.851 7  93986481.85244
      2637.314        2055.047
  21292805.104    21292804.3604   21292806.1154  111894434.619 8  87190482.78146
     -2018.278       -1572.694
  24880822.946    24880822.4774   24880823.9554  130749589.758 6 101882807.34843
     -4238.691       -3302.901
  23310609.837    23310609.4434   23310611.6504  122498131.154 6  95453072.17043
      3199.421        2493.046
  23060838.452    23060837.8154   23060838.4014  121185505.957 7  94430280.02944
     -2656.817       -2070.271
  22032137.713    22032137.3654   22032137.5744  115779672.874 8  90217940.62645
      1794.698        1398.438
  23465295.082    23465295.2194   23465297.3064  123310963.540 6  96086480.93143
      3688.154        2873.852
  22387810.937    22387810.9364   22387811.9524  117648746.366 7  91674363.12145
       392.292         305.658
  22750824.239    22750824.7024   22750826.3424  119556402.489 6  93160844.87744
      2808.390        2188.319
 06  5  9 16 14 30.0000000  0 12G 3G 6G 7G 8G10G13G15G16G21G26G27G29
  23389537.701    23389537.7054   23389539.4634  122912851.898 7  95776273.61844
      2585.066        2014.296
  23934819.179    23934819.0234   23934820.8834  125778299.299 6  98009080.05043
     -3621.530       -2821.978
  22036636.068    22036635.9544   22036637.7034  115803300.132 7  90236351.26645
      -341.927        -266.459
  22937430.027    22937429.8754   22937431.6924  120537034.744 7  93924974.77844
      2624.312        2044.926
  21304376.076    21304375.5844   21304376.8974  111955240.480 8  87237863.96846
     -2035.993       -1586.499
  24905029.380    24905029.4284   24905031.3284  130876797.109 6 101981929.90443
     -4242.362       -3305.743
  23292367.181    23292366.4024   23292368.8384  122402265.069 6  95378371.51643
      3191.009        2486.492
  23076044.843    23076044.2624   23076045.2644  121265416.334 7  94492547.79844
     -2671.269       -2081.518
  22021935.294    22021934.4334   22021934.2004  115726054.161 8  90176159.79845
      1779.259        1386.433
  23444263.399    23444262.9344   23444264.2584  123200435.771 6  96000355.41343
      3680.018        2867.572
  22385617.339    22385617.1804   22385618.1534  117637215.543 7  91665378.07445
       375.758         292.780
  22734821.520    22734821.0824   22734822.8754  119472303.569 7  93095313.33944
      2797.652        2179.973
 06  5  9 16 15  0.0000000  0 12G 3G 6G 7G 8G10G13G15G16G21G26G27G29
  23374818.124    23374817.6954   23374818.9274  122835497.642 6  95715997.58244
      2572.354        2004.416
  23955515.180    23955514.6084   23955516.9834  125887057.239 6  98093826.48243
     -3628.830       -2827.650
  22038641.727    22038641.3464   22038643.1524  115813838.968 7  90244563.29245
      -360.395        -280.835
  22922487.647    22922487.3304   22922488.4664  120458509.729 7  93863786.51344
      2610.871        2034.454
  21316051.316    21316050.5714   21316052.0444  112016593.412 8  87285671.44646
     -2053.883       -1600.426
  24929258.801    24929258.3754   24929260.1464  131004123.618 6 102081145.35943
     -4245.957       -3308.526
  23274176.232    23274176.0234   23274177.3354  122306671.871 6  95303883.43143
      3182.059        2479.532
  23091336.818    23091336.5354   23091337.6384  121345779.507 7  94555168.41244
     -2686.091       -2093.043
  22011822.346    22011822.1914   22011822.6164  115672915.060 7  90134752.71545
      1763.538        1374.189
  23423279.664    23423279.5534   23423281.4394  123090167.362 7  95914431.98944
      3671.573        2860.972
  22383521.224    22383520.7954   22383521.9324  117626201.898 7  91656796.02745
       358.886         279.654
  22718882.161    22718882.5144   22718883.2704  119388543.217 7  93030045.56344
      2786.677        2171.436
 06  5  9 16 15 30.0000000  0 12G 3G 6G 7G 8G10G13G15G16G21G26G27G29
  23360171.297    23360171.4154   23360172.7034  122758530.355 7  95656023.06544
      2558.741        1993.801
  23976251.974    23976251.7534   23976254.3124  125996032.136 6  98178741.98843
     -3636.458       -2833.587
  22040752.297    22040751.9944   22040753.8334  115824930.393 7  90253206.01145
      -379.231        -295.528
  22907621.479    22907620.6334   22907622.6654  120380388.266 7  93802912.69444
      2596.988        2023.595
  21327828.975    21327827.9284   21327829.3314  112078483.700 7  87333897.63046
     -2072.302       -1614.782
  24953508.798    24953508.9304   24953510.0464  131131558.498 6 102180445.27042
     -4249.905       -3311.602
  23256036.059    23256035.8924   23256037.5954  122211346.149 6  95229603.69743
      3172.585        2472.133
  23106714.540    23106713.5474   23106714.2894  121426585.135 7  94618133.84244
     -2701.321       -2104.909
  22001800.752    22001800.2154   22001800.3954  115620249.400 8  90093714.56645
      1747.227        1361.481
  23402345.054    23402344.4794   23402346.3034  122980153.360 7  95828706.83644
      3662.575        2853.942
  22381522.745    22381522.1904   22381523.1474  117615697.735 7  91648610.97645
       341.310         265.954
  22703006.883    22703006.6654   22703007.5634  119305116.046 7  92965037.39044
      2774.860        2162.211
 06  5  9 16 16  0.0000000  0 12G 3G 6G 7G 8G10G13G15G16G21G26G27G29
  23345600.708    23345600.3794   23345602.0544  122681959.483 7  95596357.44344
      2545.862        1983.776
  23997030.313    23997031.4454   23997034.3584  126105228.405 6  98263829.96443
     -3643.467       -2839.065
  22042969.500    22042969.2174   22042971.1504  115836580.801 7  90262284.17345
      -397.518        -309.744
  22892834.121    22892833.8344   22892835.6024  120302679.841 7  93742360.74244
      2583.257        2012.902
  21339709.476    21339708.5344   21339709.9604  112140916.550 8  87382546.58846
     -2090.092       -1628.634
  24977780.980    24977780.1274   24977781.8484  131259105.955 6 102279832.91443
     -4253.365       -3314.313
  23237948.929    23237948.4034   23237951.0254  122116297.689 7  95155540.04544
      3163.703        2465.222
  23122176.497    23122176.0424   23122176.2664  121507836.821 7  94681446.61544
     -2715.821       -2116.219
  21991871.092    21991870.2894   21991870.0504  115568066.218 7  90053052.33445
      1731.365        1349.123
  23381460.335    23381459.7134   23381461.5084  122870403.592 7  95743187.51644
      3653.805        2847.140
  22379621.961    22379621.4534   22379622.5404  117605710.734 7  91640828.91945
       324.288         252.686
  22687196.152    22687195.9724   22687197.1364  119222031.163 7  92900295.97244
      2763.892        2153.701
 06  5  9 16 16 30.0000000  0 12G 3G 6G 7G 8G10G13G15G16G21G26G27G29
  23331102.108    23331101.9054   23331103.8054  122605769.492 7  95536988.64444
      2533.151        1973.886
  24017849.471    24017849.0264   24017851.2714  126214625.457 6  98349074.42143
     -3649.799       -2843.952
  22045289.408    22045288.9164   22045291.1544  115848772.593 7  90271784.23445
      -415.422        -323.710
  22878122.372    22878121.7484   22878123.3764  120225369.222 7  93682118.76044
      2570.237        2002.786
  21351689.504    21351688.5384   21351689.7964  112203872.114 8  87431602.85246
     -2107.304       -1642.068
  25002069.711    25002069.6044   25002071.5304  131386745.135 6 102379291.96443
     -4256.008       -3316.375
  23219911.636    23219911.0904   23219913.4964  122021511.209 6  95081680.52644
      3155.116        2458.548
  23137718.714    23137718.4204   23137719.1604  121589515.160 7  94745092.02244
     -2729.702       -2127.025
  21982028.852    21982028.5694   21982029.1194  115516349.194 7  90012753.24145
      1716.063        1337.175
  23360622.756    23360622.4684   23360624.4494  122760903.206 6  95657862.52144
      3645.838        2840.927
  22377816.364    22377816.0684   22377817.0104  117596223.719 7  91633436.46145
       307.808         239.858
  22671447.842    22671447.4924   22671448.7774  119139272.951 6  92835809.12644
      2753.047        2145.230
 06  5  9 16 17  0.0000000  0 12G 3G 6G 7G 8G10G13G15G16G21G26G27G29
  23316680.116    23316679.8424   23316681.0434  122529979.852 6  95477931.85544
      2519.055        1962.897
  24038707.075    24038707.6084   24038709.0264  126324237.657 6  98434486.59643
     -3657.716       -2850.169
  22047715.447    22047714.8394   22047716.6604  115861522.356 7  90281719.15045
      -434.687        -338.703
  22863489.538    22863489.1774   22863491.5584  120148475.970 7  93622201.99744
      2555.655        1991.426
  21363771.468    21363770.8704   21363772.5774  112267365.242 8  87481077.99546
     -2125.779       -1656.443
  25026377.771    25026379.3864   25026380.2964  131514490.751 6 102478833.95642
     -4260.394       -3319.769
  23201928.431    23201927.6704   23201929.4934  121927006.069 7  95008040.19844
      3144.925        2450.597
  23153345.516    23153345.3834   23153346.1274  121671634.647 7  94809081.25844
     -2745.149       -2139.074
  21972280.771    21972280.0094   21972280.1424  115465117.317 7  89972832.21345
      1699.210        1324.065
  23339837.361    23339836.7364   23339838.4874  122651672.113 6  95572747.47244
      3636.023        2833.254
  22376109.684    22376109.2414   22376110.2684  117587253.964 7  91626447.05945
       289.946         225.939
  22655765.021    22655764.8434   22655766.3734  119056860.802 7  92771591.93844
      2740.749        2135.639
 06  5  9 16 17 30.0000000  0 12G 3G 6G 7G 8G10G13G15G16G21G26G27G29
  23302335.756    23302335.0124   23302336.4154  122454597.253 6  95419192.29944
      2505.563        1952.406
  24059606.020    24059606.1844   24059608.6774  126434066.107 6  98520067.29342
     -3664.691       -2855.589
  22050248.751    22050247.9954   22050250.1154  115874833.945 7  90292091.84345
      -453.170        -353.102
  22848938.502    22848937.8234   22848938.9874  120072006.510 7  93562615.45844
      2541.705        1980.562
  21375956.983    21375956.0614   21375957.4384  112331398.007 8  87530973.64246
     -2143.548       -1670.303
  25050708.388    25050708.0134   25050709.9454  131642343.996 6 102578459.77042
     -4263.750       -3322.365
  23183998.999    23183998.7754   23184000.4834  121832789.256 7  94934624.59544
      3135.571        2443.309
  23169057.071    23169056.4834   23169056.9694  121754196.555 7  94873415.21944
     -2759.637       -2150.354
  21962624.746    21962624.2914   21962624.5074  115414376.914 7  89933294.24445
      1682.981        1311.412
  23319102.379    23319103.1184   23319105.2534  122542717.515 6  95487847.83244
      3626.918        2826.167
  22374501.673    22374501.5324   22374502.7964  117578806.135 7  91619864.36045
       272.666         212.462
  22640149.047    22640149.3564   22640150.9494  118974800.892 7  92707649.21244
      2729.285        2126.695
 06  5  9 16 18  0.0000000  0 12G 3G 6G 7G 8G10G13G15G16G21G26G27G29
  23288066.187    23288065.8394   23288067.6214  122379615.750 6  95360765.29843
      2492.439        1942.168
  24080544.931    24080545.7214   24080548.3824  126544099.692 6  98605807.64642
     -3671.660       -2861.010
  22052887.057    22052886.6794   22052888.5784  115888698.629 7  90302895.48945
      -471.669        -367.538
  22834466.199    22834465.6754   22834467.3104  119995954.757 7  93503354.39944
      2527.683        1969.628
  21388242.586    21388241.7344   21388243.3614  112395960.297 7  87581281.90446
     -2161.209       -1684.059
  25075056.107    25075055.1034   25075057.6834  131770293.981 6 102678161.03842
     -4266.942       -3324.913
  23166124.335    23166123.3634   23166125.2684  121738854.689 7  94861428.86544
      3126.074        2435.915
  23184849.742    23184849.6204   23184849.8304  121837189.809 7  94938085.24944
     -2773.841       -2161.420
  21953061.471    21953060.9784   21953061.1214  115364121.313 8  89894134.03445
      1666.801        1298.812
  23298420.957    23298421.2684   23298423.3984  122434033.885 6  95403159.34444
      3617.783        2819.074
  22372992.056    22372991.6674   22372992.9774  117570872.181 7  91613682.07645
       255.607         199.172
  22624599.588    22624599.6824   22624601.0534  118893087.105 7  92643976.18544
      2717.733        2117.730
 06  5  9 16 18 30.0000000  0 12G 3G 6G 7G 8G10G13G15G16G21G26G27G29
  23273876.024    23273875.1954   23273876.9264  122305043.243 6  95302656.87943
      2478.554        1931.354
  24101524.365    24101524.2194   24101525.4444  126654341.484 6  98691710.35442
     -3678.096       -2866.074
  22055631.750    22055631.3194   22055633.0814  115903121.817 7  90314134.47045
      -490.269        -382.046
  22820075.131    22820074.4484   22820075.9824  119920329.319 7  93444425.51844
      2513.576        1958.614
  21400629.183    21400628.6754   21400630.3884  112461055.382 8  87632005.33046
     -2178.869       -1697.827
  25099423.296    25099424.7704   25099424.1504  131898343.399 6 102777939.83942
     -4270.313       -3327.553
  23148304.336    23148303.5514   23148305.5164  121645210.326 7  94788459.31044
      3116.420        2428.372
  23200724.962    23200724.8944   23200725.9174  121920617.272 7  95003093.59544
     -2788.283       -2172.698
  21943592.260    21943591.5974   21943591.4744  115314357.292 7  89855356.84345
      1650.338        1285.974
  23277793.060    23277792.5864   23277794.2854  122325629.689 7  95318688.62344
      3608.529        2811.825
  22371581.260    22371580.7764   22371582.3064  117563457.739 7  91607904.62145
       238.266         185.645
  22609117.821    22609117.2764   22609118.4924  118811727.026 7  92580578.76744
      2705.959        2108.520
 06  5  9 16 19  0.0000000  0 12G 3G 6G 7G 8G10G13G15G16G21G26G27G29
  23259763.730    23259763.5364   23259765.4344  122230884.832 6  95244871.08643
      2464.850        1920.643
  24122542.018    24122541.3144   24122543.2454  126764791.586 6  98777775.41342
     -3685.101       -2871.495
  22058483.026    22058482.4594   22058484.5944  115918105.726 7  90325810.27845
      -508.806        -396.474
  22805766.353    22805765.9264   22805767.0734  119845135.406 7  93385832.90844
      2499.200        1947.433
  21413118.690    21413117.6984   21413119.2414  112526684.241 8  87683144.70446
     -2196.535       -1711.587
  25123809.987    25123810.7044   25123809.8444  132026492.492 5 102877796.29641
     -4273.374       -3329.973
  23130540.325    23130539.7644   23130541.8844  121551861.437 7  94715719.91044
      3106.657        2420.758
  23216684.032    23216683.6324   23216684.5534  122004479.310 7  95068440.51344
     -2802.556       -2183.803
  21934216.087    21934216.0064   21934215.8554  115265089.713 7  89816966.48645
      1633.899        1273.159
  23257217.138    23257218.0204   23257220.1774  122217510.673 6  95234440.08044
      3599.312        2804.650
  22370269.835    22370269.3464   22370270.7454  117556565.920 7  91602534.39645
       221.070         172.268
  22593703.154    22593703.1054   22593704.6564  118730725.691 7  92517460.88444
      2694.044        2099.267
 06  5  9 16 19 30.0000000  0 11G 3G 6G 7G 8G10G15G16G21G26G27G29
  23245729.080    23245728.5504   23245730.3274  122157132.199 6  95187401.45743
      2451.280        1910.094
  24143595.930    24143596.5564   24143598.0444  126875436.077 5  98863991.86842
     -3691.725       -2876.676
  22061438.621    22061438.1064   22061440.3044  115933639.260 8  90337914.34345
      -527.097        -410.726
  22791537.544    22791537.2294   22791538.6974  119770364.663 7  93327570.00944
      2484.869        1936.258
  21425706.718    21425705.6054   21425706.8584  112592833.925 8  87734689.89846
     -2213.956       -1725.165
  23112831.347    23112830.4614   23112832.8014  121458799.730 7  94643204.24444
      3096.917        2413.170
  23232723.091    23232722.6284   23232723.1814  122088762.542 7  95134115.63544
     -2816.856       -2194.946
  21924933.940    21924933.5714   21924933.1914  115216309.223 8  89778955.74645
      1617.569        1260.416
  23236696.205    23236696.3664   23236697.9714  122109668.890 7  95150407.56344
      3589.646        2797.139
  22369055.483    22369055.0864   22369056.6184  117550186.592 7  91597563.52045
       203.669         158.693
  22578355.849    22578355.6994   22578357.3744  118650074.599 7  92454615.93744
      2682.119        2089.969
 06  5  9 16 20  0.0000000  0 11G 3G 6G 7G 8G10G15G16G21G26G27G29
  23231774.621    23231774.3264   23231775.7124  122083799.678 6  95130259.24243
      2437.285        1899.194
  24164690.460    24164690.0474   24164691.5854  126986284.269 5  98950367.07142
     -3698.574       -2882.023
  22064501.811    22064501.0274   22064502.9854  115949733.807 7  90350455.56545
      -546.297        -425.674
  22777392.528    22777392.1634   22777393.4204  119696031.220 7  93269647.88145
      2469.979        1924.668
  21438394.965    21438394.0764   21438395.9164  112659514.069 8  87786648.44546
     -2231.862       -1739.105
  23095179.363    23095178.9284   23095180.9604  121366039.673 7  94570923.70144
      3086.549        2405.114
  23248843.743    23248843.2304   23248844.0704  122173475.872 7  95200125.85244
     -2831.314       -2206.197
  21915746.400    21915746.0654   21915746.2164  115168030.006 8  89741335.58545
      1600.464        1247.148
  23216230.397    23216230.2434   23216232.3724  122002119.077 6  95066602.59644
      3579.521        2789.244
  22367941.567    22367941.0454   22367942.8444  117544331.527 7  91593001.15345
       186.031         144.966
  22563078.007    22563077.8664   22563079.3794  118569787.839 7  92392054.88944
      2669.674        2080.261
 06  5  9 16 20 30.0000000  0 11G 3G 6G 7G 8G10G15G16G21G26G27G29
  23217899.813    23217899.6504   23217900.6374  122010887.073 6  95073444.24543
      2424.013        1888.866
  24185822.468    24185821.7324   24185823.4574  127097330.812 5  99036896.81842
     -3703.978       -2886.210
  22067670.477    22067669.9634   22067671.8524  115966386.491 7  90363431.70045
      -563.832        -439.334
  22763330.837    22763330.1904   22763331.3364  119622135.048 7  93212066.49245
      2456.419        1914.081
  21451184.049    21451183.1874   21451184.7154  112726719.917 8  87839016.62746
     -2248.405       -1751.999
  23077584.988    23077584.5694   23077586.4004  121273581.269 7  94498878.17444
      3077.409        2397.970
  23265044.933    23265044.3224   23265045.0044  122258614.974 7  95266468.15344
     -2844.665       -2216.623
  21906654.274    21906653.9744   21906653.9874  115120250.584 8  89704104.85745
      1584.841        1234.942
  23195819.837    23195819.8804   23195822.1584  121894861.674 6  94983025.47044
      3570.709        2782.361
  22366926.261    22366925.8854   22366927.5564  117538998.600 7  91588845.64345
       169.606         132.160
  22547869.165    22547869.2544   22547870.0214  118489864.825 7  92329777.26144
      2658.600        2071.646
 06  5  9 16 21  0.0000000  0 11G 3G 6G 7G 8G10G15G16G21G26G27G29
  23204104.756    23204105.0384   23204106.2734  121938394.940 6  95016956.92143
      2409.272        1877.339
  24206992.070    24206989.7974   24206991.8624  127208571.164 5  99123577.51942
     -3711.651       -2892.197
  22070945.316    22070944.8724   22070946.4824  115983594.845 7  90376840.77545
      -583.404        -454.604
  22749351.429    22749350.9444   22749352.9924  119548676.738 7  93154826.27044
      2440.935        1902.040
  21464072.159    21464071.3504   21464072.8514  112794447.394 7  87891791.27446
     -2266.626       -1766.202
  23060047.937    23060047.5714   23060050.1854  121181425.374 7  94427068.47744
      3066.463        2389.457
  23281325.885    23281325.7534   23281326.7894  122344174.453 7  95333137.74544
     -2859.472       -2228.146
  21897657.891    21897657.0804   21897656.8574  115072971.443 8  89667263.98745
      1567.130        1221.152
  23175466.057    23175465.3954   23175467.7974  121787897.531 7  94899676.81944
      3560.351        2774.320
  22366010.943    22366010.6174   22366011.7884  117534186.236 7  91585095.77945
       151.372         117.956
  22532730.191    22532729.7014   22532730.3614  118410305.821 7  92267783.28244
      2645.467        2061.406
 06  5  9 16 21 30.0000000  0 11G 3G 6G 7G 8G10G15G16G21G26G27G29
  23190392.798    23190392.3074   23190394.1844  121866337.686 6  94960808.46043
      2394.528        1865.866
  24228198.616    24228197.9644   24228198.8314  127320014.723 5  99210416.63542
     -3718.482       -2897.445
  22074327.345    22074327.2974   22074329.2484  116001370.731 8  90390692.08445
      -602.236        -469.269
  22735458.610    22735458.5004   22735459.8304  119475670.910 7  93097938.64244
      2425.754        1890.199
  21477061.249    21477060.2634   21477062.3894  112862706.645 7  87944980.30146
     -2284.460       -1780.088
  23042572.273    23042571.4844   23042573.9164  121089586.239 7  94355505.51944
      3055.760        2381.116
  23297689.250    23297689.2794   23297689.8554  122430164.246 7  95400142.73344
     -2873.544       -2239.137
  21888757.810    21888757.4274   21888757.8944  115026206.060 7  89630823.40745
      1550.135        1207.917
  23155169.651    23155169.1084   23155171.4924  121681241.929 7  94816568.57944
      3549.865        2766.125
  22365196.355    22365195.7974   22365197.5084  117529906.859 7  91581761.21045
       133.524         104.048
  22517661.746    22517661.9014   22517662.8384  118331125.383 7  92206084.27944
      2632.741        2051.480
 06  5  9 16 22  0.0000000  0 11G 3G 6G 7G 8G10G15G16G21G26G27G29
  23176763.622    23176763.3774   23176764.8494  121794716.621 6  94904999.91943
      2379.712        1854.338
  24249443.579    24249442.9324   24249445.1864  127431657.660 5  99297411.10142
     -3725.168       -2902.724
  22077818.427    22077817.7344   22077819.3704  116019712.715 8  90404984.48945
      -621.162        -484.028
  22721653.602    22721652.7704   22721653.9994  119403119.149 7  93041404.84444
      2410.412        1878.237
  21490151.272    21490150.3384   21490152.1764  112931494.673 8  87998581.35546
     -2302.067       -1793.815
  23025156.626    23025155.4374   23025158.0964  120998065.405 7  94284190.60744
      3044.998        2372.711
  23314134.295    23314133.5754   23314134.3144  122516580.606 7  95467480.20944
     -2888.146       -2250.524
  21879956.897    21879956.4034   21879956.5084  114979954.778 8  89594783.45845
      1532.709        1194.307
  23134931.892    23134932.2334   23134934.3234  121574896.649 7  94733702.19644
      3539.065        2757.700
  22364482.906    22364482.5804   22364484.1564  117526159.585 7  91578841.27445
       115.533          90.011
  22502666.250    22502666.0744   22502667.3054  118252324.193 7  92144680.82544
      2620.084        2041.620
 06  5  9 16 22 30.0000000  0 11G 3G 6G 7G 8G10G15G16G21G26G27G29
  23163218.983    23163219.1784   23163220.6224  121723540.966 6  94849538.40944
      2364.956        1842.837
  24270725.780    24270726.0734   24270727.8344  127543504.095 5  99384564.11942
     -3731.558       -2907.710
  22081417.758    22081417.3654   22081418.9694  116038627.060 8  90419722.87945
      -640.200        -498.849
  22707934.283    22707934.1034   22707935.6214  119331030.944 7  92985232.22744
      2395.039        1866.258
  21503342.652    21503341.7474   21503343.5634  113000816.124 8  88052598.07546
     -2319.804       -1807.634
  23007802.800    23007801.9164   23007804.1584  120906872.280 7  94213131.08644
      3034.211        2364.316
  23330660.591    23330659.6194   23330660.6604  122603428.183 7  95535153.90544
     -2902.149       -2261.415
  21871255.418    21871254.6634   21871254.6664  114934226.343 7  89559150.93845
      1515.459        1180.876
  23114756.543    23114756.8734   23114758.4154  121468871.554 6  94651085.28144
      3528.466        2749.463
  22363873.085    22363872.7614   22363873.8574  117522951.456 7  91576341.43245
        97.876          76.288
  22487745.300    22487744.8284   22487746.1274  118173911.675 7  92083580.21044
      2607.078        2031.501
 06  5  9 16 23  0.0000000  0 11G 3G 6G 7G 8G10G15G16G21G26G27G29
  23149759.543    23149758.8064   23149760.1874  121652806.770 7  94794420.86244
      2350.429        1831.483
  24292046.828    24292046.6094   24292048.2904  127655545.069 5  99471868.67942
     -3737.867       -2912.625
  22085124.397    22085124.0384   22085126.0734  116058107.025 7  90434901.90545
      -658.869        -513.401
  22694304.560    22694304.5224   22694305.7424  119259402.180 7  92929417.64144
      2379.947        1854.496
  21516633.952    21516633.6384   21516634.8974  113070662.754 8  88107024.02246
     -2337.006       -1821.046
  22990510.811    22990509.9674   22990512.4274  120816002.955 6  94142323.83544
      3023.491        2355.959
  23347267.031    23347266.5574   23347267.9764  122690696.804 7  95603155.23544
     -2916.019       -2272.227
  21862651.606    21862651.1934   21862651.4844  114889016.357 7  89523922.37745
      1498.280        1167.487
  23094641.503    23094641.3084   23094642.6614  121363163.461 7  94568715.40744
      3518.234        2741.492
  22363363.774    22363363.4794   22363364.8314  117520276.563 7  91574257.12645
        80.249          62.531
  22472896.253    22472896.5874   22472897.5724  118095883.518 7  92022779.08944
      2594.381        2021.603
 06  5  9 16 23 30.0000000  0 11G 3G 6G 7G 8G10G15G16G21G26G27G29
  23136382.955    23136382.3714   23136384.3634  121582514.546 7  94739647.74744
      2335.676        1820.010
  24313404.811    24313402.8964   24313406.0814  127767775.864 5  99559321.06642
     -3744.346       -2917.606
  22088938.758    22088938.3174   22088940.3844  116078150.565 7  90450520.22845
      -677.626        -528.025
  22680761.456    22680761.0334   22680762.2114  119188233.286 7  92873961.38344
      2364.503        1842.453
  21530025.076    21530023.9814   21530025.3474  113141030.477 7  88161856.00446
     -2354.319       -1834.531
  22973280.779    22973279.8444   22973282.2024  120725458.046 7  94071769.35044
      3012.660        2347.542
  23363953.260    23363952.7464   23363953.1494  122778383.489 7  95671482.75844
     -2929.886       -2283.055
  21854147.761    21854147.2004   21854147.0544  114844324.206 8  89489097.26545
      1480.935        1153.984
  23074585.790    23074585.8444   23074587.6624  121257773.274 7  94486593.23544
      3507.581        2733.184
  22362956.427    22362956.1364   22362956.8224  117518133.147 7  91572586.94645
        62.430          48.644
  22458122.040    22458121.3314   22458122.9294  118018240.145 7  91962277.79544
      2581.504        2011.571
 06  5  9 16 24  0.0000000  0 11G 3G 6G 7G 8G10G15G16G21G26G27G29
  23123091.484    23123091.1024   23123092.8294  121512667.151 6  94685221.25744
      2320.936        1808.550
  24334797.547    24334796.0014   24334799.6894  127880194.682 6  99646920.07142
     -3750.797       -2922.672
  22092860.168    22092859.5214   22092861.9124  116098757.505 7  90466577.53345
      -696.526        -542.743
  22667305.574    22667305.5174   22667307.4004  119117527.228 7  92818865.76144
      2348.854        1830.272
  21543513.580    21543512.9654   21543514.5534  113211917.457 8  88217092.61846
     -2371.745       -1848.099
  22956113.301    22956112.2774   22956114.8534  120635241.018 6  94001470.39144
      3001.487        2338.838
  23380718.468    23380717.8764   23380718.5104  122866484.829 7  95740133.14643
     -2943.969       -2293.983
  21845741.539    21845741.2214   21845741.3954  114800152.304 8  89454677.56845
      1463.540        1140.455
  23054591.810    23054591.6644   23054593.5524  121152704.606 7  94404721.62644
      3496.719        2724.742
  22362649.858    22362649.4594   22362650.1984  117516521.914 7  91571331.45045
        44.671          34.817
  22443419.602    22443420.0804   22443421.7674  117940984.129 7  91902078.35044
      2568.522        2001.459
 06  5  9 16 24 30.0000000  0 11G 3G 6G 7G 8G10G15G16G21G26G27G29
  23109884.876    23109884.9864   23109886.1774  121443268.014 7  94631144.04644
      2305.822        1796.729
  24356224.498    24356225.0354   24356226.9514  127992799.757 6  99734664.28242
     -3756.672       -2927.248
  22096888.986    22096888.3714   22096890.4734  116119928.477 7  90483074.40245
      -715.285        -557.367
  22653940.287    22653939.7204   22653941.1514  119047287.853 7  92764133.80144
      2333.435        1818.255
  21557101.919    21557101.1284   21557102.7174  113283322.731 8  88272733.09445
     -2388.846       -1861.448
  22939007.602    22939007.4374   22939009.9844  120545355.172 6  93931429.52944
      2990.517        2330.283
  23397562.237    23397561.9194   23397562.5664  122954999.616 6  95809105.67643
     -2957.512       -2304.573
  21837436.140    21837435.5194   21837435.0864  114756503.482 8  89420665.54845
      1446.049        1126.788
  23034659.564    23034659.7694   23034661.7844  121047961.245 6  94323103.48544
      3485.857        2716.237
  22362444.688    22362444.2984   22362445.1074  117515444.056 7  91570491.58245
        26.818          20.880
  22428793.532    22428792.9104   22428794.3874  117864118.717 7  91842183.26844
      2555.385        1991.200
 06  5  9 16 25  0.0000000  0 11G 3G 6G 7G 8G10G15G16G21G26G27G29
  23096764.492    23096763.8394   23096765.2884  121374315.318 7  94577414.70144
      2290.909        1785.093
  24377686.557    24377687.2304   24377689.4704  128105584.151 6  99822548.20643
     -3762.417       -2931.760
  22101024.090    22101023.4444   22101025.3864  116141658.658 7  90500006.99645
      -733.727        -571.746
  22640662.572    22640662.2844   22640663.7634  118977513.538 7  92709764.24444
      2317.930        1806.153
  21570787.481    21570786.4304   21570788.2034  113355240.001 8  88328772.51946
     -2405.806       -1874.670
  22921966.113    22921965.1674   22921967.7694  120455798.823 7  93861645.33544
      2979.526        2321.680
  23414483.465    23414483.2304   23414483.5434  123043921.176 6  95878395.21943
     -2970.844       -2314.955
  21829228.464    21829227.8434   21829228.1354  114713375.206 7  89387059.11545
      1428.896        1113.406
  23014789.674    23014789.5754   23014791.3114  120943542.184 7  94241738.04544
      3475.317        2708.021
  22362340.120    22362339.7374   22362340.3214  117514895.813 7  91570064.39945
         9.359           7.275
  22414239.938    22414240.4334   22414241.3674  117787641.987 7  91782591.05444
      2542.717        1981.308
 06  5  9 16 25 30.0000000  0 11G 3G 6G 7G 8G10G15G16G21G26G27G29
  23083729.054    23083728.5204   23083730.1874  121305815.827 7  94524038.49544
      2275.343        1772.962
  24399183.661    24399183.4224   24399186.0394  128218549.626 6  99910573.26043
     -3768.960       -2936.872
  22105266.056    22105265.7454   22105267.5004  116163951.963 7  90517378.41445
      -752.992        -586.772
  22627473.650    22627473.7154   22627475.5164  118908210.475 7  92655761.87744
      2301.755        1793.558
  21584570.570    21584569.5134   21584571.4114  113427671.493 8  88385212.64146
     -2423.317       -1888.323
  22904988.078    22904987.2234   22904989.6074  120366579.184 7  93792123.56544
      2967.971        2312.688
  23431482.560    23431481.5214   23431482.5264  123133251.501 6  95948003.31743
     -2984.839       -2325.848
  21821121.665    21821121.1994   21821121.6394  114670773.853 7  89353863.27345
      1410.788        1099.305
  22994982.569    22994982.1474   22994984.1404  120839454.668 7  94160630.95644
      3463.660        2698.922
  22362337.596    22362337.1584   22362337.6984  117514881.682 8  91570053.39345
        -8.941          -6.988
  22399763.004    22399762.0114   22399763.2594  117711560.365 7  91723306.73344
      2528.919        1970.565
 06  5  9 16 26  0.0000000  0 11G 3G 6G 7G 8G10G15G16G21G26G27G29
  23070784.612    23070784.0514   23070785.8224  121237791.643 7  94471032.66444
      2259.965        1761.015
  24420717.765    24420717.6614   24420720.3364  128331713.206 6  99998752.65743
     -3775.177       -2941.732
  22109619.009    22109618.8664   22109620.9714  116186827.416 7  90535203.41645
      -771.821        -601.407
  22614380.793    22614380.4354   22614381.6744  118839401.339 7  92602144.39344
      2285.863        1781.205
  21598455.090    21598454.2794   21598455.6924  113500634.806 8  88442067.16746
     -2440.493       -1901.677
  22888078.656    22888077.9694   22888080.2504  120277718.773 7  93722881.75244
      2956.279        2303.572
  23448562.216    23448561.7134   23448562.2804  123223007.370 6  96017942.92743
     -2998.355       -2336.388
  21813119.171    21813118.5734   21813118.7754  114628720.587 7  89321094.48745
      1392.954        1085.417
  22975242.597    22975242.4544   22975244.3664  120735721.530 7  94079800.00144
      3452.129        2689.971
  22362439.615    22362439.7774   22362441.1744  117515421.491 7  91570474.02645
       -26.837         -20.908
  22385364.209    22385363.6294   22385364.6604  117635895.853 7  91664347.42744
      2515.597        1960.208
 06  5  9 16 26 30.0000000  0 11G 3G 6G 7G 8G10G15G16G21G26G27G29
  23057928.484    23057928.0694   23057928.9034  121170231.227 7  94418388.14644
      2244.005        1748.572
  24442287.247    24442287.0904   24442289.0484  128445058.315 6 100087073.45443
     -3781.384       -2946.524
  22114080.351    22114079.7674   22114082.1054  116210271.060 7  90553471.27245
      -791.079        -616.424
  22601379.165    22601378.7834   22601379.4894  118771074.583 7  92548902.80045
      2269.340        1768.328
  21612437.936    21612436.9774   21612438.6904  113574113.757 8  88499323.48946
     -2458.127       -1915.408
  22871235.065    22871234.3114   22871236.7484  120189206.063 7  93653910.90144
      2944.346        2294.310
  23465718.805    23465719.0424   23465720.8924  123313172.280 6  96088201.31842
     -3012.271       -2347.195
  21805218.124    21805218.0804   21805218.2844  114587202.910 7  89288743.05345
      1374.774        1071.250
  22955567.833    22955567.8724   22955569.5964  120632331.884 7  93999236.74444
      3440.245        2680.687
  22362645.358    22362645.1304   22362646.2474  117516501.614 7  91571315.68145
       -45.188         -35.209
  22371042.596    22371042.2024   22371042.9324  117560636.692 7  91605703.97744
      2501.656        1949.342
 06  5  9 16 27  0.0000000  0 11G 3G 6G 7G 8G10G15G16G21G26G27G29
  23045158.789    23045158.5954   23045160.1404  121103129.099 7  94366100.78844
      2228.849        1736.790
  24463888.485    24463888.2994   24463890.0514  128558574.307 6 100175527.40243
     -3787.143       -2951.009
  22118647.492    22118647.2484   22118649.2664  116234273.577 7  90572174.52445
      -809.535        -630.811
  22588467.208    22588466.7594   22588467.9204  118703224.760 7  92496032.85045
      2253.515        1756.012
  21626516.643    21626515.6594   21626517.4394  113648098.192 7  88556973.68646
     -2474.745       -1928.366
  22854456.486    22854456.1654   22854458.3244  120101035.770 7  93585206.87744
      2933.138        2285.556
  23482953.878    23482953.7104   23482954.2254  123403735.535 6  96158770.04342
     -3025.788       -2357.698
  21797418.816    21797418.3264   21797418.8274  114546214.323 7  89256803.91445
      1357.213        1057.592
  22935957.762    22935957.9074   22935959.9024  120529280.795 7  93918937.26844
      3429.131        2672.056
  22362952.285    22362952.2074   22362953.2154  117518114.324 7  91572572.34045
       -62.887         -48.989
  22356797.134    22356796.8764   22356797.8284  117485777.072 7  91547371.86344
      2488.452        1939.066
 06  5  9 16 27 30.0000000  0 11G 3G 6G 7G 8G10G15G16G21G26G27G29
  23032477.249    23032477.4934   23032478.7114  121036489.233 7  94314173.61444
      2213.217        1724.570
  24485522.788    24485522.2114   24485524.0954  128672260.424 6 100264113.92043
     -3792.849       -2955.479
  22123321.583    22123321.4234   22123323.6994  116258836.979 7  90591314.80145
      -828.520        -645.611
  22575647.877    22575647.1524   22575648.1044  118635856.207 7  92443537.89044
      2237.216        1743.283
  21640690.868    21640690.5604   21640692.2264  113722587.981 8  88615017.68745
     -2491.745       -1941.625
  22837744.377    22837743.6684   22837745.9644  120013212.064 7  93516772.95544
      2921.513        2276.498
  23500263.268    23500263.0734   23500263.2484  123494696.163 6  96229648.35042
     -3038.962       -2368.029
  21789720.085    21789719.8414   21789720.2394  114505758.575 7  89225279.96745
      1339.341        1043.634
  22916412.905    22916413.2454   22916415.2294  120426573.019 7  93838905.29144
      3417.476        2662.977
  22363360.556    22363360.4394   22363362.1524  117520261.232 7  91574245.25145
       -80.921         -63.072
  22342628.482    22342628.5254   22342629.0954  117411321.117 7  91489354.29144
      2474.773        1928.376
 06  5  9 16 28  0.0000000  0 11G 3G 6G 7G 8G10G15G16G21G26G27G29
  23019885.798    23019885.3724   23019886.6824  120970317.711 7  94262611.37944
      2197.639        1712.441
  24507188.067    24507187.5214   24507190.8074  128786117.453 6 100352833.64643
     -3798.336       -2959.755
  22128103.858    22128103.2234   22128105.3734  116283963.492 7  90610893.85545
      -847.202        -660.165
  22562920.844    22562919.8284   22562921.2694  118568974.508 7  92391422.30544
      2221.166        1730.773
  21654963.206    21654962.2974   21654963.4374  113797584.177 8  88673456.26845
     -2508.443       -1954.634
  22821099.647    22821098.7674   22821100.7814  119925740.977 7  93448613.73944
      2909.630        2267.231
  23517648.851    23517648.1244   23517648.7124  123586055.124 5  96300837.04242
     -3052.200       -2378.339
  21782124.466    21782123.9264   21782123.8494  114465840.619 7  89194175.08845
      1321.422        1029.667
  22896935.010    22896935.0684   22896937.1034  120324214.876 7  93759145.74744
      3405.829        2653.885
  22363871.827    22363871.3504   22363872.5404  117522946.247 7  91576337.47245
       -98.658         -76.875
  22328537.804    22328537.6794   22328538.9794  117337274.194 7  91431655.45045
      2461.233        1917.844
 06  5  9 16 28 30.0000000  0 11G 3G 6G 7G 8G10G15G16G21G26G27G29
  23007383.083    23007382.1634   23007383.6534  120904613.479 7  94211413.26344
      2182.512        1700.657
  24528886.439    24528885.8634   24528888.0834  128900139.452 6 100441681.85643
     -3803.329       -2963.658
  22132991.204    22132991.0614   22132993.3804  116309649.643 7  90630908.95945
      -865.520        -674.419
  22550285.847    22550285.4224   22550286.7904  118502578.854 7  92339685.46645
      2205.114        1718.280
  21669329.497    21669328.7514   21669330.1764  113873081.188 8  88732285.08745
     -2524.817       -1967.382
  22804520.993    22804520.3054   22804522.4784  119838621.892 7  93380728.78244
      2898.281        2258.409
  23535107.349    23535108.3314   23535109.2354  123677806.348 6  96372331.25442
     -3064.842       -2388.196
  21774630.456    21774629.8924   21774630.0354  114426459.049 8  89163488.15445
      1303.852        1015.993
  22877523.903    22877523.6604   22877525.2414  120222206.380 7  93679658.69144
      3394.511        2645.053
  22364484.176    22364484.1354   22364485.0464  117526165.775 7  91578846.19745
      -116.103         -90.463
  22314524.269    22314524.2634   22314525.7244  117263635.292 7  91374274.54244
      2447.884        1907.434
 06  5  9 16 29  0.0000000  0 11G 3G 6G 7G 8G10G15G16G21G26G27G29
  22994967.393    22994967.8244   22994968.4444  120839373.041 7  94160576.55244
      2166.300        1688.033
  24550613.366    24550613.2784   24550615.8124  129014318.492 6 100530652.47943
     -3809.049       -2968.090
  22137984.521    22137984.0954   22137986.7854  116335888.942 7  90651355.07445
      -884.440        -689.158
  22537742.680    22537742.1754   22537743.5504  118436666.240 7  92288325.00045
      2188.504        1705.330
  21683789.479    21683788.8114   21683790.6064  113949071.270 7  88791498.13245
     -2541.743       -1980.576
  22788009.404    22788008.8294   22788010.6084  119751851.855 7  93313115.75844
      2885.930        2248.795
  23552641.282    23552639.4824   23552641.9774  123769942.520 5  96444125.67342
     -3078.167       -2398.612
  21767237.931    21767237.5264   21767236.8404  114387609.568 8  89133215.77245
      1285.506        1001.694
  22858178.122    22858177.9794   22858179.5814  120120544.876 7  93600442.00344
      3382.357        2635.594
  22365197.997    22365197.5124   22365199.1804  117529914.606 7  91581767.37545
      -134.278        -104.645
  22300588.053    22300588.2334   22300589.5634  117190400.963 7  91317208.87744
      2433.553        1896.276
 06  5  9 16 29 30.0000000  0 11G 3G 6G 7G 8G10G15G16G21G26G27G29
  22982643.037    22982642.5274   22982643.7604  120774605.089 7  94110107.94144
      2150.565        1675.787
  24572372.066    24572372.1284   24572373.8744  129128658.242 6 100619748.34143
     -3814.431       -2972.289
  22143083.877    22143083.7504   22143086.3454  116362687.609 7  90672237.11445
      -903.146        -703.757
  22525293.561    22525293.0714   22525294.6504  118371245.338 7  92237347.69945
      2171.880        1692.385
  21698345.402    21698344.0874   21698345.5374  114025558.848 8  88851098.82545
     -2558.330       -1993.512
  22771565.323    22771564.9944   22771567.1314  119665439.690 7  93245781.48344
      2874.024        2239.491
  23570248.530    23570247.5244   23570248.1424  123862466.504 5  96516222.21842
     -3091.276       -2408.757
  21759947.814    21759947.4244   21759946.5704  114349300.260 8  89103364.24645
      1267.394         987.571
  22838899.995    22838899.7954   22838901.7004  120019239.654 7  93521502.92344
      3370.206        2626.124
  22366013.274    22366012.7344   22366014.1694  117534199.110 7  91585105.96145
      -152.356        -118.732
  22286731.773    22286731.1174   22286731.7694  117117579.869 7  91260465.18545
      2419.969        1885.684
 06  5  9 16 30  0.0000000  0 11G 3G 6G 7G 8G10G15G16G21G26G27G29
  22970408.659    22970408.0904   22970409.4784  120710312.927 7  94060010.19844
      2134.791        1663.487
  24594159.575    24594159.9084   24594162.9004  129243156.439 6 100708967.70743
     -3819.789       -2976.453
  22148291.188    22148290.4344   22148291.9504  116390045.165 7  90693554.68545
      -921.576        -718.112
  22512938.653    22512937.8924   22512939.5034  118306318.827 7  92186755.65045
      2155.587        1679.673
  21712994.475    21712993.5854   21712994.8864  114102542.002 7  88911085.68245
     -2574.836       -2006.373
  22755190.977    22755189.9234   22755192.3254  119579388.719 7  93178728.68044
      2861.812        2229.979
  23587927.809    23587927.5534   23587927.6584  123955376.318 5  96588619.51341
     -3104.016       -2418.715
  21752760.948    21752760.4644   21752760.4104  114311533.298 8  89073935.44345
      1249.456         973.588
  22819690.049    22819690.7334   22819692.6874  119918294.317 7  93442844.25344
      3358.544        2617.047
  22366930.868    22366930.3004   22366931.2594  117539019.771 7  91588862.32945
      -170.074        -132.547
  22272953.264    22272952.7594   22272953.5384  117045174.504 7  91204045.43744
      2406.205        1874.953
 06  5  9 16 30 30.0000000  0 11G 3G 6G 7G 8G10G15G16G21G26G27G29
  22958264.623    22958264.2724   22958265.6624  120646495.934 7  94010282.63444
      2119.023        1651.212
  24615977.530    24615977.4014   24615980.5314  129357808.097 6 100798306.62943
     -3824.407       -2980.062
  22153602.333    22153601.7384   22153604.0784  116417958.461 7  90715305.23445
      -939.989        -732.467
  22500677.307    22500676.8714   22500678.5064  118241887.202 7  92136549.20845
      2139.245        1666.953
  21727737.144    21727736.4854   21727737.8484  114180016.236 8  88971455.20645
     -2590.923       -2018.900
  22738884.599    22738883.8434   22738886.0334  119493699.371 7  93111957.71644
      2850.027        2220.796
  23605680.905    23605678.0634   23605680.1574  124048666.824 5  96661313.46641
     -3116.352       -2428.295
  21745677.241    21745676.6954   21745675.8614  114274307.574 8  89044928.36845
      1231.559         959.641
  22800550.102    22800550.0504   22800551.7204  119817709.649 7  93364466.65844
      3346.555        2607.684
  22367949.394    22367949.2454   22367950.3084  117544374.377 7  91593034.76245
      -187.605        -146.197
  22259253.674    22259253.2484   22259254.3704  116973184.697 7  91147949.48445
      2392.384        1864.190
 06  5  9 16 31  0.0000000  0 11G 3G 6G 7G 8G10G15G16G21G26G27G29
  22946211.337    22946210.7464   22946212.3774  120583153.917 8  93960925.16544
      2103.512        1639.111
  24637822.578    24637822.6674   24637825.1544  129472608.103 6 100887761.18243
     -3829.264       -2983.839
  22159019.170    22159018.4314   22159021.0834  116446424.041 7  90737486.14245
      -957.981        -746.475
  22488510.773    22488509.9104   22488511.1724  118177950.086 7  92086728.09445
      2123.008        1654.292
  21742572.573    21742571.9584   21742573.3864  114257976.430 8  89032203.40745
     -2606.691       -2031.188
  22722646.775    22722646.5474   22722648.8794  119408370.977 7  93045467.96344
      2838.352        2211.697
  23623504.493    23623505.0804   23623504.2014  124142332.345 5  96734299.52941
     -3128.553       -2437.823
  21738695.984    21738695.5514   21738694.8354  114237621.890 8  89016342.03745
      1213.862         945.867
  22781477.421    22781478.1374   22781479.5554  119717485.576 7  93286370.04444
      3334.931        2598.644
  22369069.993    22369069.6764   22369070.2264  117550259.928 8  91597620.92345
      -205.054        -159.805
  22245633.039    22245633.1584   22245634.6514  116901609.807 7  91092176.87345
      2378.956        1853.737
 06  5  9 16 31 30.0000000  0 11G 3G 6G 7G 8G10G15G16G21G26G27G29
  22934249.469    22934249.3154   22934250.8214  120520297.092 7  93911945.81344
      2086.714        1625.994
  24659697.769    24659697.6214   24659700.9314  129587561.388 6 100977335.07243
     -3834.640       -2988.027
  22164542.192    22164541.7674   22164544.4924  116475449.391 7  90760103.25645
      -977.063        -761.338
  22476440.537    22476439.5944   22476440.9174  118114517.662 7  92037300.25445
      2105.703        1640.816
  21757501.438    21757500.6064   21757502.3144  114336428.471 8  89093334.86045
     -2623.685       -2044.417
  22706480.098    22706479.8964   22706482.2324  119323414.532 7  92979268.17644
      2825.441        2201.655
  23641401.762    23641400.7154   23641400.9764  124236378.751 5  96807582.50941
     -3141.499       -2447.888
  21731819.612    21731819.2134   21731819.0484  114201485.976 8  88988184.13345
      1195.053         931.215
  22762476.613    22762476.5934   22762478.4194  119617633.343 7  93208563.17344
      3321.844        2588.461
  22370292.430    22370292.1594   22370292.9814  117556684.873 8  91602627.38345
      -223.437        -174.100
  22232093.796    22232093.7014   22232095.1464  116830460.025 7  91036735.54845
      2364.378        1842.368
 06  5  9 16 32  0.0000000  0 11G 3G 6G 7G 8G10G15G16G21G26G27G29
  22922382.443    22922382.3524   22922383.4414  120457935.945 7  93863352.69944
      2070.431        1613.321
  24681603.119    24681603.1524   24681606.0624  129702673.823 6 101067032.98844
     -3839.894       -2992.142
  22170173.928    22170173.4614   22170175.8764  116505041.986 7  90783162.38345
      -996.107        -776.191
  22464467.074    22464466.6074   22464467.6954  118051600.131 7  91988273.61045
      2088.383        1627.292
  21772525.000    21772524.3054   21772526.0414  114415378.506 7  89154854.37145
     -2640.070       -2057.206
  22690386.767    22690386.1224   22690388.5084  119238840.482 7  92913366.26444
      2812.409        2191.498
  23659370.695    23659371.0174   23659369.5904  124330811.249 5  96881166.29641
     -3154.268       -2457.940
  21725049.258    21725048.7854   21725049.2454  114165909.763 7  88960462.43445
      1176.371         916.635
  22743548.734    22743548.5534   22743549.7804  119518164.125 7  93131054.76744
      3308.993        2578.429
  22371618.786    22371618.7034   22371619.8234  117563657.330 7  91608060.48145
      -241.709        -188.356
  22218637.636    22218637.5334   22218638.4524  116759745.664 7  90981633.48145
      2349.511        1830.786
 06  5  9 16 32 30.0000000  0 11G 3G 6G 7G 8G10G15G16G21G26G27G29
  22910608.713    22910608.2764   22910609.7964  120396061.994 7  93815139.29544
      2053.821        1600.374
  24703536.412    24703536.0794   24703539.4594  129817932.055 6 101156844.59244
     -3844.707       -2995.846
  22175910.842    22175910.4424   22175912.7204  116535189.729 7  90806654.05345
     -1014.473        -790.492
  22452590.925    22452590.3264   22452591.0764  117989188.969 7  91939641.55545
      2071.884        1614.455
  21787641.138    21787640.2484   21787641.7704  114494813.199 8  89216751.53145
     -2656.178       -2069.751
  22674363.828    22674363.3664   22674365.8664  119154640.441 7  92847755.82844
      2800.068        2181.876
  23677410.744    23677411.1154   23677412.1364  124425616.175 5  96955040.28341
     -3166.399       -2467.337
  21718384.479    21718383.7804   21718383.4464  114130883.154 8  88933169.01445
      1158.081         902.418
  22724690.570    22724691.0294   22724693.1214  119419069.952 6  93053838.62644
      3296.516        2568.696
  22373048.172    22373047.9764   22373048.5844  117571166.174 8  91613911.53445
      -259.430        -202.145
  22205262.428    22205262.1894   22205263.0164  116689457.628 7  90926863.59645
      2335.631        1819.985
 06  5  9 16 33  0.0000000  0 11G 3G 6G 7G 8G10G15G16G21G26G27G29
  22898926.972    22898926.6824   22898927.6904  120334673.804 7  93767304.35444
      2037.930        1587.998
  24725495.742    24725495.3224   24725498.9834  129933329.817 6 101246764.83944
     -3849.345       -2999.467
  22181752.865    22181752.0614   22181754.3754  116565889.077 7  90830575.68445
     -1032.822        -804.813
  22440810.587    22440810.5084   22440811.3394  117927283.530 8  91891403.55145
      2054.633        1600.998
  21802847.804    21802847.1114   21802848.8624  114574726.621 8  89279021.72445
     -2671.975       -2082.065
  22658411.756    22658411.4424   22658413.9564  119070813.784 7  92782436.32744
      2787.579        2172.112
  23695521.640    23695522.2124   23695521.9344  124520787.432 5  97029199.72441
     -3178.651       -2476.939
  21711822.500    21711822.3504   21711822.9984  114096404.662 8  88906302.64445
      1139.869         888.217
  22705905.238    22705905.7494   22705907.0774  119320350.359 7  92976914.37644
      3284.002        2558.944
  22374577.900    22374577.6094   22374578.7794  117579207.947 7  91620177.87245
      -277.249        -216.055
  22191967.704    22191967.5174   22191968.9754  116619594.881 7  90872425.12345
      2321.464        1808.937
 06  5  9 16 33 30.0000000  0 11G 3G 6G 7G 8G10G15G16G21G26G27G29
  22887339.373    22887338.9754   22887340.1694  120273780.438 7  93719854.94744
      2021.385        1575.105
  24747482.468    24747482.4364   24747485.6904  130048871.620 7 101336797.39044
     -3853.792       -3002.942
  22187701.050    22187700.2214   22187702.3214  116597145.792 7  90854931.54445
     -1051.269        -819.171
  22429127.495    22429127.1124   22429128.6964  117865892.868 7  91843566.67745
      2037.666        1587.781
  21818146.831    21818146.2264   21818148.2564  114655123.484 8  89341668.62345
     -2688.126       -2094.655
  22642532.927    22642533.1194   22642535.3204  118987370.127 7  92717415.20644
      2775.024        2162.340
  23713702.686    23713703.7744   23713703.9644  124616329.171 5  97103647.73841
     -3190.853       -2486.392
  21705368.149    21705367.4134   21705367.6064  114062482.452 7  88879869.70545
      1121.316         873.735
  22687193.383    22687193.1914   22687194.3304  119222015.402 7  92900289.82344
      3271.403        2549.129
  22376211.422    22376210.7074   22376211.9374  117587789.706 7  91626864.95845
      -295.257        -230.080
  22178755.563    22178755.8124   22178757.0524  116550166.477 7  90818325.11245
      2306.954        1797.610
 06  5  9 16 34  0.0000000  0 11G 3G 6G 7G 8G10G15G16G21G26G27G29
  22875845.113    22875845.3144   22875846.8594  120213382.513 7  93672791.65544
      2004.984        1562.302
  24769495.860    24769496.0214   24769499.1694  130164553.060 6 101426938.78144
     -3858.421       -3006.572
  22193754.273    22193753.7424   22193756.1454  116628957.180 7  90879719.62545
     -1069.682        -833.524
  22417543.550    22417543.6384   22417544.8104  117805017.714 7  91796131.50845
      2020.522        1574.435
  21833537.895    21833536.6334   21833538.2594  114735999.907 8  89404689.20445
     -2703.902       -2106.944
  22626727.321    22626726.9654   22626729.8694  118904310.043 6  92652692.98244
      2762.210        2152.366
  23731952.305    23731954.0374   23731955.6894  124712236.915 5  97178380.96241
     -3202.934       -2495.822
  21699018.824    21699018.0604   21699018.1124  114029116.460 7  88853870.25845
      1102.913         859.422
  22668554.247    22668553.9944   22668555.1914  119124066.297 7  92823965.94944
      3258.308        2538.935
  22377946.935    22377946.2634   22377947.2804  117596909.447 7  91633971.24045
      -313.048        -243.934
  22165626.484    22165626.4714   22165627.7824  116481172.546 7  90764563.62545
      2292.591        1786.431
 06  5  9 16 34 30.0000000  0 12G 3G 6G 7G 8G10G15G16G18G21G26G27G29
  22864447.039    22864446.3814   22864448.1854  120153481.798 7  93626115.73844
      1988.475        1549.456
  24791535.503    24791535.6084   24791538.0224  130280370.974 7 101517186.44544
     -3862.989       -3010.113
  22199912.770    22199912.7154   22199914.9454  116661322.289 7  90904939.21645
     -1088.077        -847.837
  22406058.580    22406057.9384   22406059.2044  117744659.881 7  91749099.44245
      2003.323        1561.052
  21849018.794    21849017.6224   21849019.3064  114817353.233 7  89468081.39145
     -2719.660       -2119.211
  22610995.199    22610994.2084   22610996.8634  118821636.427 7  92588272.08444
      2749.472        2142.452
  23750273.463    23750273.8714   23750275.0944  124808507.926 4  97253397.21641
     -3214.442       -2504.671
  24923850.911                                   130975714.626 3
      3511.412
  21692775.151    21692774.6934   21692775.5364  113996307.814 8  88828305.02345
      1084.468         845.053
  22649988.076    22649988.4194   22649989.9294  119026505.594 7  92747944.69244
      3245.484        2528.954
  22379783.570    22379783.6254   22379785.0324  117606566.865 7  91641496.50345
      -330.804        -257.756
  22152580.231    22152580.3424   22152581.4074  116412614.918 7  90711142.12545
      2278.027        1775.108
 06  5  9 16 35  0.0000000  0 12G 3G 6G 7G 8G10G15G16G18G21G26G27G29
  22853143.505    22853143.0204   22853144.2004  120094079.522 7  93579828.28544
      1971.698        1536.413
  24813600.660    24813600.1614   24813603.5934  130396321.869 7 101607537.80244
     -3867.287       -3013.462
  22206177.062    22206176.2834   22206178.7644  116694239.006 7  90930588.62545
     -1106.586        -862.254
  22394670.935    22394670.4934   22394672.2044  117684820.396 7  91702471.29745
      1985.926        1547.487
  21864589.079    21864588.5324   21864590.2984  114899179.569 7  89531842.15845
     -2735.510       -2131.558
  22595336.574    22595335.8404   22595338.9494  118739349.901 7  92524152.63744
      2736.119        2132.060
  23768662.733    23768662.3154   23768662.8344  124905138.215 4  97328693.57541
     -3226.785       -2514.363
  24903816.955                                   130870424.254 4
      3507.786
  21686638.325    21686637.9094   21686637.6894  113964056.565 7  88803174.17645
      1065.597         830.338
  22631497.132    22631497.1404   22631498.8994  118929335.144 7  92672227.54244
      3232.121        2518.540
  22381724.438    22381723.9344   22381725.0984  117616760.544 7  91649439.62345
      -348.689        -271.687
  22139617.895    22139617.4674   22139618.3664  116344494.516 7  90658061.31245
      2263.221        1763.562
 06  5  9 16 35 30.0000000  0 12G 3G 6G 7G 8G10G15G16G18G21G26G27G29
  22841934.101    22841934.1854   22841935.7994  120035178.156 7  93533931.16144
      1954.885        1523.296
  24835690.264    24835689.9244   24835692.4374  130512403.532 7 101697991.03444
     -3871.777       -3016.965
  22212545.812    22212545.3414   22212547.0424  116727707.021 7  90956667.64445
     -1124.878        -876.540
  22383383.278    22383382.5894   22383384.0044  117625501.825 7  91656249.03045
      1968.452        1533.865
  21880250.141    21880249.4844   21880250.9834  114981477.501 8  89595970.40745
     -2751.209       -2143.814
  22579752.467    22579752.0384   22579754.1174  118657453.990 7  92460337.67844
      2723.141        2121.900
  23787120.027    23787118.7234   23787118.2854  125002125.323 4  97404267.85941
     -3239.070       -2523.864
  24883798.878                                   130765240.806 4
      3504.081
  21680607.098    21680606.6924   21680606.8184  113932364.795 7  88778479.35945
      1046.971         815.808
  22613080.893    22613081.1254   22613083.3794  118832558.507 7  92596817.25244
      3219.011        2508.292
  22383765.879    22383765.7554   22383766.8184  117627490.810 7  91657800.87745
      -366.761        -285.792
  22126738.308    22126738.2724   22126739.0524  116276813.771 7  90605323.07245
      2248.616        1752.171
 06  5  9 16 36  0.0000000  0 12G 3G 6G 7G 8G10G15G16G18G21G26G27G29
  22830822.430    22830822.9644   22830824.2194  119976786.699 6  93488431.28744
      1937.970        1510.096
  24857805.350    24857805.1614   24857807.9294  130628620.166 7 101788549.40444
     -3876.240       -3020.452
  22219020.568    22219020.1834   22219021.8694  116761732.273 7  90983180.82645
     -1143.547        -891.090
  22372195.396    22372195.1874   22372197.0974  117566713.479 7  91610439.93745
      1950.560        1519.939
  21896001.853    21896000.8834   21896002.1344  115064251.299 7  89660469.45745
     -2767.170       -2156.231
  22564244.033    22564243.4474   22564245.9204  118575958.015 7  92396834.44144
      2709.675        2111.401
  23805643.511    23805641.3594   23805644.5384  125099473.541 4  97480123.60541
     -3251.037       -2533.308
  24863806.334                                   130660173.438 4
      3500.054
  21674684.765    21674684.2224   21674684.5524  113901240.844 8  88754227.00745
      1027.941         800.982
  22594742.594    22594742.1574   22594743.3404  118736185.405 7  92521721.37044
      3205.655        2497.909
  22385911.308    22385910.8234   22385912.1544  117638764.479 7  91666585.55845
      -384.901        -299.918
  22113945.129    22113944.5304   22113945.5004  116209581.695 7  90552934.43145
      2233.419        1740.317
 06  5  9 16 36 30.0000000  0 12G 3G 6G 7G 8G10G15G16G18G21G26G27G29
  22819807.044    22819806.7684   22819808.8964  119918898.543 6  93443323.67344
      1920.922        1496.824
  24879944.115    24879943.9094   24879946.5674  130744960.408 7 101879204.16544
     -3880.240       -3023.566
  22225599.659    22225598.9984   22225601.0774  116796304.533 7  91010120.20445
     -1161.774        -905.284
  22361108.866    22361108.6194   22361109.6654  117508448.491 7  91565038.66345
      1933.188        1506.382
  21911841.211    21911840.4774   21911841.8764  115147489.830 7  89725330.62745
     -2782.663       -2168.292
  22548811.009    22548810.5384   22548812.6174  118494855.334 7  92333637.57844
      2696.600        2101.262
  23824234.908    23824230.4504   23824233.3314  125197171.367 4  97556251.59241
     -3262.618       -2542.188
  24843832.363                                   130555214.889 4
      3496.532
  21668868.015    21668867.6004   21668868.2574  113870676.457 8  88730410.63645
      1009.159         786.371
  22576478.731    22576478.7874   22576480.1064  118640209.828 7  92446935.23544
      3192.300        2487.506
  22388158.044    22388157.8064   22388159.2854  117650572.223 7  91675786.39645
      -402.640        -313.733
  22101235.210    22101234.8444   22101236.0494  116142791.266 7  90500889.92745
      2218.692        1728.857
 06  5  9 16 37  0.0000000  0 12G 3G 6G 7G 8G10G15G16G18G21G26G27G29
  22808887.456    22808886.7334   22808888.7274  119861514.483 6  93398608.83944
      1904.003        1483.633
  24902105.763    24902105.4014   24902107.8604  130861420.438 7 101969952.20944
     -3884.237       -3026.675
  22232281.968    22232281.4024   22232283.6784  116831422.325 7  91037484.71245
     -1179.994        -919.490
  22350120.764    22350120.4304   22350121.6924  117450708.094 7  91520046.15845
      1915.601        1492.684
  21927768.810    21927768.3084   21927769.6534  115231189.493 7  89790551.13345
     -2798.050       -2180.296
  22533452.527    22533451.9784   22533454.1284  118414147.318 7  92270748.25244
      2683.362        2090.922
  23842889.542    23842890.8904   23842890.4644  125295215.007 4  97632649.38141
     -3274.469       -2551.534
  24823879.275                                   130450366.353 4
      3492.302
  21663158.631    21663158.1954   21663158.4424  113840672.427 8  88707030.93045
       990.408         771.746
  22558291.588    22558290.9294   22558292.4124  118544633.687 7  92372460.39844
      3178.852        2477.017
  22390506.408    22390506.1054   22390507.2944  117662912.967 7  91685402.56245
      -420.566        -327.703
  22088609.476    22088609.2884   22088610.4134  116076443.440 7  90449190.33145
      2203.852        1717.275
 06  5  9 16 37 30.0000000  0 12G 3G 6G 7G 8G10G15G16G18G21G26G27G29
  22798063.291    22798063.3144   22798064.6604  119804636.210 6  93354288.09344
      1887.509        1470.785
  24924288.526    24924289.0064   24924291.4474  130977997.091 6 102060791.08643
     -3887.797       -3029.475
  22239067.628    22239067.6294   22239070.1064  116867084.080 7  91065273.05945
     -1197.787        -933.348
  22339233.270    22339232.9224   22339234.5384  117393494.170 7  91475463.88945
      1898.243        1479.153
  21943783.861    21943783.1774   21943784.0634  115315347.676 7  89856128.92445
     -2812.860       -2191.840
  22518169.846    22518169.1234   22518171.8804  118333836.466 7  92208168.41044
      2670.323        2080.790
  23861612.078    23861609.6214   23861610.2514  125393600.459 4  97709313.43441
     -3285.065       -2559.855
  24803951.021                                   130345629.453 4
      3489.179
  21657555.688    21657555.3344   21657555.6104  113811229.620 7  88684088.50645
       971.888         757.317
  22540179.696    22540180.1854   22540181.5754  118449459.660 7  92298298.89344
      3165.610        2466.702
  22392956.968    22392956.1964   22392957.0584  117675786.059 8  91695433.52845
      -438.099        -341.361
  22076068.634    22076068.2744   22076069.0234  116010539.769 7  90397836.82645
      2189.185        1705.869
 06  5  9 16 38  0.0000000  0 12G 3G 6G 7G 8G10G15G16G18G21G26G27G29
  22787335.627    22787335.4304   22787336.7234  119748260.792 6  93310359.24744
      1870.464        1457.491
  24946493.627    24946493.5564   24946496.4044  131094682.524 6 102151714.67443
     -3891.443       -3032.297
  22245957.313    22245956.4204   22245958.3704  116903283.248 7  91093480.13445
     -1215.669        -947.281
  22328445.817    22328445.3494   22328446.5234  117336803.490 7  91431289.33345
      1880.863        1465.617
  21959884.280    21959883.6464   21959884.9124  115399956.582 7  89922057.91545
     -2827.950       -2203.583
  22502962.061    22502961.7264   22502963.8014  118253919.948 7  92145895.89644
      2657.203        2070.558
  23880394.056    23880399.4004   23880400.7334  125492320.252 3  97786237.77141
     -3296.723       -2568.856
  24784038.562                                   130241001.020 4
      3485.636
  21652058.834    21652058.4444   21652058.8354  113782343.680 7  88661580.01145
       953.342         742.874
  22522144.944    22522144.9484   22522146.3264  118354685.237 7  92224448.77744
      3152.135        2456.210
  22395506.754    22395506.0474   22395507.0414  117689186.006 8  91705875.03945
      -455.619        -355.032
  22063611.322    22063610.9704   22063611.7394  115945076.859 7  90346826.78645
      2174.501        1694.425
 06  5  9 16 38 30.0000000  0 12G 3G 6G 7G 8G10G15G16G18G21G26G27G29
  22776705.215    22776705.0524   22776707.4684  119692400.235 6  93266831.56344
      1852.715        1443.664
  24968720.523    24968720.8264   24968723.2704  131211484.566 6 102242729.18543
     -3895.819       -3035.663
  22252949.693    22252949.0674   22252950.6224  116940029.270 7  91122113.33245
     -1234.481        -961.920
  22317759.573    22317759.2554   22317760.3814  117280648.422 7  91387532.13845
      1862.292        1451.140
  21976072.107    21976071.4544   21976072.7864  115485023.863 7  89988344.08245
     -2843.771       -2215.920
  22487832.170    22487831.5634   22487833.4784  118174409.900 7  92083940.06044
      2642.967        2059.474
  23899250.845    23899250.7474   23899248.8584  125591381.654 4  97863428.48341
     -3308.551       -2578.173
  24764150.969                                   130136493.332 4
      3480.920
  21646670.170    21646669.9454   21646669.9824  113754025.902 8  88639514.23145
       933.837         727.658
  22504188.698    22504188.6734   22504189.3524  118260323.259 7  92150920.02544
      3137.983        2445.205
  22398158.581    22398158.2324   22398159.0444  117703122.581 7  91716734.70345
      -473.972        -369.342
  22051240.124    22051240.1374   22051241.1254  115880066.990 7  90296169.78045
      2158.705        1682.103
 06  5  9 16 39  0.0000000  0 12G 3G 6G 7G 8G10G15G16G18G21G26G27G29
  22766170.597    22766170.5004   22766172.7014  119637040.305 6  93223693.99544
      1836.625        1431.148
  24990966.260    24990966.1664   24990969.1774  131328384.002 6 102333819.52343
     -3898.315       -3037.622
  22260043.359    22260042.4174   22260043.8944  116977304.699 8  91151159.07945
     -1251.545        -975.234
  22307172.514    22307172.3524   22307174.0144  117225014.606 8  91344181.11045
      1845.626        1438.138
  21992343.908    21992342.8854   21992344.4944  115570530.831 7  90054972.85745
     -2857.503       -2226.629
  22472776.287    22472775.8714   22472778.1784  118095293.061 7  92022290.60644
      2630.492        2049.716
  23918164.139    23918162.6414   23918163.7414  125690765.361 4  97940870.32541
     -3317.903       -2585.390
  24744286.330                                   130032091.866 5
      3478.479
  21641386.958    21641386.4834   21641386.5834  113726261.482 8  88617879.65145
       916.070         713.805
  22486308.485    22486308.0454   22486308.9774  118166360.538 7  92077702.35544
      3125.213        2435.219
  22400909.870    22400909.2354   22400910.0474  117717579.133 7  91727999.53445
      -490.717        -382.378
  22038952.041    22038951.9894   22038953.7214  115815495.689 7  90245854.51645
      2144.702        1671.186
 06  5  9 16 39 30.0000000  0 12G 3G 6G 7G 8G10G15G16G18G21G26G27G29
  22755732.051    22755732.4144   22755734.3234  119582185.385 6  93180949.92044
      1819.921        1418.110
  25013230.188    25013230.1274   25013232.9424  131445380.996 6 102424985.96743
     -3901.730       -3040.323
  22267236.932    22267236.3834   22267238.6984  117015110.958 7  91180618.48645
     -1269.216        -988.985
  22296685.882    22296685.5084   22296687.2024  117169906.655 7  91301239.84945
      1828.048        1424.455
  22008698.542    22008697.8284   22008699.0564  115656477.611 8  90121944.34645
     -2872.338       -2238.178
  22457796.863    22457796.3864   22457798.4184  118016574.185 7  91960951.27244
      2617.143        2039.333
  23937135.440    23937137.9864   23937132.0684  125790471.301 4  98018563.28141
     -3329.458       -2594.383
  24724440.097                                   129927801.665 5
      3474.534
  21636209.511    21636209.5774   21636209.5924  113699054.259 8  88596679.25845
       897.482         699.341
  22468504.318    22468504.3624   22468505.3534  118072802.492 7  92004799.99844
      3111.598        2424.624
  22403759.910    22403759.3434   22403760.5614  117732557.775 7  91739671.19845
      -508.124        -395.950
  22026749.448    22026749.2574   22026750.2154  115751367.317 7  90195884.39545
      2130.081        1659.808
 06  5  9 16 40  0.0000000  0 13G 3G 6G 7G 8G10G15G16G18G19G21G26G27
                                G29
  22745390.524    22745390.4534   22745392.4714  119527837.798 6  93138601.14344
      1802.800        1404.798
  25035512.586    25035512.2814   25035514.7484  131562472.995 6 102516226.40742
     -3905.091       -3042.921
  22274532.587    22274531.9874   22274534.2444  117053447.144 8  91210490.75245
     -1287.007       -1002.845
  22286300.022    22286299.7514   22286301.1254  117115327.229 7  91258710.42745
      1810.207        1410.553
  22025137.194    22025136.3374   22025137.5664  115742862.118 7  90189256.92645
     -2887.025       -2249.613
  22442893.264    22442892.9864   22442894.8314  117938256.190 7  91899924.29544
      2603.610        2028.803
  23956169.850    23956163.9814   23956165.5854  125890496.453 4  98096504.71841
     -3339.488       -2602.104
  24704615.909                                   129823624.862 5
      3470.404
  25236569.551    25236570.9614   25236570.2704  132619084.352 5 103339555.31042
      3369.419        2625.540
  21631138.914    21631138.4424   21631138.0524  113672405.653 8  88575914.13345
       878.682         684.711
  22450778.206    22450778.4834   22450779.6314  117979652.453 7  91932215.55344
      3097.852        2413.903
  22406709.804    22406709.2394   22406709.7964  117748058.231 7  91751749.47945
      -525.676        -409.621
  22014631.381    22014630.8734   22014631.5564  115687684.067 7  90146261.10845
      2115.115        1648.143
 06  5  9 16 40 30.0000000  0 13G 3G 6G 7G 8G10G15G16G18G19G21G26G27
                                G29
  22735147.413    22735146.6584   22735149.2044  119474007.950 7  93096655.81944
      1785.615        1391.378
  25057813.657    25057813.4034   25057816.2634  131679665.772 6 102607545.38642
     -3908.440       -3045.521
  22281929.912    22281929.2134   22281931.1824  117092320.500 7  91240781.58445
     -1304.883       -1016.789
  22276016.511    22276016.1054   22276017.3714  117061286.328 8  91216600.63545
      1792.251        1396.562
  22041660.054    22041659.2174   22041660.5644  115829689.835 7  90256914.86245
     -2901.631       -2261.008
  22428067.971    22428067.7324   22428069.1774  117860349.774 7  91839218.01244
      2589.846        2018.065
  23975265.816    23975265.9644   23975269.6124  125990846.434 4  98174699.18041
     -3350.714       -2610.988
  24684813.802                                   129719572.019 5
      3466.462
  25217350.332    25217350.2904   25217350.3944  132518077.384 5 103260848.61242
      3364.238        2621.492
  21626175.773    21626175.4764   21626175.1944  113646325.148 8  88555591.67445
       859.800         669.967
  22433132.361    22433132.4504   22433133.5834  117886921.261 7  91859957.48844
      3083.736        2402.896
  22409759.852    22409759.4274   22409760.3904  117764088.827 7  91764240.84945
      -543.318        -423.361
  22002599.082    22002599.0294   22002599.4634  115624456.065 7  90096992.55845
      2099.851        1636.231
 06  5  9 16 41  0.0000000  0 12G 3G 7G 8G10G15G16G18G19G21G26G27G29
  22724999.338    22724998.8294   22725001.1204  119420681.654 6  93055102.85444
      1768.474        1378.065
  22289426.283    22289425.9074   22289427.1014  117131713.803 8  91271477.60645
     -1322.361       -1030.421
  22265833.042    22265832.4644   22265833.9674  117007770.042 8  91174899.64145
      1774.445        1382.702
  22058263.386    22058262.7514   22058264.4734  115916942.463 7  90324903.89045
     -2916.025       -2272.209
  22413318.511    22413318.0114   22413320.0464  117782841.227 6  91778821.79144
      2576.302        2007.523
  23994417.912    23994419.3154   23994424.1454  126091502.745 4  98253132.43441
     -3360.516       -2618.555
  24665035.273                                   129615629.090 5
      3462.465
  25198156.233    25198154.3434   25198154.6784  132417205.450 6 103182247.17242
      3359.367        2617.685
  21621318.342    21621317.6494   21621317.7534  113620797.412 8  88535699.89846
       841.101         655.404
  22415563.328    22415563.6514   22415564.6164  117794595.955 7  91788015.77544
      3070.046        2392.240
  22412908.061    22412907.9064   22412908.7104  117780632.868 7  91777132.31845
      -560.599        -436.829
  21990651.046    21990650.8794   21990651.3514  115561669.230 7  90048067.76045
      2084.844        1624.555
 06  5  9 16 41 30.0000000  0 12G 3G 7G 8G10G15G16G18G19G21G26G27G29
  22714950.846    22714950.4994   22714952.0364  119367876.133 6  93013955.71844
      1751.472        1364.776
  22297024.176    22297023.7664   22297025.3054  117171641.111 7  91302589.76745
     -1339.603       -1043.833
  22255751.938    22255751.7474   22255752.7344  116954795.607 8  91133620.86945
      1756.784        1368.913
  22074950.417    22074949.7954   22074951.1164  116004632.782 7  90393233.99545
     -2930.038       -2283.154
  22398648.635    22398647.7164   22398649.7964  117705748.275 7  91718749.41044
      2562.993        1997.139
  24013635.822    24013633.8404   24013634.1094  126192477.529 4  98331813.90341
     -3371.459       -2627.162
  24645279.559                                   129511813.199 5
      3458.773
  25178990.871    25178989.7854   25178988.3734  132316486.369 6 103103764.85942
      3354.601        2613.991
  21616568.561    21616568.1324   21616567.7004  113595838.984 8  88516251.74245
       822.493         640.893
  22398075.195    22398074.9414   22398076.1734  117702694.369 7  91716404.21144
      3056.421        2381.617
  22416157.147    22416156.8094   22416157.4804  117797705.383 7  91790435.56145
      -577.809        -450.234
  21978789.586    21978789.6174   21978790.5624  115499340.637 7  89999500.04645
      2069.941        1612.937
 06  5  9 16 42  0.0000000  0 12G 3G 7G 8G10G15G16G18G19G21G26G27G29
  22705000.002    22705000.0224   22705001.4534  119315585.824 7  92973210.04044
      1734.510        1351.559
  22304722.036    22304721.6404   22304723.1954  117212094.113 8  91334111.56345
     -1357.110       -1057.488
  22245773.237    22245772.9044   22245774.5424  116902357.608 7  91092760.08945
      1739.045        1355.102
  22091719.343    22091718.4124   22091719.8484  116092751.141 7  90461897.63145
     -2944.152       -2294.147
  22384056.330    22384055.8404   22384058.1574  117629066.140 7  91658997.12744
      2549.123        1986.337
  24032910.095    24032909.3594   24032908.9184  126293760.849 4  98410735.80641
     -3380.487       -2634.199
  24625548.365    24625547.4334   24625549.9624  129408119.340 5 100837514.70341
      3454.307        2691.731
  25159851.572    25159850.5104   25159850.4884  132215915.326 6 103025397.85242
      3349.871        2610.292
  21611926.366    21611926.0064   21611925.8334  113571443.891 8  88497242.58146
       803.867         626.394
  22380666.270    22380666.3924   22380667.5924  117611212.201 7  91645119.41944
      3041.987        2370.372
  22419504.563    22419504.3224   22419505.5214  117815298.411 7  91804144.39545
      -595.033        -463.665
  21967015.218    21967014.9604   21967016.1924  115437464.735 7  89951285.09745
      2055.129        1601.400
 06  5  9 16 42 30.0000000  0 12G 3G 7G 8G10G15G16G18G19G21G26G27G29
  22695147.595    22695147.7304   22695149.0914  119263809.512 7  92932864.86144
      1717.051        1337.953
  22312519.456    22312518.7824   22312520.2944  117253068.178 8  91366039.40345
     -1374.797       -1071.272
  22235897.168    22235896.3534   22235897.6424  116850454.789 8  91052316.35745
      1720.870        1340.950
  22108567.486    22108566.4994   22108568.5174  116181291.519 7  90530890.11645
     -2958.673       -2305.450
  22369542.152    22369541.6654   22369544.0424  117552793.613 7  91599563.97545
      2535.272        1975.556
  24052239.614    24052233.8834   24052239.1624  126395346.669 3  98489893.54141
     -3391.934       -2643.015
  24605838.643    24605835.7914   24605838.1834  129304546.170 5 100756808.41941
      3450.056        2688.343
  25140740.510    25140739.8234   25140740.4824  132115491.484 6 102947145.51143
      3344.827        2606.376
  21607390.793    21607390.1134   21607390.4954  113547609.851 8  88478670.63745
       784.715         611.476
  22363338.101    22363338.0414   22363339.0974  117520148.896 7  91574161.00644
      3027.987        2359.496
  22422951.219    22422950.4824   22422951.9234  117833408.189 7  91818255.89345
      -612.628        -477.381
  21955326.731    21955326.6414   21955327.4774  115376040.194 7  89903421.87245
      2039.756        1589.424
 06  5  9 16 43  0.0000000  0 11G 3G 7G 8G10G15G18G19G21G26G27G29
  22685394.640    22685394.5664   22685395.9704  119212557.607 7  92892928.32144
      1698.999        1323.892
  22320416.732    22320416.4354   22320417.5594  117294570.768 7  91398379.07945
     -1392.935       -1085.403
  22226123.667    22226123.3004   22226124.5924  116799097.785 7  91012297.92045
      1702.093        1326.301
  22125497.025    22125496.6754   22125498.5844  116270259.976 7  90600216.17145
     -2973.368       -2316.907
  22355108.682    22355107.8334   22355109.8654  117476942.067 7  91540458.88645
      2520.586        1964.089
  24586152.587    24586152.5274   24586152.2224  129201104.627 5 100676204.70641
      3445.174        2684.542
  25121660.734    25121659.8854   25121660.0434  132015225.383 6 102869016.09443
      3339.017        2601.830
  21602963.533    21602963.2374   21602962.8024  113524346.435 7  88460543.26345
       765.280         596.327
  22346091.262    22346090.8904   22346092.2854  117429516.149 7  91503538.07745
      3013.213        2347.963
  22426497.157    22426496.7154   22426497.8984  117852043.183 7  91832776.65645
      -630.602        -491.372
  21943725.707    21943725.7594   21943726.5994  115315077.405 7  89855918.42145
      2023.763        1576.959
 06  5  9 16 43 30.0000000  0 11G 3G 7G 8G10G15G18G19G21G26G27G29
  22675741.664    22675740.9144   22675743.1934  119161829.490 7  92853399.94244
      1682.044        1310.693
  22328414.239    22328414.0884   22328415.2574  117336598.134 8  91431127.66945
     -1409.695       -1098.464
  22216454.380    22216453.8764   22216455.4424  116748285.987 7  90972704.32345
      1684.424        1312.529
  22142508.374    22142507.4314   22142509.1354  116359651.323 7  90669871.74045
     -2986.958       -2327.515
  22340753.851    22340753.6534   22340755.6824  117401511.233 7  91481681.63145
      2507.173        1953.640
  24566492.980    24566493.2744   24566494.0364  129097793.927 5 100595702.95341
      3441.211        2681.447
  25102611.590    25102610.7264   25102610.4294  131915117.331 6 102791009.82443
      3334.024        2597.926
  21598645.097    21598644.9244   21598644.8144  113501652.104 8  88442859.35845
       746.893         581.982
  22328925.788    22328926.1924   22328927.7014  117339313.864 7  91433250.52445
      2999.650        2337.396
  22430142.542    22430142.0624   22430143.1364  117871200.009 7  91847704.05345
      -647.318        -504.393
  21932212.749    21932212.4354   21932213.3164  115254575.565 7  89808774.15545
      2008.950        1565.426
 06  5  9 16 44  0.0000000  0 11G 3G 7G 8G10G15G18G19G21G26G27G29
  22666188.327    22666188.1804   22666189.9814  119111626.882 7  92814281.04545
      1664.870        1297.312
  22336511.669    22336511.1064   22336512.4094  117379148.621 8  91464283.89945
     -1426.846       -1111.833
  22206889.421    22206888.9454   22206890.5364  116698021.122 7  90933536.91445
      1666.464        1298.536
  22159599.067    22159597.9424   22159599.9184  116449463.031 7  90739854.86845
     -3000.545       -2338.088
  22326481.073    22326480.0534   22326482.0764  117326503.390 8  91423233.95845
      2493.390        1942.899
  24546858.786    24546859.2894   24546860.3074  128994616.177 5 100515304.75541
      3437.223        2678.358
  25083592.019    25083590.4434   25083591.5184  131815169.802 6 102713128.69443
      3329.050        2594.065
  21594434.705    21594434.3994   21594434.7304  113479527.955 7  88425619.78445
       728.133         567.367
  22311843.117    22311843.3264   22311844.9694  117249544.961 7  91363300.76745
      2985.156        2326.098
  22433886.800    22433886.5674   22433888.0164  117890878.301 7  91863037.78445
      -664.514        -517.800
  21920787.427    21920787.5194   21920788.2934  115194536.255 7  89761990.30445
      1993.779        1553.598
 06  5  9 16 44 30.0000000  0 12G 3G 7G 8G10G15G16G18G19G21G26G27G29
  22656735.689    22656735.4784   22656736.7494  119061950.649 7  92775572.28945
      1646.599        1283.060
  22344708.122    22344707.4984   22344709.1374  117422220.245 8  91497846.18345
     -1444.853       -1125.870
  22197428.639    22197428.2224   22197429.5494  116648304.119 8  90894796.41745
      1647.610        1283.847
  22176768.337    22176767.6984   22176769.2644  116539691.504 7  90810162.75245
     -3015.083       -2349.420
  22312287.989    22312287.1134   22312289.2984  117251920.150 7  91365117.17645
      2478.602        1931.373
  24130144.209                                   126804757.656 4
     -3431.577
  24527249.963    24527248.3514   24527250.8164  128891572.910 5 100435011.42341
      3432.283        2674.535
  25064603.154    25064601.7304   25064602.2244  131715384.277 6 102635373.72943
      3322.875        2589.241
  21590333.835    21590333.1224   21590332.6584  113457973.734 7  88408824.31245
       708.404         552.009
  22294843.644    22294843.7034   22294845.2894  117160211.297 7  91293690.12144
      2970.107        2314.356
  22437730.503    22437730.4224   22437731.4254  117911076.730 7  91878776.81645
      -682.446        -531.765
  21909450.627    21909450.6094   21909451.5044  115134960.585 7  89715567.73745
      1977.606        1540.981
 06  5  9 16 45  0.0000000  0 12G 3G 7G 8G10G15G16G18G19G21G26G27G29
  22647384.181    22647383.7074   22647385.4224  119012809.997 7  92737280.87145
      1629.050        1269.380
  22353004.085    22353003.6374   22353005.8724  117465819.232 7  91531819.41845
     -1462.185       -1139.367
  22188073.420    22188073.3254   22188074.8494  116599144.215 7  90856490.01845
      1629.442        1269.698
  22194018.771    22194017.6994   22194019.4314  116630341.522 7  90880799.11045
     -3028.531       -2359.896
  22298177.591    22298177.1324   22298179.2294  117177770.995 7  91307338.60944
      2464.389        1920.342
  24149761.257                                   126907849.900 4
     -3441.298
  24507669.068    24507669.7104   24507668.9474  128788673.328 5 100354830.01441
      3427.573        2670.778
  25045647.128    25045645.9294   25045646.4254  131615770.265 6 102557752.33643
      3317.276        2584.898
  21586341.809    21586341.4654   21586341.4414  113436997.918 8  88392479.49745
       689.451         537.242
  22277929.289    22277928.9714   22277930.3984  117071323.238 7  91224426.75544
      2955.458        2302.943
  22441674.698    22441674.4934   22441675.3704  117931801.720 7  91894926.15745
      -699.590        -545.138
  21898204.025    21898203.7674   21898204.6414  115075857.466 7  89669513.39045
      1961.989        1528.830
 06  5  9 16 45 30.0000000  0 12G 3G 7G 8G10G15G16G18G19G21G26G27G29
  22638133.887    22638133.6914   22638135.8984  118964202.002 7  92699404.52345
      1610.727        1255.104
  22361400.734    22361399.9404   22361401.8194  117509939.268 7  91566198.68245
     -1479.978       -1153.219
  22178824.891    22178824.1514   22178825.1544  116550538.880 7  90818615.75545
      1610.377        1254.838
  22211347.467    22211346.7714   22211348.6794  116721405.984 7  90951758.40945
     -3042.947       -2371.126
  22284149.561    22284148.9294   22284151.3344  117104053.629 7  91249896.51944
      2449.438        1908.675
  24169431.915                                   127011235.040 4
     -3451.823
  24488114.925    24488112.9224   24488113.7214  128685914.505 5 100274758.25341
      3422.225        2666.780
  25026723.028    25026722.8764   25026722.5754  131516326.046 6 102480263.32643
      3311.154        2580.113
  21582460.148    21582459.6984   21582459.0784  113416596.857 8  88376582.56545
       669.779         521.908
  22261098.487    22261098.7874   22261100.1134  116982878.682 7  91155508.95145
      2940.056        2290.945
  22445717.672    22445717.4844   22445718.4864  117953048.182 7  91911481.84045
      -717.627        -559.184
  21887046.374    21887046.1584   21887046.9514  115017224.036 7  89623825.03145
      1946.012        1516.376
 06  5  9 16 46  0.0000000  0 12G 3G 7G 8G10G15G16G18G19G21G26G27G29
  22628987.951    22628987.3754   22628989.2914  118916136.278 7  92661950.75545
      1592.907        1241.207
  22369896.515    22369895.9104   22369898.0114  117554587.050 7  91600989.16745
     -1497.248       -1166.695
  22169682.207    22169681.8514   22169683.1584  116502497.393 7  90781180.84645
      1591.752        1240.316
  22228756.590    22228755.9974   22228757.5634  116812890.356 7  91023044.91745
     -3056.678       -2381.832
  22270205.193    22270205.2324   22270207.3694  117030778.408 7  91192798.92944
      2434.875        1897.308
  24189162.220                                   127114917.730 4
     -3461.323
  24468588.562    24468588.5564   24468589.6864  128583306.717 5 100194804.18841
      3417.269        2662.777
  25007834.245    25007833.5024   25007833.5154  131417061.560 6 102402914.37643
      3305.534        2575.736
  21578688.696    21578688.0724   21578687.7954  113396779.699 7  88361140.69645
       650.581         506.939
  22244354.422    22244354.4764   22244356.0644  116894888.213 7  91086944.97645
      2925.073        2279.277
  22449861.344    22449861.0214   22449862.2494  117974823.402 7  91928449.53345
      -734.815        -572.591
  21875979.968    21875979.7974   21875980.4844  114959069.900 7  89578510.14945
      1930.317        1504.137
 06  5  9 16 46 30.0000000  0 12G 3G 7G 8G10G15G16G18G19G21G26G27G29
  22619944.505    22619944.6984   22619945.7614  118868613.934 7  92624920.42245
      1574.946        1227.258
  22378492.550    22378492.0584   22378493.9544  117599760.076 7  91636188.89745
     -1514.563       -1180.174
  22160648.440    22160647.5364   22160648.6784  116455021.035 8  90744186.30745
      1573.145        1225.840
  22246245.342    22246244.2664   22246245.9164  116904790.901 7  91094655.69745
     -3070.250       -2392.389
  22256346.995    22256345.6844   22256348.0364  116957946.740 7  91136046.98744
      2420.269        1885.938
  24208947.803                                   127218893.964 4
     -3470.644
  24449093.033    24449092.5514   24449092.6274  128480851.078 6 100114968.71642
      3412.817        2659.370
  24988979.518    24988978.7604   24988978.8474  131317978.643 6 102325706.92143
      3299.702        2571.206
  21575028.870    21575028.5034   21575027.9684  113377545.653 8  88346153.14845
       631.448         492.039
  22227697.293    22227697.4124   22227698.2424  116807353.650 7  91018736.25944
      2910.107        2267.633
  22454105.267    22454104.7864   22454106.1764  117997125.825 7  91945828.03745
      -752.250        -586.161
  21865004.422    21865004.4884   21865005.6314  114901395.773 7  89533569.32045
      1914.505        1491.825
 06  5  9 16 47  0.0000000  0 12G 3G 7G 8G10G15G16G18G19G21G26G27G29
  22611004.850    22611004.7834   22611005.8474  118821635.269 7  92588313.68445
      1556.568        1212.907
  22387188.029    22387187.4824   22387189.5334  117645455.583 7  91671795.72145
     -1532.227       -1193.951
  22151721.372    22151721.0424   22151721.8724  116408110.249 8  90707632.46745
      1553.941        1210.847
  22263811.965    22263811.0004   22263812.4644  116997103.751 7  91166587.76645
     -3084.206       -2403.282
  22242572.051    22242571.2744   22242573.3784  116885559.984 7  91079641.76744
      2405.220        1874.178
  24228791.961                                   127323159.935 4
     -3480.646
  24429625.230    24429625.1804   24429624.7094  128378548.383 6 100035252.37942
      3407.277        2654.998
  24970159.219    24970158.3684   24970158.8034  131219078.250 6 102248641.71143
      3293.269        2566.155
  21571479.345    21571478.9494   21571478.6044  113358894.925 7  88331620.14045
       611.660         476.620
  22211127.311    22211127.2344   22211128.1194  116720276.341 7  90950883.83345
      2894.694        2255.591
  22458449.336    22458449.0924   22458450.1834  118019953.391 7  91963615.75745
      -769.900        -599.936
  21854120.766    21854120.8064   21854121.9014  114844202.104 7  89489002.86745
      1897.978        1478.930
 06  5  9 16 47 30.0000000  0 12G 3G 7G 8G10G15G16G18G19G21G26G27G29
  22602169.870    22602169.9004   22602171.0054  118775208.055 7  92552136.69345
      1538.590        1198.918
  22395983.458    22395983.1674   22395985.7744  117691678.775 7  91707813.76245
     -1549.244       -1207.195
  22142903.431    22142902.8884   22142904.2264  116361772.995 8  90671525.53245
      1535.268        1196.314
  22281457.326    22281456.3964   22281458.0114  117089832.362 7  91238843.79445
     -3097.620       -2413.722
  22228883.393    22228882.4724   22228884.6054  116813626.304 7  91023589.52844
      2390.514        1862.774
  24248687.836                                   127427718.476 4
     -3489.695
  24410187.794    24410187.8644   24410188.5254  128276406.797 6  99955661.58242
      3402.177        2651.073
  24951375.497    24951374.8204   24951374.6874  131120369.243 6 102171725.65743
      3287.549        2561.734
  21568042.721    21568042.1764   21568042.0254  113340834.297 7  88317546.92545
       592.446         461.651
  22194646.396    22194645.8674   22194646.6214  116633665.293 7  90883394.72745
      2879.673        2243.897
  22462893.858    22462893.9164   22462895.0194  118043311.561 7  91981816.91345
      -787.209        -613.396
  21843330.365    21843330.4494   21843331.5014  114787496.682 8  89444816.86045
      1882.296        1466.731
 06  5  9 16 48  0.0000000  0 12G 3G 7G 8G10G15G16G18G19G21G26G27G29
  22593441.928    22593441.5004   22593442.6204  118729340.779 7  92516396.03645
      1519.442        1183.963
  22404881.588    22404880.6404   22404882.7994  117738434.744 7  91744246.99845
     -1567.493       -1221.430
  22134196.592    22134196.1894   22134197.2234  116316017.554 7  90635871.95445
      1515.394        1180.823
  22299182.998    22299181.9894   22299183.5574  117182980.967 7  91311427.10445
     -3111.948       -2424.893
  22215282.935    22215281.8374   22215284.4564  116742154.989 7  90967897.62644
      2374.507        1850.275
  24268641.926                                   127532573.948 4
     -3499.913
  24390783.956    24390783.5424   24390783.3504  128174435.313 6  99876203.36142
      3396.024        2646.293
  24932629.589    24932629.1154   24932629.1264  131021860.227 6 102094965.43343
      3280.159        2555.970
  21564719.690    21564719.1644   21564719.2794  113323371.409 8  88303939.49445
       571.894         445.620
  22178255.210    22178255.0464   22178255.8374  116547530.045 7  90816276.34945
      2863.083        2230.961
  22467441.431    22467441.2414   22467442.3544  118067206.550 7  92000436.38745
      -805.587        -627.709
  21832634.342    21832634.1294   21832634.9444  114731287.983 7  89401017.90845
      1865.187        1453.398
 06  5  9 16 48 30.0000000  0 12G 3G 7G 8G10G15G16G18G19G21G26G27G29
  22584820.768    22584820.4744   22584821.6134  118684037.338 7  92481094.65645
      1500.292        1169.066
  22413879.986    22413879.6944   22413882.1714  117785724.446 7  91781096.12645
     -1585.502       -1235.446
  22125600.909    22125600.7544   22125602.1434  116270848.239 7  90600675.11245
      1495.400        1165.247
  22316988.358    22316987.3194   22316989.2864  117276549.444 7  91384337.58745
     -3126.343       -2436.109
  22201771.324    22201770.6424   22201772.4824  116671150.614 7  90912569.56544
      2358.728        1837.975
  24288650.842                                   127637725.419 4
     -3510.582
  24371412.313    24371412.8104   24371412.3334  128072638.565 6  99796881.24942
      3389.974        2641.570
  24913922.841    24913922.4594   24913922.1664  130923556.100 6 102018364.82943
      3272.998        2550.389
  21561510.747    21561510.4054   21561510.6314  113306509.586 7  88290800.39945
       551.684         429.888
  22161955.031    22161954.7954   22161956.1544  116461875.716 7  90749532.72745
      2846.665        2218.182
  22472091.075    22472090.6214   22472091.6404  118091640.017 7  92019475.45245
      -823.874        -641.989
  21822033.039    21822033.1004   21822033.9904  114675580.126 7  89357609.22545
      1848.255        1440.198
 06  5  9 16 49  0.0000000  0 12G 3G 7G 8G10G15G16G18G19G21G26G27G29
  22576308.459    22576308.4584   22576309.8824  118639305.969 8  92446239.03045
      1481.441        1154.357
  22422981.431    22422981.3364   22422983.8024  117833553.068 7  91818365.17545
     -1603.257       -1249.285
  22117118.717    22117118.0714   22117119.1434  116226273.088 8  90565941.24145
      1475.932        1150.081
  22334874.204    22334873.4184   22334875.3024  117370541.832 7  91457578.38845
     -3140.288       -2446.972
  22188350.465    22188349.6784   22188351.5324  116600621.886 7  90857612.11345
      2342.919        1825.641
  24308717.288                                   127743176.912 3
     -3519.839
  24352076.223    24352076.0114   24352076.5434  127971025.208 7  99717702.04643
      3383.811        2636.717
  24895256.914    24895256.4584   24895256.6344  130825466.314 6 101941931.24943
      3265.886        2544.846
  21558418.309    21558417.7624   21558417.1784  113290255.643 8  88278134.99946
       531.583         414.214
  22145747.418    22145748.1974   22145750.0984  116376711.494 7  90683171.04745
      2830.552        2205.630
  22476843.222    22476843.2704   22476844.9824  118116617.704 7  92038938.57945
      -841.751        -655.909
  21811528.948    21811528.8414   21811529.9674  114620381.145 7  89314597.06845
      1831.360        1427.024
 06  5  9 16 49 30.0000000  0 11G 3G 7G 8G10G15G18G19G21G26G27G29
  22567902.274    22567901.7834   22567903.2404  118595130.943 7  92411816.99145
      1463.239        1140.186
  22432182.124    22432181.4884   22432183.9004  117881901.238 7  91856039.05245
     -1620.299       -1262.563
  22108746.142    22108745.8154   22108747.1584  116182276.579 7  90531658.26845
      1456.934        1135.276
  22352836.704    22352836.1324   22352838.2064  117464937.738 7  91531133.62445
     -3153.218       -2457.043
  22175016.832    22175015.7574   22175017.9214  116530553.659 8  90803013.50445
      2327.853        1813.913
  24332771.809    24332771.6564   24332770.6814  127869579.378 7  99638653.39743
      3378.695        2632.783
  24876629.259    24876628.7274   24876628.4374  130727575.579 6 101865652.76143
      3259.629        2539.988
  21555437.441    21555436.9224   21555437.1814  113274593.075 8  88265930.41146
       512.145         399.086
  22129632.523    22129632.6244   22129633.8244  116292022.415 7  90617179.60145
      2814.902        2193.430
  22481697.299    22481696.5554   22481698.0744  118142121.430 7  92058811.60745
      -858.975        -669.319
  21801118.745    21801118.8024   21801119.7184  114565675.190 7  89271969.08745
      1815.205        1414.453
 06  5  9 16 50  0.0000000  0 11G 3G 7G 8G10G15G18G19G21G26G27G29
  22559603.808    22559603.3004   22559604.7814  118551521.510 7  92377835.65044
      1443.762        1124.983
  22441482.350    22441482.2384   22441484.2904  117930775.450 7  91894122.85345
     -1638.345       -1276.613
  22100485.859    22100485.7404   22100486.9504  116138868.145 8  90497833.53845
      1436.845        1119.626
  22370878.215    22370877.4674   22370879.2194  117559742.347 7  91605007.33345
     -3167.285       -2468.016
  22161772.606    22161771.8294   22161773.8514  116460955.981 8  90748781.57045
      2311.636        1801.269
  24313500.790    24313500.5554   24313500.7574  127768310.944 7  99559742.96143
      3372.308        2627.771
  24858041.764    24858040.3604   24858040.3164  130629894.062 6 101789537.31343
      3252.084        2534.087
  21552571.322    21552570.5324   21552570.8054  113259530.424 8  88254193.29445
       491.589         383.072
  22113609.508    22113609.6374   22113610.4654  116207818.947 7  90551566.51645
      2798.342        2180.523
  22486651.560    22486651.5104   22486652.6454  118168158.128 7  92079099.93545
      -877.177        -683.530
  21790804.751    21790804.3604   21790805.1894  114511471.609 7  89229732.55745
      1798.048        1401.057
 06  5  9 16 50 30.0000000  0 11G 3G 7G 8G10G15G18G19G21G26G27G29
  22551413.778    22551413.4324   22551414.5994  118508483.146 7  92344299.28644
      1425.306        1110.621
  22450884.193    22450883.2064   22450885.1474  117980178.192 7  91932618.47545
     -1655.461       -1289.978
  22092338.346    22092337.9554   22092339.4494  116096053.095 8  90464471.17745
      1417.434        1104.500
  22388997.003    22388996.1224   22388997.9714  117654956.783 7  91679200.37045
     -3180.453       -2478.287
  22148619.650    22148618.7754   22148620.5324  116391835.045 8  90694921.13545
      2296.236        1789.281
  24294265.309    24294265.1664   24294264.4964  127667226.284 7  99480975.76543
      3366.772        2623.448
  24839494.204    24839493.2304   24839493.0734  130532428.208 6 101713589.87543
      3245.552        2528.984
  21549819.346    21549819.0754   21549819.2814  113245072.511 8  88242927.40045
       472.024         367.799
  22097680.257    22097679.9774   22097681.0704  116124107.931 7  90486337.17845
      2782.417        2168.124
  22491708.144    22491707.7604   22491709.2614  118194731.190 7  92099806.21845
      -894.538        -697.047
  21780586.494    21780586.4664   21780587.1324  114457775.967 7  89187891.82545
      1781.745        1388.368
 06  5  9 16 51  0.0000000  0 11G 3G 7G 8G10G15G18G19G21G26G27G29
  22543332.638    22543332.5004   22543333.2004  118466016.908 7  92311208.68544
      1405.746        1095.396
  22460384.651    22460384.0634   22460386.3194  118030107.328 7  91971524.30745
     -1673.329       -1303.896
  22084304.065    22084303.7014   22084305.0794  116053832.918 7  90431572.35545
      1397.139        1088.675
  22407192.747    22407192.1694   22407193.8454  117750577.815 7  91753710.24445
     -3194.284       -2489.052
  22135557.090    22135556.4444   22135558.2134  116323192.566 7  90641433.52745
      2279.781        1776.452
  24275064.498    24275064.2174   24275064.0824  127566326.501 7  99402352.59343
      3359.833        2618.027
  24820988.704    24820987.4114   24820987.0234  130435179.873 6 101637811.98143
      3237.771        2522.967
  21547183.494    21547182.9644   21547183.4384  113231219.541 7  88232132.88145
       451.438         351.756
  22081844.261    22081844.1284   22081845.2294  116040891.332 7  90421493.11145
      2765.362        2154.833
  22496867.410    22496866.9644   22496867.5434  118221839.237 7  92120929.37245
      -912.811        -711.274
  21770465.214    21770464.9734   21770466.1034  114404589.294 7  89146447.69445
      1764.144        1374.662
 06  5  9 16 51 30.0000000  0 11G 3G 7G 8G10G15G18G19G21G26G27G29
  22535362.980    22535362.6444   22535363.9524  118424135.197 7  92278573.58744
      1386.330        1080.288
  22469988.293    22469987.3744   22469989.6184  118080572.051 7  92010847.49945
     -1691.038       -1317.687
  22076385.598    22076385.1014   22076386.5814  116012219.745 7  90399146.53045
      1377.051        1073.027
  22425467.739    22425466.7184   22425469.0384  117846613.428 7  91828543.17145
     -3208.028       -2499.747
  22122588.145    22122587.5684   22122589.5504  116255041.443 7  90588328.80445
      2263.504        1763.770
  24255901.147    24255901.1094   24255901.3434  127465624.726 7  99323883.72443
      3353.380        2613.031
  24802525.965    24802525.3714   24802525.2764  130338162.268 6 101562213.84743
      3230.125        2516.995
  21544664.836    21544664.2944   21544664.1094  113217982.859 8  88221818.58945
       430.929         335.789
  22066104.881    22066104.9894   22066106.1574  115958182.586 7  90357044.78345
      2748.541        2141.723
  22502129.560    22502129.0014   22502129.7194  118249492.046 7  92142477.01345
      -930.694        -725.215
  21760443.399    21760443.3264   21760444.0534  114351923.835 8  89105409.69945
      1746.879        1361.204
 06  5  9 16 52  0.0000000  0 11G 3G 7G 8G10G15G18G19G21G26G27G29
  22527503.315    22527502.8604   22527504.0954  118382830.992 7  92246388.52044
      1366.681        1064.941
  22479690.803    22479690.2984   22479692.7354  118131562.087 7  92050580.00945
     -1708.946       -1331.633
  22068580.719    22068580.3974   22068581.4854  115971206.555 8  90367188.22545
      1356.617        1057.095
  22443819.824    22443818.8944   22443820.7704  117943052.646 7  91903690.60145
     -3221.800       -2510.499
  22109711.893    22109711.1194   22109713.2964  116187375.389 7  90535602.05545
      2246.955        1750.873
  24236774.081    24236774.4864   24236774.5714  127365114.674 6  99245564.25843
      3346.798        2607.903
  24784106.928    24784105.9324   24784106.9264  130241369.430 6 101486790.90243
      3222.172        2510.760
  21542261.370    21542260.9584   21542260.9954  113205354.104 8  88211978.00745
       410.293         319.717
  22050461.966    22050461.6174   22050462.6154  115875975.643 7  90292987.45645
      2731.397        2128.354
  22507493.317    22507492.7504   22507493.7764  118277680.156 7  92164441.77945
      -948.975        -739.477
  21750519.409    21750519.5244   21750520.3824  114299772.459 7  89064772.28845
      1729.375        1347.556
 06  5  9 16 52 30.0000000  0 11G 3G 7G 8G10G15G18G19G21G26G27G29
  22519753.690    22519753.3524   22519754.5774  118342106.947 7  92214655.53644
      1347.818        1050.257
  22489493.941    22489493.5724   22489496.1234  118183077.209 7  92090721.67045
     -1725.731       -1344.738
  22060891.166    22060890.6704   22060892.0874  115930796.061 8  90335699.54745
      1337.177        1041.945
  22462248.537    22462247.5964   22462249.2514  118039894.017 7  91979151.38045
     -3234.527       -2520.402
  22096927.694    22096927.3814   22096929.5294  116120197.989 7  90483256.06545
      2231.296        1738.671
  24217685.285    24217684.7494   24217685.5794  127264799.363 7  99167396.50743
      3340.787        2603.217
  24765731.869    24765730.1854   24765730.9564  130144804.855 6 101411545.88743
      3215.123        2505.264
  21539974.618    21539974.1854   21539974.0034  113193336.046 7  88202613.30346
       390.617         304.374
  22034914.370    22034914.2644   22034915.6374  115794274.361 7  90229324.15445
      2714.993        2115.583
  22512959.240    22512958.7264   22512959.7474  118306404.049 7  92186824.02845
      -966.219        -752.902
  21740693.893    21740693.9034   21740694.4964  114248138.025 7  89024537.69145
      1712.731        1334.602
 06  5  9 16 53  0.0000000  0 11G 3G 7G 8G10G15G18G19G21G26G27G29
  22512115.089    22512115.4624   22512116.3164  118301969.520 7  92183379.53644
      1328.370        1035.083
  22499397.839    22499397.3414   22499399.6754  118235120.858 7  92131275.18045
     -1743.626       -1358.663
  22053316.954    22053316.7244   22053317.6414  115890995.035 8  90304685.78645
      1316.639        1025.947
  22480753.762    22480752.6154   22480753.9874  118137139.944 7  92054927.41245
     -3248.143       -2531.036
  22084239.507    22084238.3274   22084240.7334  116053516.487 7  90431296.49245
      2214.538        1725.597
  24198633.989    24198633.5134   24198634.5024  127164686.073 7  99089386.18543
      3333.868        2597.810
  24747401.985    24747399.4684   24747399.8564  130048476.121 6 101336484.64943
      3207.064        2498.993
  21537804.560    21537804.0714   21537803.8344  113181933.477 8  88193728.18445
       369.966         288.295
  22019464.301    22019464.5344   22019465.7774  115713086.562 7  90166060.98245
      2697.827        2102.187
  22518527.703    22518527.4514   22518528.4694  118335667.961 7  92209627.07845
      -984.323        -767.003
  21730967.625    21730967.4074   21730968.3914  114197027.241 8  88984711.13145
      1695.050        1320.815
 06  5  9 16 53 30.0000000  0 11G 3G 7G 8G10G15G18G19G21G26G27G29
  22504589.531    22504589.1924   22504590.1274  118262419.765 7  92152561.45144
      1308.230        1019.409
  22509401.160    22509400.5954   22509402.6504  118287690.584 7  92172238.61544
     -1761.328       -1372.469
  22045859.206    22045858.8854   22045860.1144  115851804.029 7  90274147.36345
      1295.821        1009.720
  22499335.519    22499334.6974   22499335.6324  118234787.015 7  92131016.02145
     -3261.899       -2541.758
  22071644.397    22071643.8914   22071645.9794  115987331.963 7  90379724.18745
      2197.553        1712.386
  24179621.675    24179621.5814   24179622.3824  127064776.209 7  99011534.35943
      3326.613        2592.156
  24729115.851    24729114.6344   24729114.1644  129952384.764 6 101261608.30043
      3198.770        2492.537
  21535752.174    21535751.6434   21535751.2804  113171146.644 8  88185322.87745
       348.988         271.921
  22004112.578    22004112.8314   22004114.4054  115632413.864 7  90103199.19945
      2680.262        2088.515
  22524198.942    22524198.4494   22524199.8444  118365470.049 7  92232849.48345
     -1002.649        -781.297
  21721341.276    21721341.2004   21721341.3724  114146440.445 7  88945292.86745
      1677.071        1306.818
 06  5  9 16 54  0.0000000  0 11G 3G 7G 8G10G15G18G19G21G26G27G29
  22497176.236    22497175.2384   22497176.4144  118223460.898 7  92122203.86844
      1288.666        1004.160
  22519505.140    22519504.4944   22519506.5014  118340786.668 7  92213612.20245
     -1778.760       -1386.067
  22038518.393    22038518.0274   22038519.1854  115813226.854 7  90244087.24745
      1275.566         993.943
  22517993.282    22517992.2984   22517993.7734  118332834.496 7  92207416.62745
     -3274.995       -2551.963
  22059145.320    22059144.9094   22059146.7374  115921648.971 7  90328542.62945
      2180.956        1699.437
  24160649.061    24160648.6184   24160649.2634  126965073.936 7  98933844.32643
      3319.708        2586.777
  24710875.701    24710875.2244   24710874.5844  129856535.347 6 101186920.44443
      3190.638        2486.214
  21533816.881    21533816.3684   21533816.2064  113160977.935 7  88177399.23845
       328.447         255.924
  21988861.240    21988860.8614   21988861.8274  115552260.996 7  90040742.48145
      2663.015        2075.051
  22529972.567    22529972.6504   22529973.3634  118395811.426 7  92256492.12045
     -1020.406        -795.138
  21711815.473    21711815.1374   21711815.5464  114096381.504 7  88906285.90645
      1659.688        1293.255
 06  5  9 16 54 30.0000000  0 11G 3G 7G 8G10G15G18G19G21G26G27G29
  22489874.911    22489874.0524   22489875.6544  118185092.053 7  92092306.08544
      1269.013         988.848
  22529708.458    22529707.6154   22529709.9154  118394405.377 7  92255393.02644
     -1796.048       -1399.519
  22031293.626    22031293.4524   22031294.7224  115775262.692 7  90214504.80445
      1255.091         977.997
  22536726.141    22536725.3994   22536726.8944  118431277.274 7  92284125.25245
     -3288.112       -2562.159
  22046742.118    22046741.4924   22046742.4664  115856467.613 8  90277751.95745
      2164.236        1686.429
  24141715.818    24141715.2364   24141716.1574  126865578.916 7  98856315.76144
      3312.950        2581.519
  24692681.990    24692681.4524   24692681.0474  129760928.028 6 101112421.24743
      3182.422        2479.827
  21531999.269    21531998.7364   21531998.2454  113151425.639 8  88169955.90845
       307.906         239.934
  21973707.310    21973707.5664   21973708.1534  115472628.253 7  89978691.05545
      2645.467        2061.400
  22535848.817    22535848.1024   22535849.2504  118426688.876 7  92280552.47245
     -1038.225        -809.000
  21702389.317    21702389.4544   21702390.1524  114046849.512 7  88867689.56345
      1642.164        1279.614
 06  5  9 16 55  0.0000000  0 11G 3G 7G 8G10G15G18G19G21G26G27G29
  22482684.066    22482684.0764   22482685.4874  118147308.789 7  92062864.65044
      1249.366         973.505
  22540009.725    22540009.0754   22540010.9964  118448538.850 7  92297574.94845
     -1813.376       -1413.018
  22024185.485    22024184.8314   22024185.9984  115737906.931 7  90185396.43045
      1234.798         962.161
  22555532.748    22555531.9374   22555533.5804  118530106.855 7  92361135.29345
     -3301.115       -2572.319
  22034432.761    22034432.3224   22034433.8644  115791784.043 7  90227349.19845
      2147.509        1673.367
  24122820.493    24122820.7364   24122821.7524  126766287.458 7  98778945.84344
      3305.996        2576.089
  24674533.775    24674533.3974   24674533.2004  129665559.364 6 101038108.02743
      3174.854        2473.896
  21530297.310    21530297.0124   21530296.9374  113142484.433 7  88162988.75945
       287.458         223.971
  21958651.889    21958651.8454   21958652.5864  115393512.196 7  89917042.24245
      2628.203        2047.937
  22541824.818    22541824.5674   22541825.3094  118458095.611 7  92305025.25645
     -1056.028        -822.909
  21693063.484    21693063.2194   21693063.9814  113997839.944 7  88829500.30245
      1624.746        1266.023
 06  5  9 16 55 30.0000000  0 11G 3G 7G 8G10G15G18G19G21G26G27G29
  22475607.333    22475607.0984   22475608.6034  118110119.695 6  92033886.19244
      1229.538         958.066
  22550409.357    22550409.2564   22550411.8534  118503192.799 7  92340162.41845
     -1830.735       -1426.552
  22017194.033    22017193.8624   22017195.1704  115701168.519 7  90156769.11145
      1214.143         946.093
  22574413.780    22574413.1014   22574415.0464  118629327.692 7  92438450.20845
     -3314.120       -2582.419
  22022220.892    22022220.0894   22022221.6284  115727607.382 8  90177341.44845
      2130.510        1660.142
  24103966.462    24103966.8244   24103967.4884  126667208.646 7  98701741.61844
      3298.968        2570.633
  24656432.396    24656432.2384   24656432.4544  129570439.174 6 100963988.40043
      3166.371        2467.306
  21528713.967    21528713.5214   21528713.5534  113134162.200 7  88156503.91445
       266.841         207.932
  21943696.478    21943696.6174   21943697.3274  115314922.592 7  89855803.64545
      2610.611        2034.247
  22547903.572    22547903.2974   22547904.3324  118490037.931 7  92329915.37845
     -1073.861        -836.766
  21683838.264    21683838.2724   21683839.0344  113949361.540 8  88791724.93645
      1606.871        1252.093
 06  5  9 16 56  0.0000000  0 11G 3G 7G 8G10G15G18G19G21G26G27G29
  22468643.290    22468643.0894   22468644.5954  118073526.081 6  92005371.65143
      1210.002         942.852
  22560908.811    22560908.8454   22560910.9584  118558365.615 7  92383154.20044
     -1847.774       -1439.810
  22010321.265    22010320.7584   22010321.7694  115665049.150 8  90128624.15945
      1193.695         930.160
  22593369.055    22593368.0264   22593370.0004  118728937.294 7  92516068.03845
     -3326.800       -2592.282
  22010105.178    22010104.3064   22010106.1684  115663939.839 7  90127730.37245
      2113.650        1647.009
  24085153.896    24085153.3484   24085154.1164  126568345.054 7  98624705.10244
      3291.841        2565.071
  24638379.391    24638378.9644   24638378.8824  129475569.967 6 100890064.35143
      3157.836        2460.650
  21527248.399    21527247.6824   21527247.3344  113126459.842 7  88150502.08045
       246.352         191.964
  21928841.543    21928841.9374   21928843.2104  115236862.472 7  89794977.65145
      2593.043        2020.573
  22554083.642    22554083.2024   22554084.3374  118522515.392 7  92355222.48145
     -1091.443        -850.471
  21674714.684    21674714.4154   21674715.1804  113901416.042 7  88754364.81845
      1589.247        1238.385
 06  5  9 16 56 30.0000000  0 11G 3G 7G 8G10G15G18G19G21G26G27G29
  22461793.628    22461792.9114   22461794.3584  118037525.553 7  91977319.24843
      1190.351         927.551
  22571505.790    22571505.4194   22571507.2524  118614051.763 7  92426546.04745
     -1864.590       -1452.937
  22003565.067    22003564.7614   22003565.7764  115629545.638 7  90100959.10445
      1173.333         914.272
  22612396.349    22612395.5824   22612397.5004  118828928.763 7  92593983.44845
     -3339.395       -2602.125
  21998085.963    21998085.1534   21998087.2714  115600779.829 7  90078514.78745
      2097.010        1634.020
  24066381.689    24066381.0734   24066381.6034  126469694.581 7  98547834.65944
      3284.831        2559.600
  24620374.556    24620373.8594   24620373.8584  129380950.024 6 100816334.49043
      3149.746        2454.358
  21525899.649    21525899.1904   21525898.9794  113119373.350 7  88144980.14045
       226.061         176.152
  21914088.472    21914088.1654   21914089.1584  115159329.950 8  89734562.76445
      2575.701        2007.032
  22560364.455    22560364.2744   22560365.4054  118555522.528 7  92380942.32945
     -1109.028        -864.192
  21665691.318    21665691.4044   21665692.4304  113854000.589 7  88717417.73045
      1571.782        1224.758
 06  5  9 16 57  0.0000000  0 11G 3G 7G 8G10G15G18G19G21G26G27G29
  22455055.961    22455056.1464   22455057.2384  118002122.844 6  91949732.86043
      1169.786         911.532
  22582199.888    22582199.5064   22582201.9264  118670252.215 7  92470338.60645
     -1882.119       -1466.565
  21996927.026    21996926.4994   21996927.5324  115594662.717 7  90073777.62745
      1152.133         897.770
  22631496.904    22631496.1104   22631498.0344  118929302.706 7  92672196.88445
     -3352.372       -2612.258
  21986164.697    21986164.0874   21986165.9934  115538132.820 7  90029698.98945
      2079.396        1620.309
  24047650.210    24047650.3694   24047651.0224  126371262.378 7  98471134.27844
      3277.265        2553.729
  24602417.942    24602416.4134   24602417.1674  129286585.019 6 100742803.36943
      3140.913        2447.469
  21524668.913    21524668.4084   21524668.7254  113112906.433 8  88139940.99345
       205.056         159.793
  21899435.668    21899435.9144   21899436.7674  115082330.714 7  89674563.42245
      2557.474        1992.839
  22566747.365    22566747.0094   22566747.6844  118589061.961 7  92407076.95245
     -1127.036        -878.201
  21656770.362    21656770.1834   21656771.3064  113807119.711 7  88680887.19645
      1553.515        1210.516
 06  5  9 16 57 30.0000000  0 11G 3G 7G 8G10G15G18G19G21G26G27G29
  22448430.223    22448429.5654   22448431.9494  117967307.339 6  91922603.96243
      1150.385         896.426
  22592990.745    22592989.6854   22592991.9564  118726954.314 7  92514522.08544
     -1898.978       -1479.711
  21990405.241    21990404.7744   21990405.9484  115560390.497 7  90047072.02245
      1131.479         881.674
  22650667.387    22650666.7824   22650668.5334  119030044.788 7  92750697.17944
     -3364.847       -2621.955
  21974338.548    21974338.2344   21974340.4014  115475989.173 7  89981275.37145
      2062.365        1607.042
  24028959.216    24028958.9034   24028959.7204  126273039.318 7  98394596.85844
      3269.949        2548.012
  24584507.180    24584506.3674   24584506.6194  129192466.179 6 100669464.07043
      3132.274        2440.739
  21523554.277    21523553.7554   21523553.6444  113107047.909 8  88135375.91745
       184.537         143.803
  21884882.851    21884883.0204   21884884.0784  115005855.992 7  89614972.78945
      2539.636        1978.939
  22573228.464    22573228.2654   22573229.0944  118623121.146 7  92433616.57845
     -1144.605        -891.878
  21647949.318    21647949.0944   21647949.9674  113760763.420 8  88644765.42145
      1535.880        1196.805
 06  5  9 16 58  0.0000000  0 11G 3G 7G 8G10G15G18G19G21G26G27G29
  22441920.392    22441920.3784   22441922.2954  117933096.840 6  91895946.39844
      1130.359         880.810
  22603878.743    22603878.0794   22603880.0684  118784172.255 7  92559107.48945
     -1915.706       -1492.772
  21984002.702    21984002.3894   21984003.4974  115526746.814 7  90020856.18145
      1111.209         865.889
  22669910.850    22669910.0444   22669912.0714  119131168.839 7  92829495.10744
     -3377.062       -2631.468
  21962612.815    21962611.8884   21962614.2504  115414367.644 7  89933258.66445
      2045.377        1593.791
  24010311.202    24010310.6424   24010311.6884  126175043.921 7  98318236.87244
      3262.850        2542.470
  24566647.305    24566646.3934   24566646.6094  129098612.143 6 100596331.13743
      3123.882        2434.187
  21522558.199    21522557.8124   21522558.1504  113101814.740 7  88131298.13445
       164.134         127.900
  21870433.409    21870433.4954   21870434.3774  114929924.536 7  89555805.47645
      2522.220        1965.352
  22579811.550    22579811.1284   22579812.3094  118657714.924 7  92460572.77045
     -1161.846        -905.316
  21639231.253    21639231.1434   21639231.6694  113714949.465 8  88609066.24645
      1518.274        1183.072
 06  5  9 16 58 30.0000000  0 11G 3G 7G 8G10G15G18G19G21G26G27G29
  22435526.404    22435525.8664   22435527.3904  117899491.516 7  91869760.44544
      1109.628         864.673
  22614864.004    22614863.8394   22614866.0984  118841902.978 7  92604092.47244
     -1933.484       -1506.602
  21977720.110    21977719.6824   21977721.0844  115493731.287 7  89995129.81145
      1089.619         849.067
  22689225.390    22689224.9274   22689227.0694  119232670.638 7  92908587.38044
     -3390.185       -2641.694
  21950985.497    21950984.8294   21950987.3824  115353268.657 7  89885649.12845
      2027.441        1579.830
  23991706.456    23991706.7264   23991707.3394  126077276.791 6  98242054.75644
      3254.570        2536.030
  24548837.493    24548837.7764   24548837.4114  129005023.986 6 100523405.33343
      3114.634        2426.981
  21521681.702    21521681.4824   21521681.0944  113097206.026 7  88127706.95245
       142.637         111.152
  21856087.719    21856087.9634   21856088.8994  114854537.390 7  89497062.30045
      2503.521        1950.800
  22586495.627    22586495.3414   22586496.3484  118692840.966 7  92487943.70445
     -1180.116        -919.567
  21630616.389    21630616.1444   21630616.7754  113669677.840 7  88573789.66645
      1499.407        1168.364
 06  5  9 16 59  0.0000000  0 11G 3G 7G 8G10G15G18G19G21G26G27G29
  22429247.371    22429247.0114   22429248.7054  117866496.139 7  91844049.77744
      1089.628         849.062
  22625947.760    22625947.3584   22625949.8024  118900148.364 7  92649478.50944
     -1950.105       -1519.562
  21971558.213    21971557.8954   21971558.3954  115461348.818 8  89969896.73545
      1068.821         832.835
  22708612.860    22708612.1814   22708614.5234  119334551.193 7  92987974.80744
     -3402.370       -2651.190
  21939459.620    21939458.9694   21939461.4054  115292697.856 7  89838451.15345
      2010.202        1566.389
  23973147.009    23973146.2344   23973147.7114  125979743.628 6  98166054.94644
      3247.169        2530.287
  24531080.873    24531080.2264   24531080.3254  128911707.855 6 100450691.45843
      3105.822        2420.092
  21520924.230    21520923.5434   21520923.3264  113093225.386 7  88124605.16545
       122.209          95.226
  21841846.940    21841846.9254   21841847.8834  114779700.692 7  89438748.04045
      2485.475        1936.754
  22593281.424    22593281.2194   22593282.5244  118728501.744 7  92515731.31445
     -1197.614        -933.208
  21622105.354    21622105.2404   21622105.9654  113624953.379 7  88538939.44145
      1481.678        1154.562
 06  5  9 16 59 30.0000000  0 11G 3G 7G 8G10G15G18G19G21G26G27G29
  22423083.828    22423083.3234   22423084.9054  117834104.047 7  91818809.15944
      1069.102         833.061
  22637128.041    22637127.4124   22637129.7994  118958898.546 7  92695257.87344
     -1967.129       -1532.846
  21965515.339    21965514.5774   21965515.7284  115429592.901 7  89945151.88045
      1047.765         816.438
  22728070.194    22728069.7544   22728071.8074  119436799.787 7  93067649.00144
     -3414.763       -2660.854
  21928032.601    21928031.9694   21928034.5334  115232649.796 7  89791660.49545
      1992.472        1552.564
  23954630.207    23954630.1724   23954630.6544  125882438.718 6  98090233.01044
      3239.322        2524.145
  24513373.887    24513373.4264   24513373.3544  128818657.845 6 100378184.91543
      3096.987        2413.257
  21520285.097    21520284.7234   21520284.3004  113089865.451 7  88121987.03945
       101.359          78.978
  21827709.512    21827709.5384   21827710.5104  114705409.129 7  89380858.56445
      2467.059        1922.385
  22600167.708    22600167.2424   22600168.7244  118764688.656 7  92543928.89645
     -1215.382        -947.043
  21613697.538    21613697.4954   21613697.9524  113580769.602 7  88504510.53545
      1463.369        1140.285
 06  5  9 17  0  0.0000000  0 11G 3G 7G 8G10G15G18G19G21G26G27G29
  22417035.155    22417035.2354   22417036.5234  117802321.650 6  91794043.68044
      1048.906         817.325
  22648404.513    22648403.7014   22648405.5804  119018157.253 7  92741433.49244
     -1984.505       -1546.373
  21959592.861    21959592.2594   21959593.1674  115398470.168 7  89920900.42145
      1026.181         799.621
  22747598.197    22747597.4384   22747599.5744  119539419.213 7  93147612.15744
     -3427.382       -2670.681
  21916706.791    21916706.3504   21916708.5724  115173131.851 8  89745282.90345
      1974.474        1538.556
  23936158.431    23936158.1934   23936159.0404  125785369.723 6  98014594.90344
      3231.138        2517.768
  24495719.293    24495718.2354   24495718.8394  128725882.342 5 100305892.36343
      3087.682        2405.999
  21519764.349    21519763.9524   21519764.0404  113087131.907 8  88119857.00245
        80.113          62.440
  21813677.919    21813677.9034   21813678.6164  114631670.519 7  89323399.94545
      2448.201        1907.711
  22607154.790    22607154.4544   22607155.9944  118801405.927 7  92572539.74345
     -1233.340        -961.054
  21605393.732    21605393.8934   21605394.4744  113537133.389 7  88470508.30845
      1444.709        1125.749
 06  5  9 17  0 30.0000000  0 11G 3G 7G 8G10G15G18G19G21G26G27G29
  22411105.200    22411104.9874   22411106.3144  117771158.423 7  91769760.64844
      1028.182         801.185
  22659778.413    22659778.0604   22659780.0514  119077930.887 7  92788010.34944
     -2001.110       -1559.321
  21953792.548    21953792.0104   21953793.1964  115367990.400 7  89897149.96945
      1004.953         783.081
  22767197.769    22767196.8374   22767199.0654  119642414.964 7  93227868.55344
     -3439.777       -2680.341
  21905483.708    21905483.4874   21905485.3854  115114154.334 8  89699326.42245
      1956.635        1524.644
  23917733.770    23917733.3064   23917734.0604  125688546.881 6  97939148.58144
      3223.049        2511.460
  24478117.555    24478118.5304   24478118.0164  128633392.051 6 100233822.05043
      3077.925        2398.372
  21519365.710    21519365.1254   21519364.3904  113085033.724 8  88118222.06945
        59.111          46.071
  21799752.958    21799752.8634   21799753.7334  114558495.467 7  89266380.46845
      2429.563        1893.181
  22614244.451    22614243.9904   22614245.0914  118838660.691 7  92601569.41045
     -1250.994        -974.792
  21597196.441    21597196.2684   21597196.6394  113494053.942 7  88436939.91345
      1426.326        1111.426
 06  5  9 17  1  0.0000000  0 11G 3G 7G 8G10G15G18G19G21G26G27G29
  22405296.363    22405295.9834   22405297.1604  117740630.797 7  91745972.95444
      1006.472         784.245
  22671253.894    22671253.7974   22671255.3754  119138232.611 7  92834998.71744
     -2019.415       -1573.574
  21948117.656    21948117.4894   21948118.5964  115338169.827 8  89873913.17045
       982.503         765.586
  22786871.463    22786870.4964   22786872.2814  119745799.252 7  93308427.70344
     -3453.023       -2690.642
  21894366.954    21894366.3344   21894368.2714  115055734.245 8  89653804.30245
      1937.538        1509.762
  23899359.068    23899359.1534   23899359.1804  125591987.349 6  97863907.42244
      3213.753        2504.227
  24460576.007    24460575.3214   24460576.4424  128541204.105 6 100161987.26243
      3067.240        2390.057
  21519089.525    21519089.0014   21519089.3424  113083585.975 7  88117093.96045
        36.790          28.672
  21785938.425    21785938.8264   21785939.6974  114485901.499 8  89209813.76645
      2409.413        1877.465
  22621438.341    22621438.0374   22621439.1254  118876466.911 7  92631028.78345
     -1269.979        -989.593
  21589107.394    21589107.1374   21589107.9184  113451547.904 7  88403818.33945
      1406.716        1096.151
 06  5  9 17  1 30.0000000  0 11G 3G 7G 8G10G15G18G19G21G26G27G29
  22399607.279    22399606.8914   22399608.1724  117710734.674 7  91722677.25845
       986.328         768.561
  22682827.820    22682827.5514   22682829.6814  119199055.401 7  92882393.10744
     -2035.482       -1586.085
  21942568.462    21942567.5344   21942568.6814  115309004.816 8  89851187.19545
       961.561         749.284
  22806617.731    22806616.9154   22806618.6684  119849564.443 7  93389283.66144
     -3464.869       -2699.903
  21883355.611    21883354.9814   21883356.7444  114997868.631 8  89608714.23945
      1919.923        1496.043
  23881034.179    23881033.9114   23881033.9524  125495688.554 6  97788869.45443
      3205.820        2498.051
  24443090.933    24443089.6304   24443090.6814  128449316.437 6 100090386.43843
      3058.211        2383.035
  21518937.282    21518936.7764   21518936.5624  113082784.012 7  88116469.06345
        16.329          12.730
  21772234.551    21772234.3934   21772235.5904  114413885.938 7  89153697.78145
      2391.265        1863.324
  22628736.348    22628736.2484   22628737.4264  118914818.158 7  92660912.85345
     -1287.097       -1002.930
  21581127.185    21581127.1224   21581127.4314  113409611.265 7  88371140.45145
      1388.766        1082.161
 06  5  9 17  2  0.0000000  0 11G 3G 7G 8G10G15G18G19G21G26G27G29
  22394036.427    22394036.4594   22394037.7894  117681462.591 7  91699867.83445
       965.376         752.244
  22694498.807    22694498.1154   22694501.3184  119260388.979 6  92930185.49644
     -2053.155       -1599.847
  21937141.160    21937140.7654   21937141.6844  115280487.193 8  89828965.69245
       939.903         732.395
  22826434.448    22826432.9764   22826434.1234  119953698.794 7  93470427.28044
     -3477.344       -2709.605
  21872448.509    21872447.7714   21872449.0364  114940550.633 7  89564050.86045
      1901.412        1481.618
  23862757.277    23862757.1864   23862757.1654  125399643.695 6  97714029.35043
      3197.184        2491.333
  24425661.630    24425659.1694   24425659.8684  128357722.478 6 100019014.55643
      3048.437        2375.425
  21518905.312    21518904.9744   21518905.2964  113082619.036 8  88116340.50445
        -5.075          -3.950
  21758638.825    21758639.0224   21758640.1234  114342442.424 7  89098027.54245
      2371.967        1848.278
  22636136.086    22636136.0184   22636136.9544  118953704.375 7  92691213.77945
     -1305.101       -1016.941
  21573254.113    21573253.9954   21573254.2304  113368236.597 8  88338900.46145
      1369.712        1067.303
 06  5  9 17  2 30.0000000  0 11G 3G 7G 8G10G15G18G19G21G26G27G29
  22388586.501    22388586.3394   22388587.9384  117652822.159 7  91677550.60245
       943.960         735.547
  22706268.856    22706268.3294   22706270.5754  119322237.615 7  92978379.21444
     -2070.482       -1613.372
  21931839.566    21931838.7194   21931840.1054  115252624.824 8  89807254.76745
       917.624         715.030
  22846320.643    22846319.7734   22846321.6114  120058206.333 7  93551861.70144
     -3490.007       -2719.496
  21861646.852    21861646.1274   21861647.7904  114883788.732 7  89519820.80545
      1882.516        1466.900
  23844529.878    23844529.9454   23844529.9524  125303861.327 6  97639393.79243
      3188.107        2484.238
  24408289.596    24408287.5304   24408287.1064  128266430.954 6  99947878.26743
      3037.751        2367.070
  21518996.647    21518996.3094   21518996.6534  113083097.797 8  88116713.55846
       -26.986         -21.021
  21745154.351    21745154.5324   21745155.2194  114271579.922 7  89042810.04045
      2352.095        1832.799
  22643638.704    22643638.0854   22643639.8634  118993131.380 7  92721936.09345
     -1323.352       -1031.165
  21565489.473    21565489.0964   21565489.5394  113327431.731 8  88307104.47245
      1350.282        1052.171
 06  5  9 17  3  0.0000000  0 11G 3G 7G 8G10G15G18G19G21G26G27G29
  22383257.634    22383257.4764   22383259.0134  117624818.083 7  91655729.17845
       922.426         718.779
  22718137.374    22718136.1804   22718138.2324  119384603.542 7  93026976.03544
     -2087.914       -1626.945
  21926663.070    21926662.3984   21926663.4664  115225422.922 7  89786058.50645
       895.268         697.605
  22866279.301    22866278.3934   22866280.0214  120163088.346 7  93633587.91344
     -3502.788       -2729.452
  21850952.383    21850951.4614   21850953.3744  114827588.949 7  89476028.75645
      1863.575        1452.135
  23826355.288    23826354.1524   23826355.2144  125208347.344 6  97564967.36643
      3178.956        2477.107
  24390975.499    24390974.4924   24390974.5034  128175448.726 6  99876983.03943
      3027.044        2358.738
  21519211.338    21519210.8264   21519210.8804  113084224.585 8  88117591.57646
       -48.835         -38.056
  21731781.909    21731781.9564   21731782.7594  114201304.739 7  88988050.17845
      2332.231        1817.312
  22651244.823    22651244.5124   22651245.8294  119033101.753 7  92753081.81645
     -1341.710       -1045.498
  21557833.788    21557833.4844   21557833.7174  113287201.720 7  88275756.42145
      1330.959        1037.107
 06  5  9 17  3 30.0000000  0 11G 3G 7G 8G10G15G18G19G21G26G27G29
  22378051.149    22378050.7584   22378052.1794  117597455.659 7  91634407.83745
       901.579         702.523
  22730103.361    22730102.5834   22730104.7374  119447488.363 7  93075977.17444
     -2104.351       -1639.749
  21921612.794    21921612.3334   21921613.5624  115198886.071 7  89765380.45845
       873.815         680.885
  22886309.690    22886308.2094   22886309.7954  120268345.557 7  93715606.48644
     -3514.649       -2738.698
  21840365.752    21840364.9414   21840367.1824  114771956.955 7  89432679.19645
      1845.168        1437.782
  23808231.084    23808231.0204   23808231.3134  125113107.829 6  97490754.80843
      3170.336        2470.369
  24373722.266    24373721.5454   24373720.6084  128084781.498 6  99806333.27943
      3017.177        2351.056
  21519549.525    21519549.0524   21519549.3124  113086003.345 7  88118977.62146
       -69.855         -54.425
  21718521.722    21718521.6134   21718522.5254  114131622.816 7  88933752.59645
      2313.041        1802.373
  22658954.560    22658954.7214   22658955.7104  119073617.728 7  92784652.68545
     -1359.340       -1059.226
  21550288.534    21550288.2344   21550288.4674  113247551.475 7  88244860.12445
      1312.337        1022.604
 06  5  9 17  4  0.0000000  0 11G 3G 7G 8G10G15G18G19G21G26G27G29
  22372963.961    22372963.7494   22372965.3124  117570723.426 7  91613577.53045
       880.092         685.795
  22742165.958    22742165.2484   22742167.9864  119510877.853 7  93125371.57944
     -2121.621       -1653.194
  21916687.472    21916686.8624   21916688.2334  115173003.406 8  89745212.15545
       851.271         663.341
  22906407.485    22906406.7894   22906408.2014  120373962.797 7  93797905.61244
     -3526.964       -2748.270
  21829885.237    21829884.4134   21829886.7874  114716882.548 7  89389764.11445
      1826.028        1422.881
  23790157.601    23790158.1014   23790158.2634  125018132.459 6  97416748.05243
      3160.890        2463.018
  24356526.387    24356525.4264   24356525.7994  127994419.811 6  99735921.59843
      3006.533        2342.762
  21520010.104    21520009.5844   21520009.5254  113088421.508 8  88120861.89546
       -91.615         -71.392
  21705373.261    21705372.4704   21705373.6464  114062524.017 7  88879909.39145
      2293.010        1786.766
  22666766.014    22666765.9954   22666767.4124  119114665.892 7  92816638.24045
     -1377.596       -1073.435
  21542850.914    21542851.1284   21542851.2414  113208469.868 8  88214406.92345
      1292.788        1007.386
 06  5  9 17  4 30.0000000  0 11G 3G 7G 8G10G15G18G19G21G26G27G29
  22367998.384    22367998.1414   22367999.6414  117544629.508 7  91593244.58245
       859.132         669.458
  22754326.382    22754325.3524   22754327.7784  119574777.510 7  93175163.50944
     -2138.445       -1666.319
  21911888.309    21911887.7944   21911889.0104  115147783.191 7  89725560.04445
       829.402         646.293
  22926575.053    22926574.2694   22926575.7464  120479944.897 7  93880489.04644
     -3539.021       -2757.676
  21819513.103    21819512.4734   21819514.4024  114662375.100 7  89347290.81045
      1807.441        1408.400
  23772136.535    23772137.0134   23772137.1014  124923430.706 6  97342954.51843
      3151.978        2456.083
  24339390.677    24339390.1404   24339390.1654  127904373.445 6  99665755.62343
      2996.144        2334.658
  21520592.783    21520592.2314   21520592.6334  113091486.855 8  88123250.45945
      -113.007         -88.049
  21692336.567    21692336.5464   21692337.1104  113994018.412 7  88826528.42045
      2273.467        1771.531
  22674679.977    22674679.6124   22674680.8604  119156252.820 7  92849043.61045
     -1395.269       -1087.233
  21535523.972    21535524.1224   21535524.4914  113169965.532 8  88184403.54545
      1273.785         992.540
 06  5  9 17  5  0.0000000  0 11G 3G 7G 8G10G15G18G19G21G26G27G29
  22363155.026    22363154.6404   22363156.3234  117519177.180 7  91573411.51245
       838.253         653.186
  22766582.453    22766582.0494   22766584.3824  119639187.560 7  93225353.15344
     -2155.133       -1679.328
  21907216.007    21907215.4374   21907216.2674  115123228.610 7  89706426.62345
       807.827         629.474
  22946812.206    22946811.6264   22946813.1864  120586291.351 7  93963356.38244
     -3550.518       -2766.629
  21809249.127    21809248.6684   21809250.7194  114608438.529 8  89305262.36345
      1788.808        1393.883
  23754168.703    23754168.6154   23754168.5664  124829007.131 6  97269377.72943
      3143.176        2449.234
  24322316.670    24322316.2974   24322315.9794  127814646.888 6  99595838.86243
      2985.933        2326.692
  21521300.525    21521299.7004   21521299.5484  113095201.745 7  88126145.16145
      -134.287        -104.629
  21679413.641    21679413.8734   21679414.4564  113926110.434 7  88773613.12745
      2254.009        1756.375
  22682696.677    22682696.2544   22682697.9084  119198379.438 7  92881869.52845
     -1412.720       -1100.813
  21528308.009    21528307.2674   21528307.9124  113132041.778 7  88154852.57245
      1254.807         977.772
 06  5  9 17  5 30.0000000  0 11G 3G 7G 8G10G15G18G19G21G26G27G29
  22358433.575    22358433.0384   22358434.4874  117494363.260 8  91554075.84845
       816.091         635.928
  22778935.269    22778934.9964   22778936.6954  119704101.694 7  93275935.61144
     -2172.715       -1693.037
  21902669.484    21902668.9784   21902669.6684  115099336.485 8  89687809.39545
       784.949         611.640
  22967117.063    22967116.3504   22967117.9684  120692994.978 7  94046502.03344
     -3563.150       -2776.481
  21799093.998    21799093.2404   21799095.3374  114555070.584 8  89263676.97745
      1769.000        1378.441
  23736253.041    23736252.4044   23736253.2204  124734859.592 7  97196016.03043
      3133.305        2441.518
  24305303.594    24305301.8874   24305302.1024  127725238.138 6  99526169.68643
      2974.572        2317.820
  21522129.273    21522128.8404   21522129.7074  113099561.898 7  88129542.66745
      -156.609        -122.029
  21666604.671    21666604.4714   21666605.3804  113858797.880 7  88721161.80345
      2233.427        1740.326
  22690814.496    22690814.3924   22690815.5654  119241039.727 7  92915111.28645
     -1431.330       -1115.327
  21521200.702    21521200.5274   21521201.2214  113094695.256 8  88125751.39445
      1235.023         962.349
 06  5  9 17  6  0.0000000  0 11G 3G 7G 8G10G15G18G19G21G26G27G29
  22353833.675    22353833.4274   22353834.6174  117470191.736 7  91535240.85845
       794.849         619.367
  22791384.390    22791383.9644   22791385.8154  119769520.508 7  93326911.31645
     -2189.165       -1705.827
  21898249.753    21898249.2914   21898249.9874  115076110.282 7  89669711.07545
       762.717         594.325
  22987490.597    22987489.2944   22987491.0604  120800055.652 7  94129925.92044
     -3574.794       -2785.545
  21789047.326    21789046.7564   21789048.5134  114502275.743 7  89222538.15246
      1750.394        1363.949
  23718390.807    23718390.1684   23718390.6594  124640992.392 6  97122872.77543
      3124.129        2434.396
  24288351.847    24288350.0684   24288350.0104  127636152.555 6  99456752.33743
      2963.951        2309.604
  21523082.913    21523082.6314   21523082.3454  113104570.161 8  88133445.19946
      -177.938        -138.649
  21653909.807    21653909.7714   21653910.2414  113792085.791 7  88669178.36945
      2213.633        1724.902
  22699034.029    22699034.0154   22699035.4474  119284234.903 7  92948769.84445
     -1448.900       -1129.022
  21514204.558    21514204.4794   21514204.7204  113057929.862 7  88097103.05045
      1215.754         947.347
 06  5  9 17  6 30.0000000  0 11G 3G 7G 8G10G15G18G19G21G26G27G29
  22349354.978    22349354.9974   22349356.7204  117446657.741 7  91516902.51845
       773.051         602.384
  22803927.506    22803927.1334   22803929.1304  119835436.798 7  93378274.64645
     -2206.145       -1719.079
  21893955.475    21893954.9994   21893956.4514  115053545.943 7  89652128.48345
       740.482         577.000
  23007929.744    23007929.0234   23007930.4254  120907465.422 7  94213621.80844
     -3586.703       -2794.833
  21779109.278    21779108.6214   21779110.6344  114450050.685 7  89181843.32446
      1730.739        1348.630
  23700580.700    23700580.5884   23700581.1634  124547403.121 7  97049946.06443
      3114.421        2426.833
  24271459.265    24271458.8944   24271458.1974  127547387.215 6  99387584.58143
      2953.027        2301.073
  21524157.693    21524157.1284   21524157.8074  113110221.022 7  88137848.46945
      -199.586        -155.516
  21641328.893    21641328.8234   21641329.3724  113725971.101 7  88617660.43645
      2193.240        1709.017
  22707354.519    22707354.2824   22707355.5964  119327958.656 7  92982840.28645
     -1466.845       -1142.978
  21507317.997    21507317.6804   21507318.1284  113021741.483 7  88068904.31945
      1196.107         932.036
 06  5  9 17  7  0.0000000  0 11G 3G 7G 8G10G15G18G19G21G26G27G29
  22344998.166    22344998.0634   22344999.7154  117423760.575 7  91499060.46545
       752.834         586.624
  22816564.436    22816564.1354   22816566.6474  119901846.923 7  93430022.79845
     -2221.552       -1731.093
  21889787.718    21889787.2804   21889788.1684  115031642.608 8  89635060.96145
       719.231         560.429
  23028434.523    23028433.9094   23028435.7954  121015219.889 7  94297586.29844
     -3597.239       -2803.040
  21769279.798    21769279.2154   21769281.0384  114398395.680 8  89141592.70446
      1712.632        1334.506
  23682823.956    23682824.0194   23682824.2944  124454091.888 6  96977236.01543
      3105.888        2420.177
  24254628.550    24254627.6834   24254627.1244  127458942.570 6  99318666.75243
      2943.202        2293.385
  21525355.582    21525355.0924   21525355.0914  113116513.014 8  88142751.32145
      -220.196        -171.583
  21628861.216    21628861.1654   21628861.6994  113660454.474 7  88566608.52545
      2173.953        1693.994
  22715775.283    22715774.8954   22715776.0014  119372207.891 7  93017320.18745
     -1483.460       -1155.948
  21500541.226    21500541.0334   21500541.5174  112986129.624 7  88041154.84845
      1177.823         917.762
 06  5  9 17  7 30.0000000  0 11G 3G 7G 8G10G15G18G19G21G26G27G29
  22340762.723    22340762.2974   22340764.1254  117401501.889 7  91481715.95545
       730.814         569.467
  22829296.689    22829295.5494   22829297.5874  119968749.267 7  93482154.51444
     -2238.790       -1744.525
  21885745.441    21885745.2024   21885746.1964  115010402.201 7  89618510.00045
       696.349         542.596
  23049004.900    23049003.8374   23049005.5914  121123316.675 7  94381817.51944
     -3609.260       -2812.414
  21759558.897    21759558.2164   21759560.0364  114347313.174 8  89101788.16545
      1692.821        1319.078
  23665120.979    23665120.6854   23665120.9614  124361060.819 7  96904744.27043
      3095.835        2412.362
  24237859.993    24237859.2944   24237858.7314  127370822.247 6  99250001.61743
      2931.470        2284.238
  21526674.284    21526674.1284   21526674.7594  113123446.670 7  88148154.17245
      -242.441        -188.915
  21616507.725    21616507.9124   21616508.6834  113595538.576 7  88516024.71645
      2153.373        1677.944
  22724295.693    22724295.1984   22724296.2674  119416982.148 7  93052209.18545
     -1501.772       -1170.204
  21493874.791    21493874.2624   21493874.8054  112951095.487 7  88013855.54045
      1157.604         901.999
 06  5  9 17  8  0.0000000  0 11G 3G 7G 8G10G15G18G19G21G26G27G29
  22336650.215    22336649.6764   22336651.4644  117379890.038 7  91464875.47145
       709.562         552.907
  22842121.420    22842121.3014   22842123.3594  120036149.125 7  93534673.89645
     -2254.960       -1757.106
  21881830.872    21881830.7314   21881832.1524  114989832.587 7  89602481.73445
       674.465         525.552
  23069641.131    23069640.0134   23069642.1594  121231760.700 7  94466319.32044
     -3620.601       -2821.244
  21749949.151    21749948.4624   21749950.1754  114296812.392 7  89062436.91345
      1673.515        1304.039
  23647472.926    23647472.8904   23647473.4724  124268320.365 7  96832478.96643
      3086.325        2404.913
  24221154.656    24221153.8324   24221153.3504  127283035.800 6  99181596.68643
      2920.610        2275.813
  21528118.159    21528117.6664   21528117.6334  113131029.141 8  88154062.59245
      -263.739        -205.492
  21604270.960    21604270.9354   21604271.8564  113531232.940 7  88465916.43745
      2133.194        1662.240
  22732916.548    22732916.2354   22732917.3614  119462287.328 7  93087511.90745
     -1519.045       -1183.668
  21487319.377    21487319.0604   21487319.6144  112916647.873 7  87987013.25345
      1138.422         887.083
 06  5  9 17  8 30.0000000  0 11G 3G 7G 8G10G15G18G19G21G26G27G29
  22332661.685    22332661.2054   22332662.6684  117358930.336 8  91448543.29345
       687.527         535.752
  22855042.431    22855042.3584   22855044.7094  120104049.017 7  93587582.89045
     -2271.855       -1770.280
  21878045.826    21878045.3484   21878046.4974  114969939.052 8  89586980.29245
       651.706         507.834
  23090343.547    23090342.9964   23090344.6874  121340553.406 7  94551092.81644
     -3632.475       -2830.493
  21740450.055    21740449.6234   21740452.0484  114246899.509 7  89023543.79545
      1653.626        1288.538
  23629881.672    23629881.9974   23629882.3744  124175876.741 7  96760444.95744
      3076.246        2397.061
  24204514.184    24204513.1824   24204513.1184  127195590.108 6  99113457.21343
      2908.888        2266.672
  21529684.965    21529684.5544   21529684.9634  113139264.863 8  88160480.05045
      -285.657        -222.585
  21592151.501    21592151.5474   21592152.4124  113467544.216 7  88416288.87145
      2112.438        1646.049
  22741639.439    22741639.0584   22741640.2254  119508126.314 7  93123230.57245
     -1537.094       -1197.726
  21480876.733    21480876.5364   21480876.9424  112882791.984 8  87960632.05745
      1118.424         871.506
 06  5  9 17  9  0.0000000  0 11G 3G 7G 8G10G15G18G19G21G26G27G29
  22328797.467    22328796.7454   22328798.2584  117338621.811 7  91432718.56345
       666.188         519.115
  22868057.927    22868057.8524   22868059.3174  120172445.172 6  93640878.60345
     -2287.988       -1782.836
  21874388.293    21874388.0404   21874389.2354  114950721.055 8  89572005.24545
       629.598         490.596
  23111111.587    23111110.6804   23111113.1304  121449690.412 7  94636134.58944
     -3643.382       -2839.006
  21731064.209    21731063.4694   21731065.3844  114197574.783 7  88985108.97045
      1634.600        1273.725
  23612347.137    23612346.3464   23612347.1114  124083730.297 7  96688642.51144
      3066.823        2389.745
  24187938.258    24187937.4754   24187938.0124  127108485.918 6  99045583.87843
      2897.937        2258.134
  21531376.693    21531375.9514   21531375.9064  113148152.501 7  88167405.48145
      -306.715        -238.987
  21580149.492    21580149.4734   21580150.0644  113404473.099 8  88367142.55645
      2092.248        1630.326
  22750463.202    22750463.1014   22750464.1394  119554496.070 7  93159362.84045
     -1554.253       -1211.094
  21474546.598    21474546.3564   21474546.8514  112849527.347 7  87934711.57545
      1099.135         856.475
 06  5  9 17  9 30.0000000  0 11G 3G 7G 8G10G15G18G19G21G26G27G29
  22325055.409    22325054.8764   22325056.5124  117318957.850 8  91417395.98645
       644.226         501.991
  22881166.109    22881165.7264   22881167.8734  120241328.414 7  93694553.84144
     -2304.707       -1795.890
  21870858.986    21870858.4914   21870859.5684  114932171.967 8  89557551.41945
       606.688         472.739
  23131943.070    23131942.3314   23131944.5934  121559161.963 7  94721437.04144
     -3655.074       -2848.101
  21721788.469    21721788.0284   21721790.1584  114148833.033 7  88947128.39844
      1614.514        1258.069
  23594867.832    23594867.5824   23594868.1954  123991876.427 6  96617068.03844
      3056.421        2381.627
  24171426.928    24171425.9664   24171426.3534  127021718.388 6  98977972.85743
      2886.103        2248.906
  21533190.466    21533189.8184   21533190.0314  113157684.801 7  88174833.25845
      -328.867        -256.265
  21568264.020    21568264.1174   21568264.4204  113342014.700 7  88318473.67645
      2071.251        1613.974
  22759387.038    22759386.5794   22759388.0474  119601388.602 7  93195902.45945
     -1572.202       -1225.108
  21468328.078    21468327.7124   21468328.2054  112816847.900 7  87909247.08445
      1079.125         840.874
 06  5  9 17 10  0.0000000  0 11G 3G 7G 8G10G15G18G19G21G26G27G29
  22321436.927    22321436.7564   22321438.0224  117299945.130 8  91402580.92045
       622.609         485.159
  22894366.967    22894366.6734   22894369.2944  120310702.252 6  93748611.34744
     -2320.909       -1808.498
  21867457.925    21867457.4424   21867458.5374  114914298.343 8  89543623.93445
       584.088         455.124
  23152839.207    23152838.7664   23152840.5604  121668970.501 7  94807002.08744
     -3666.203       -2856.771
  21712625.711    21712624.9204   21712626.9814  114100681.543 7  88909607.77245
      1594.941        1242.816
  23577445.554    23577445.3624   23577446.6164  123900322.706 7  96545727.47344
      3046.278        2373.726
  24154981.098    24154980.8144   24154980.4874  126935295.413 6  98910630.25743
      2874.605        2239.964
  21535127.604    21535127.0894   21535127.4854  113167866.938 7  88182767.38145
      -350.572        -273.178
  21556496.427    21556496.6474   21556497.5864  113280176.486 8  88270288.05945
      2050.610        1597.880
  22768410.522    22768410.0514   22768411.2174  119648807.860 7  93232852.52745
     -1589.818       -1238.830
  21462221.516    21462221.2344   21462222.0734  112784760.023 8  87884243.56445
      1059.323         825.437
 06  5  9 17 10 30.0000000  0 11G 3G 7G 8G10G15G18G19G21G26G27G29
  22317942.793    22317942.7504   22317944.3624  117281584.977 7  91388274.33845
       601.161         468.434
  22907661.874    22907661.5104   22907663.5344  120380564.934 6  93803049.77444
     -2336.802       -1820.868
  21864185.137    21864184.6364   21864185.7114  114897101.648 7  89530223.90945
       561.883         437.827
  23173798.573    23173797.9824   23173800.1194  121779114.068 7  94892828.20144
     -3677.016       -2865.188
  21703575.725    21703575.1224   21703576.7764  114053122.558 7  88872548.82845
      1575.438        1227.627
  23560080.972    23560080.5534   23560081.6334  123809071.502 7  96474622.66144
      3036.683        2366.243
  24138602.844    24138601.1294   24138601.2364  126849220.434 6  98843558.90943
      2863.428        2231.239
  21537189.540    21537188.8974   21537188.5594  113178699.180 8  88191208.09945
      -371.904        -289.805
  21544847.854    21544847.7534   21544848.7584  113218961.200 8  88222587.84445
      2029.984        1581.819
  22777534.116    22777533.6454   22777535.0804  119696752.672 7  93270212.11845
     -1606.932       -1252.157
  21456228.808    21456228.7734   21456229.1504  112753265.258 8  87859702.20546
      1039.939         810.341
 06  5  9 17 11  0.0000000  0 11G 3G 7G 8G10G15G18G19G21G26G27G29
  22314574.386    22314573.8674   22314575.2494  117263880.823 7  91374478.87945
       579.325         451.414
  22921049.621    22921048.7374   22921050.9844  120450917.640 6  93857870.06344
     -2353.139       -1833.617
  21861042.414    21861041.8834   21861042.7304  114880585.511 7  89517354.21245
       539.288         420.221
  23194822.434    23194821.6404   23194823.4904  121889593.053 7  94978915.66844
     -3688.247       -2873.963
  21694639.274    21694638.6234   21694640.5554  114006161.044 7  88835955.44445
      1555.543        1212.105
  23542775.516    23542775.3204   23542775.4414  123718128.086 7  96403757.66544
      3026.316        2358.159
  24122290.084    24122289.2004   24122288.9304  126763498.833 6  98776762.92943
      2851.571        2222.005
  21539374.515    21539373.8314   21539374.1674  113190184.470 7  88200157.66845
      -393.755        -306.824
  21533318.223    21533318.4064   21533319.3234  113158373.884 8  88175376.95845
      2009.216        1565.614
  22786758.161    22786757.5724   22786758.7774  119745224.777 7  93307982.58445
     -1624.532       -1265.866
  21450349.030    21450349.0764   21450349.4164  112722367.666 8  87835626.16545
      1019.998         794.810
 06  5  9 17 11 30.0000000  0 11G 3G 7G 8G10G15G18G19G21G26G27G29
  22311328.768    22311328.3584   22311330.0674  117246825.748 7  91361189.25645
       557.932         434.766
  22934528.092    22934527.5644   22934530.3774  120521750.280 6  93913064.32844
     -2368.767       -1845.785
  21858027.388    21858027.1134   21858027.8794  114864742.600 7  89505009.09345
       517.070         402.930
  23215907.561    23215906.8074   23215908.9244  122000396.606 7  95065256.03344
     -3698.591       -2882.032
  21685815.522    21685814.8554   21685816.6184  113959790.731 7  88799822.73845
      1536.024        1196.914
  23525527.532    23525527.1794   23525527.2484  123627486.708 7  96333128.01144
      3016.652        2350.648
  24106043.354    24106042.6944   24106042.5384  126678125.077 6  98710238.02143
      2840.349        2213.275
  21541683.495    21541682.9974   21541682.3674  113202315.077 7  88209610.09645
      -414.858        -323.255
  21521907.464    21521907.5304   21521908.3034  113098408.908 7  88128651.01345
      1988.508        1549.502
  22796080.561    22796080.1504   22796081.1184  119794214.967 7  93346156.75445
     -1641.447       -1279.045
  21444581.786    21444581.5754   21444581.9744  112692060.260 7  87812010.01645
      1000.811         779.868
 06  5  9 17 12  0.0000000  0 11G 3G 7G 8G10G15G18G19G21G26G27G29
  22308208.720    22308208.5584   22308209.8794  117230430.296 7  91348413.55245
       535.254         417.075
  22948100.078    22948099.5364   22948102.0634  120593070.343 6  93968638.41844
     -2385.688       -1858.978
  21855142.724    21855142.2634   21855143.0984  114849583.562 8  89493196.86945
       493.581         384.616
  23237056.306    23237055.3724   23237057.7754  122111532.039 7  95151855.01544
     -3710.206       -2891.059
  21677106.409    21677105.8154   21677107.4174  113914023.375 8  88764159.88545
      1515.303        1180.754
  23508339.094    23508338.4064   23508338.7144  123537159.818 7  96262743.41344
      3005.395        2341.880
  24089866.098    24089865.0294   24089864.6244  126593111.187 6  98643993.46543
      2827.620        2203.343
  21544115.536    21544115.1544   21544115.1694  113215100.620 8  88219572.86345
      -437.373        -340.802
  21510617.077    21510617.0794   21510617.8164  113039078.152 8  88082419.27145
      1966.818        1532.585
  22805503.043    22805502.6924   22805503.9874  119843731.604 7  93384741.12645
     -1659.592       -1293.188
  21438928.335    21438928.1574   21438928.9414  112662353.720 7  87788862.08645
       980.022         763.660
 06  5  9 17 12 30.0000000  0 11G 3G 7G 8G10G15G18G19G21G26G27G29
  22305215.245    22305214.8544   22305216.5274  117214699.865 7  91336156.16645
       513.550         400.158
  22961765.076    22961764.3954   22961767.2294  120664880.270 6  94024594.19244
     -2401.524       -1871.320
  21852389.353    21852388.9304   21852389.6954  114835113.901 8  89481921.81445
       471.117         367.095
  23258268.618    23258267.8684   23258269.0464  122223001.028 7  95238713.92144
     -3720.817       -2899.334
  21668512.933    21668512.4644   21668514.3414  113868865.044 8  88728971.60145
      1495.457        1165.289
  23491210.901    23491210.7194   23491211.1384  123447153.349 7  96192608.51444
      2995.245        2333.960
  24073757.810    24073757.3344   24073756.9934  126508464.233 6  98578034.89743
      2815.819        2194.138
  21546674.880    21546674.2994   21546673.5804  113228544.998 7  88230049.01545
      -458.718        -357.449
  21499448.917    21499448.8254   21499449.4524  112980388.077 7  88036686.76045
      1945.966        1516.339
  22815026.313    22815026.0034   22815027.4934  119893777.570 7  93423737.97745
     -1676.618       -1306.465
  21433390.674    21433390.7784   21433391.3214  112633253.409 8  87766186.53045
       960.283         748.274
 06  5  9 17 13  0.0000000  0 11G 3G 7G 8G10G15G18G19G21G26G27G29
  22302343.883    22302343.5744   22302344.6814  117199611.337 7  91324398.95945
       491.796         383.218
  22975519.037    22975518.1374   22975520.3734  120737154.570 7  94080911.80544
     -2417.256       -1883.575
  21849762.804    21849762.2424   21849763.3534  114821310.825 8  89471166.17845
       448.683         349.638
  23279538.582    23279537.4414   23279539.8414  122334777.274 7  95325812.24244
     -3731.422       -2907.586
  21660031.644    21660030.9674   21660032.8914  113824294.182 8  88694241.08045
      1475.599        1149.832
  23474140.318    23474139.5604   23474140.0704  123357446.674 7  96122707.20044
      2984.840        2325.860
  24057716.692    24057715.2294   24057715.0244  126424163.073 6  98512345.74143
      2804.060        2184.991
  21549353.614    21549352.8464   21549352.9564  113242624.704 8  88241020.19845
      -480.149        -374.116
  21488398.252    21488398.4344   21488398.8424  112922317.531 8  87991436.99045
      1924.947        1499.990
  22824645.834    22824645.3814   22824646.7824  119944327.983 7  93463127.90044
     -1693.599       -1319.673
  21427964.567    21427964.2254   21427964.8634  112604736.830 7  87743965.83445
       940.450         732.828
 06  5  9 17 13 30.0000000  0 11G 3G 7G 8G10G15G18G19G21G26G27G29
  22299598.314    22299597.8324   22299599.3924  117185182.324 7  91313155.62645
       470.099         366.301
  22989363.627    22989362.9524   22989364.2554  120809908.022 6  94137602.80044
     -2432.792       -1895.665
  21847266.230    21847265.7514   21847266.8954  114808192.128 8  89460943.82745
       426.081         332.010
  23300869.853    23300869.2664   23300870.8784  122446875.076 7  95413161.13544
     -3741.703       -2915.613
  21651665.004    21651664.2784   21651666.7634  113780329.452 7  88659982.88045
      1455.576        1134.219
  23457129.849    23457129.8914   23457130.1514  123268058.799 7  96053054.32544
      2974.420        2317.737
  24041743.742    24041742.8504   24041742.7904  126340227.411 6  98446941.36743
      2791.929        2175.522
  21552157.619    21552157.1514   21552156.1464  113257356.731 7  88252499.68545
      -501.789        -391.014
  21477469.127    21477469.3244   21477469.9254  112864885.414 8  87946684.70745
      1903.968        1483.595
  22834364.124    22834363.8164   22834365.4344  119995398.657 7  93502923.22945
     -1710.780       -1333.084
  21422652.599    21422652.5564   21422652.8194  112576821.983 7  87722214.01845
       920.681         717.406
 06  5  9 17 14  0.0000000  0 11G 3G 7G 8G10G15G18G19G21G26G27G29
  22296975.845    22296975.5434   22296977.1854  117171403.745 7  91302419.20045
       448.144         349.199
  23003296.521    23003296.5724   23003297.6984  120883128.450 7  94194657.69844
     -2448.583       -1907.956
  21844898.324    21844897.8734   21844899.0074  114795747.836 8  89451246.98245
       403.525         314.427
  23322260.641    23322259.2874   23322261.4834  122559281.509 7  95500750.50944
     -3752.192       -2923.805
  21643412.477    21643411.7194   21643414.1234  113736962.393 7  88626190.39945
      1435.533        1118.587
  23440178.798    23440178.5994   23440179.4844  123178981.420 7  95983643.38344
      2963.952        2309.563
  24025839.430    24025838.3074   24025838.1374  126256649.371 6  98381815.64543
      2779.859        2166.149
  21555082.486    21555082.1754   21555082.2694  113272730.624 8  88264479.34345
      -523.247        -407.739
  21466660.537    21466660.3214   21466661.0544  112808083.617 8  87902423.58545
      1882.665        1467.008
  22844179.572    22844179.3244   22844180.6134  120046977.609 7  93543114.60945
     -1727.789       -1346.325
  21417453.470    21417452.8774   21417453.4414  112549499.657 7  87700923.91145
       900.802         701.914
 06  5  9 17 14 30.0000000  0 11G 3G 7G 8G10G15G18G19G21G26G27G29
  22294478.550    22294478.2804   22294479.8034  117158279.276 8  91292192.42645
       426.037         331.971
  23017319.358    23017318.7344   23017320.2274  120956816.909 6  94252077.25844
     -2464.412       -1920.337
  21842659.373    21842658.8424   21842659.6814  114783982.363 8  89442079.08845
       380.414         296.418
  23343709.706    23343708.3384   23343710.2664  122671997.393 6  95588581.00844
     -3762.842       -2932.085
  21635274.481    21635273.8864   21635276.2874  113694198.249 7  88592867.73545
      1415.022        1102.613
  23423288.262    23423287.8834   23423288.7144  123090220.508 7  95914479.06244
      2952.939        2300.984
  24010003.852    24010002.9294   24010003.1414  126173435.155 6  98316973.46543
      2767.242        2156.289
  21558131.350    21558130.7694   21558130.0884  113288749.260 7  88276961.37645
      -545.099        -424.746
  21455972.035    21455972.0994   21455972.8434  112751917.702 8  87858657.94845
      1861.175        1450.262
  22854091.561    22854091.5494   22854092.8554  120099067.023 7  93583703.74145
     -1745.194       -1359.891
  21412367.356    21412367.1554   21412367.8614  112522773.950 8  87680098.71045
       880.436         686.055
 06  5  9 17 15  0.0000000  0 11G 3G 7G 8G10G15G18G19G21G26G27G29
  22292105.974    22292105.3064   22292106.6584  117145809.503 7  91282475.71345
       404.606         315.294
  23031430.368    23031429.3984   23031431.8344  121030971.662 7  94309860.18644
     -2479.800       -1932.300
  21840549.572    21840549.1274   21840550.2334  114772896.643 7  89433440.86945
       357.988         278.951
  23365216.776    23365216.2914   23365218.5844  122785020.335 7  95676650.78144
     -3772.883       -2939.897
  21627252.085    21627251.3824   21627253.4774  113652038.836 8  88560016.28545
      1394.984        1087.016
  23406458.875    23406458.2674   23406458.3494  123001778.492 7  95845563.21844
      2942.514        2292.878
  23994238.644    23994237.3714   23994236.7864  126090586.808 6  98252416.29643
      2755.281        2146.979
  21561301.708    21561301.3934   21561300.9814  113305412.500 7  88289945.71345
      -566.442        -441.365
  21445405.084    21445405.2394   21445406.2404  112696389.836 8  87815389.50845
      1840.068        1433.823
  22864101.158    22864100.8224   22864101.5864  120151665.565 7  93624689.59745
     -1761.840       -1372.861
  21407395.466    21407395.3674   21407395.7934  112496646.079 7  87659739.35046
       860.686         670.680
 06  5  9 17 15 30.0000000  0 11G 3G 7G 8G10G15G18G19G21G26G27G29
  22289857.053    22289856.9634   22289858.0844  117133994.543 7  91273269.22645
       382.954         298.399
  23045628.795    23045628.5604   23045631.1764  121105589.655 6  94368004.05444
     -2495.101       -1944.224
  21838569.483    21838568.9404   21838569.9064  114762490.076 8  89425331.86645
       335.475         261.410
  23386782.007    23386781.6234   23386783.2684  122898346.802 6  95764957.06744
     -3782.922       -2947.725
  21619344.297    21619343.7704   21619346.0204  113610484.946 7  88527636.65945
      1374.745        1071.223
  23389689.892    23389689.5184   23389689.5524  122913656.708 7  95776896.89044
      2931.838        2284.545
  23978542.958    23978541.8294   23978542.2334  126008106.507 6  98188145.99843
      2743.161        2137.533
  21564595.651    21564595.0724   21564594.6604  113322719.562 8  88303431.72445
      -587.753        -457.977
  21434960.416    21434960.3344   21434961.3864  112641501.288 8  87772619.23845
      1818.911        1417.331
  22874206.692    22874206.3404   22874207.7934  120204770.984 7  93666070.42544
     -1778.762       -1386.041
  21402537.597    21402537.0834   21402537.7834  112471116.030 7  87639845.82046
       840.869         655.224
 06  5  9 17 16  0.0000000  0 11G 3G 7G 8G10G15G18G19G21G26G27G29
  22287731.997    22287731.7234   22287733.1214  117122827.818 7  91264567.86345
       361.378         281.583
  23059915.446    23059914.9014   23059917.3084  121180661.544 7  94426501.61444
     -2509.945       -1955.827
  21836716.859    21836716.6534   21836717.6664  114752756.424 7  89417747.20745
       313.222         244.051
  23408403.235    23408402.4094   23408404.6214  123011966.938 7  95853492.18544
     -3792.030       -2954.832
  21611551.471    21611550.6854   21611552.4384  113569531.217 8  88495724.68845
      1354.984        1055.824
  23372980.572    23372980.3124   23372980.6294  122825849.914 7  95708476.02544
      2921.603        2276.560
  23962917.152    23962915.9144   23962915.6304  125925989.483 6  98124158.69043
      2731.155        2128.177
  21568009.731    21568009.4274   21568009.1404  113340662.927 8  88317413.56845
      -608.798        -474.404
  21424636.586    21424636.4854   21424637.1614  112587246.718 7  87730342.98446
      1797.879        1400.934
  22884407.322    22884406.7944   22884408.1014  120258374.756 7  93707839.59544
     -1795.125       -1398.814
  21397791.548    21397791.2784   21397792.0494  112446177.437 8  87620413.16546
       821.483         640.114
 06  5  9 17 16 30.0000000  0 11G 3G 7G 8G10G15G18G19G21G26G27G29
  22285731.669    22285731.2744   22285732.5394  117112314.788 7  91256376.02045
       339.434         264.480
  23074287.793    23074287.6464   23074289.5064  121256189.773 7  94485354.75644
     -2525.131       -1967.634
  21834993.982    21834993.4674   21834994.2504  114743700.774 8  89410690.86345
       290.538         226.383
  23430081.425    23430080.6014   23430082.0394  123125882.577 7  95942257.56344
     -3801.842       -2962.464
  21603873.471    21603872.7674   21603874.5034  113529183.944 8  88464285.26045
      1334.835        1040.123
  23356332.853    23356332.5794   23356332.6814  122738365.309 7  95640306.20144
      2910.824        2268.189
  23947361.143    23947360.1434   23947359.5884  125844242.961 6  98060460.20543
      2718.575        2118.373
  21571546.370    21571546.1214   21571545.7574  113359247.161 8  88331894.79645
      -630.210        -491.081
  21414433.902    21414434.0324   21414434.5034  112533632.888 8  87688566.00346
      1776.365        1384.176
  22894702.781    22894702.7764   22894703.8334  120312479.752 7  93749999.32144
     -1811.840       -1411.824
  21393159.525    21393159.3184   21393159.8354  112421835.705 7  87601445.60046
       801.387         624.453
 06  5  9 17 17  0.0000000  0 11G 3G 7G 8G10G15G18G19G21G26G27G29
  22283855.304    22283855.4504   22283856.8824  117102456.699 7  91248694.44045
       317.058         247.057
  23088746.964    23088746.7154   23088748.5324  121332173.450 7  94544562.81844
     -2540.792       -1979.836
  21833400.118    21833399.5664   21833400.2954  114735324.935 7  89404164.24245
       267.281         208.278
  23451814.024    23451813.5524   23451815.1804  123240092.367 7  96031252.15344
     -3812.320       -2970.630
  21596311.964    21596311.1874   21596312.8004  113489446.081 8  88433320.67545
      1313.966        1023.862
  23339746.984    23339746.7384   23339746.6994  122651206.020 7  95572389.89244
      2899.367        2259.234
  23931876.430    23931875.4294   23931874.7604  125762870.350 6  97997053.05943
      2705.740        2108.342
  21575204.832    21575204.3504   21575204.2294  113378472.568 7  88346875.60845
      -652.076        -508.107
  21404353.764    21404353.9854   21404354.5584  112480662.830 8  87647290.65446
      1754.385        1367.058
  22905094.160    22905093.8154   22905095.1234  120367085.430 7  93792549.20145
     -1828.940       -1425.171
  21388641.215    21388641.2774   21388641.6344  112398092.992 7  87582944.79645
       781.041         608.605
 06  5  9 17 17 30.0000000  0 11G 3G 7G 8G10G15G18G19G21G26G27G29
  22282103.746    22282103.1444   22282104.9754  117093250.624 7  91241520.92045
       295.920         230.582
  23103291.699    23103291.2624   23103293.4254  121408606.715 7  94604121.21444
     -2555.409       -1991.231
  21831934.876    21831934.6244   21831935.2894  114727625.725 7  89398164.86045
       245.185         191.047
  23473602.543    23473601.8534   23473603.9474  123354589.835 7  96120470.90244
     -3821.431       -2977.729
  21588865.230    21588864.7884   21588866.0234  113450315.620 8  88402829.42045
      1294.055        1008.343
  23323222.575    23323222.4684   23323222.9514  122564370.951 7  95504726.23644
      2888.855        2251.056
  23916462.510    23916461.0804   23916461.0604  125681870.407 6  97933936.21143
      2693.501        2098.819
  21578984.635    21578984.1384   21578984.2854  113398335.670 8  88362353.33345
      -672.762        -524.240
  21394396.379    21394396.2854   21394396.9564  112428334.994 8  87606515.74646
      1733.363        1350.672
  22915579.937    22915579.5194   22915580.4494  120422186.847 7  93835485.36244
     -1845.050       -1437.697
  21384236.810    21384236.4674   21384236.9924  112374946.333 8  87564908.46046
       761.417         593.307
 06  5  9 17 18  0.0000000  0 12G 3G 7G 8G10G15G18G19G21G26G27G28G29
  22280474.431    22280474.1614   22280475.7074  117084689.601 7  91234849.95645
       274.239         213.680
  23117919.877    23117919.7504   23117921.8474  121485480.421 7  94664022.78644
     -2569.951       -2002.559
  21830597.171    21830596.9354   21830597.8394  114720596.901 7  89392687.85845
       222.839         173.643
  23495443.531    23495442.4814   23495444.3654  123469365.437 6  96209906.38244
     -3830.732       -2984.982
  21581533.610    21581532.9174   21581534.6414  113411786.967 8  88372807.10245
      1274.017         992.735
  23306759.569    23306759.0144   23306759.5374  122477855.076 7  95437311.30444
      2878.288        2242.832
  23901119.275    23901117.9044   23901117.2394  125601238.757 6  97871106.42543
      2681.296        2089.337
  21582884.452    21582884.1814   21582884.1624  113418828.791 7  88378322.01845
      -694.000        -540.791
  21384560.036    21384560.2134   21384560.6464  112376644.195 8  87566237.21546
      1712.081        1334.083
  22926157.938    22926157.3974   22926158.9244  120477775.791 7  93878801.40544
     -1861.395       -1450.424
  25585611.536    25585610.6614   25585612.8844  134453292.188 6 104768818.33242
      3271.134        2548.920
  21379944.134    21379944.0184   21379944.7394  112352389.480 7  87547331.71146
       741.769         577.997
 06  5  9 17 18 30.0000000  0 12G 3G 7G 8G10G15G18G19G21G26G27G28G29
  22278969.643    22278969.0134   22278970.1874  117076778.853 7  91228685.76644
       252.821         196.991
  23132633.602    23132632.7454   23132634.6254  121562796.461 7  94724269.03544
     -2584.705       -2014.062
  21829388.501    21829387.8104   21829388.6534  114714243.169 8  89387736.89245
       200.533         156.262
  23517337.833    23517336.9274   23517339.4404  123584420.563 7  96299559.67644
     -3839.823       -2992.055
  21574317.722    21574316.7754   21574318.6264  113373866.014 8  88343258.33345
      1253.817         977.005
  23290357.944    23290357.2784   23290358.1144  122391664.839 7  95370150.11744
      2867.448        2234.385
  23885846.467    23885845.0254   23885844.7344  125520981.998 6  97808568.72943
      2668.662        2079.486
  21586904.350    21586903.9774   21586904.1124  113439955.663 7  88394784.48745
      -714.888        -557.052
  21374845.799    21374845.8424   21374846.7964  112325596.693 8  87526459.96146
      1690.829        1317.530
  22936829.035    22936828.8694   22936829.7464  120533854.734 7  93922499.26244
     -1877.525       -1463.019
  25566947.659    25566947.1794   25566949.3944  134355216.477 6 104692395.79742
      3266.792        2545.607
  21375764.853    21375764.7664   21375765.3874  112330427.395 7  87530218.42045
       722.151         562.716
 06  5  9 17 19  0.0000000  0 12G 3G 7G 8G10G15G18G19G21G26G27G28G29
  22277586.266    22277585.7304   22277587.4274  117069512.700 7  91223023.85244
       231.202         180.159
  23147428.160    23147427.8494   23147430.4144  121640546.567 7  94784853.51344
     -2599.337       -2025.464
  21828306.221    21828305.9984   21828307.0714  114708558.372 8  89383307.18045
       177.978         138.684
  23539283.493    23539282.6354   23539284.9484  123699746.516 6  96389424.00144
     -3849.203       -2999.385
  21567216.155    21567215.7334   21567217.0564  113336548.179 8  88314179.53845
      1233.354         961.051
  23274017.621    23274017.2694   23274017.5634  122305796.287 7  95303239.57144
      2856.525        2225.858
  23870644.550    23870642.9384   23870642.8684  125441096.402 6  97746320.22643
      2656.493        2069.992
  21591044.863    21591044.2024   21591043.7874  113461709.535 8  88411735.55646
      -735.990        -573.513
  21365253.152    21365253.3734   21365254.0554  112275188.061 8  87487180.53146
      1669.165        1300.654
  22947592.651    22947592.2414   22947593.0464  120590415.946 7  93966572.91844
     -1893.832       -1475.711
  25548308.963    25548308.0214   25548309.4174  134257268.725 6 104616072.95242
      3262.403        2542.103
  21371697.959    21371697.7814   21371698.3024  112309054.522 8  87513564.24546
       702.174         547.138
 06  5  9 17 19 30.0000000  0 12G 3G 7G 8G10G15G18G19G21G26G27G28G29
  22276326.646    22276326.2994   22276327.8274  117062893.195 7  91217865.75244
       209.668         163.364
  23162306.718    23162305.9704   23162308.2084  121718730.354 6  94845775.92944
     -2613.573       -2036.587
  21827352.592    21827351.9954   21827353.1074  114703545.033 7  89379400.67845
       155.854         121.420
  23561280.090    23561279.9744   23561282.7574  123815342.697 6  96479498.90944
     -3857.891       -3006.163
  21560230.652    21560229.7124   21560231.4704  113299836.961 7  88285573.42645
      1213.431         945.518
  23257739.378    23257739.0544   23257739.0124  122220253.872 7  95236583.19844
      2845.733        2217.431
  23855513.848    23855512.8854   23855512.6904  125361586.641 6  97684364.60143
      2643.739        2060.059
  21595303.016    21595302.6844   21595303.4604  113484092.203 7  88429176.58445
      -756.657        -589.620
  21355782.990    21355783.1394   21355783.7694  112225422.217 8  87448401.97545
      1647.980        1284.121
  22958447.884    22958447.4204   22958448.3564  120647459.624 7  94011022.51644
     -1909.685       -1488.069
  25529694.316    25529695.1934   25529696.4644  134159453.147 6 104539853.09342
      3258.080        2538.781
  21367743.412    21367743.2784   21367743.7724  112288273.809 8  87497371.49546
       682.766         532.010
 06  5  9 17 20  0.0000000  0 12G 3G 7G 8G10G15G18G19G21G26G27G28G29
  22275189.848    22275189.9424   22275192.0044  117056921.054 7  91213212.04844
       187.803         146.329
  23177266.969    23177266.2734   23177268.4294  121797345.921 6  94907034.76644
     -2628.277       -2048.019
  21826526.451    21826526.1414   21826527.3134  114699204.097 8  89376018.12745
       132.928         103.575
  23583329.086    23583328.4194   23583330.5254  123931206.726 6  96569782.50644
     -3867.031       -3013.264
  21553360.015    21553359.2564   21553361.2534  113263734.192 7  88257441.42245
      1192.720         929.383
  23241523.733    23241523.8974   23241523.6224  122135039.891 7  95170182.72044
      2834.363        2208.589
  23840455.106    23840454.4614   23840454.7614  125282454.936 6  97622703.45743
      2630.716        2049.904
  21599683.151    21599682.5934   21599682.0364  113507103.597 8  88447107.54545
      -778.068        -606.293
  21346435.969    21346436.0384   21346436.4204  112176301.215 8  87410125.87746
      1626.119        1267.110
  22969394.391    22969393.9664   22969395.1254  120704984.737 7  94055847.25944
     -1926.146       -1500.903
  25511107.830    25511106.7914   25511108.6444  134061772.554 6 104463738.40842
      3253.110        2534.926
  21363901.853    21363901.7474   21363902.1824  112268086.178 8  87481640.89446
       662.564         516.281
